[[{"header":{"parameterUnit":"m.s-1","parameterCategory":1,"la1":30.6,"la2":29.2853,"lo1":-89.7004,"lo2":-87.6739,"dy":0.0162,"dx":0.0183,"nx":112,"ny":82,"refTime":"2024-09-26T12:00:00:Z","depth":0,"parameterNumber":2,"parameterNumberName":"U-component_of_WINDS"},"data":[0.0,0.0,0.0,0.0,0.0,0.0,0.0,0.0,0.0,0.0,0.0,0.0,0.0,0.0,0.0,0.0,0.0,0.0,0.0,0.0,0.0,0.0,0.0,0.0,0.0,0.0,0.0,0.0,0.0,0.0,0.0,0.0,0.0,0.0,0.0,0.0,0.0,0.0,0.0,0.0,0.0,0.0,0.0,0.0,0.0,0.0,0.0,0.0,0.0,0.0,0.0,0.0,0.0,0.0,0.0,0.0,0.0,0.0,0.0,0.0,0.0,0.0,0.0,0.0,0.0,0.0,0.0,0.0,0.0,0.0,0.0,0.0,0.0,0.0,0.0,0.0,0.0,0.0,0.0,0.0,0.0,0.0,0.0,0.0,0.0,0.0,0.0,0.0,0.0,0.0,-2.1013,-2.1759,-2.2608,-2.3106,-2.3106,-2.2535,-2.1906,-2.1247,0.0,0.0,0.0,0.0,0.0,0.0,0.0,0.0,0.0,0.0,0.0,0.0,0.0,0.0,0.0,0.0,0.0,0.0,0.0,0.0,0.0,0.0,0.0,0.0,0.0,0.0,0.0,0.0,0.0,0.0,0.0,0.0,0.0,0.0,0.0,0.0,0.0,0.0,0.0,0.0,0.0,0.0,0.0,0.0,0.0,0.0,0.0,0.0,0.0,0.0,0.0,0.0,0.0,0.0,0.0,0.0,0.0,0.0,0.0,0.0,0.0,0.0,0.0,0.0,0.0,0.0,0.0,0.0,0.0,0.0,0.0,0.0,0.0,0.0,0.0,0.0,0.0,0.0,0.0,0.0,0.0,0.0,0.0,0.0,0.0,0.0,0.0,0.0,0.0,0.0,0.0,0.0,0.0,0.0,0.0,0.0,0.0,0.0,0.0,0.0,0.0,0.0,0.0,0.0,-2.1174,-2.2359,-2.2857,-2.3106,-2.3106,-2.2535,-2.1906,-2.1247,0.0,0.0,0.0,0.0,0.0,0.0,0.0,0.0,0.0,0.0,0.0,0.0,0.0,0.0,0.0,0.0,0.0,0.0,0.0,0.0,0.0,0.0,0.0,0.0,0.0,0.0,0.0,0.0,0.0,0.0,0.0,0.0,0.0,0.0,0.0,0.0,0.0,0.0,0.0,0.0,0.0,0.0,0.0,0.0,0.0,0.0,0.0,0.0,0.0,0.0,0.0,0.0,0.0,0.0,0.0,0.0,0.0,0.0,0.0,0.0,0.0,0.0,0.0,0.0,0.0,0.0,0.0,0.0,0.0,0.0,0.0,0.0,0.0,0.0,0.0,0.0,0.0,0.0,0.0,0.0,0.0,0.0,0.0,0.0,0.0,0.0,0.0,0.0,0.0,0.0,0.0,0.0,0.0,0.0,0.0,0.0,0.0,0.0,0.0,0.0,0.0,0.0,0.0,-2.1203,-2.1862,-2.2784,-2.3018,-2.3106,-2.3106,-2.2535,-2.1906,-2.1247,-2.0428,0.0,0.0,0.0,0.0,0.0,0.0,0.0,0.0,0.0,0.0,0.0,0.0,0.0,0.0,0.0,0.0,0.0,0.0,0.0,0.0,0.0,0.0,0.0,0.0,0.0,0.0,0.0,0.0,0.0,0.0,0.0,0.0,0.0,0.0,0.0,0.0,0.0,0.0,0.0,0.0,0.0,0.0,0.0,0.0,0.0,0.0,0.0,0.0,0.0,0.0,0.0,0.0,0.0,0.0,0.0,0.0,0.0,0.0,0.0,0.0,0.0,0.0,0.0,0.0,0.0,0.0,0.0,0.0,0.0,0.0,0.0,0.0,0.0,0.0,0.0,0.0,0.0,0.0,0.0,0.0,0.0,0.0,0.0,0.0,0.0,0.0,0.0,0.0,0.0,0.0,0.0,0.0,0.0,0.0,0.0,0.0,0.0,0.0,0.0,0.0,0.0,0.0,-2.1774,-2.2418,-2.3047,-2.3106,-2.3106,-2.3106,-2.2535,-2.1906,-2.1247,-2.0296,0.0,0.0,0.0,0.0,0.0,0.0,0.0,0.0,0.0,0.0,0.0,0.0,0.0,0.0,0.0,0.0,0.0,0.0,0.0,0.0,0.0,0.0,0.0,0.0,0.0,0.0,0.0,0.0,0.0,0.0,0.0,0.0,0.0,0.0,0.0,0.0,0.0,0.0,0.0,0.0,0.0,0.0,0.0,0.0,0.0,0.0,0.0,0.0,0.0,0.0,0.0,0.0,0.0,0.0,0.0,0.0,0.0,0.0,0.0,0.0,0.0,0.0,0.0,0.0,0.0,0.0,0.0,0.0,0.0,0.0,0.0,0.0,0.0,0.0,0.0,0.0,0.0,0.0,0.0,0.0,0.0,0.0,0.0,0.0,0.0,0.0,0.0,0.0,0.0,0.0,0.0,0.0,0.0,0.0,0.0,0.0,0.0,0.0,0.0,0.0,0.0,0.0,-2.1774,-2.2418,-2.3047,-2.3106,-2.3106,-2.3106,-2.2535,-2.1906,-2.1247,-2.0296,0.0,0.0,0.0,0.0,0.0,0.0,0.0,0.0,0.0,0.0,0.0,0.0,0.0,0.0,0.0,0.0,0.0,0.0,0.0,0.0,0.0,0.0,0.0,0.0,0.0,0.0,0.0,0.0,0.0,0.0,0.0,0.0,0.0,0.0,0.0,0.0,0.0,0.0,0.0,0.0,0.0,0.0,0.0,0.0,0.0,0.0,0.0,0.0,0.0,0.0,0.0,0.0,0.0,0.0,0.0,0.0,0.0,0.0,0.0,0.0,0.0,0.0,0.0,0.0,0.0,0.0,0.0,0.0,0.0,0.0,0.0,0.0,0.0,0.0,0.0,0.0,0.0,0.0,0.0,0.0,0.0,0.0,0.0,0.0,0.0,0.0,0.0,0.0,0.0,0.0,0.0,0.0,0.0,0.0,0.0,0.0,0.0,0.0,0.0,0.0,0.0,0.0,-2.1774,-2.2418,-2.3047,-2.3106,-2.3032,-2.2828,-2.2418,-2.1818,-2.0955,0.0,0.0,0.0,0.0,0.0,0.0,0.0,0.0,0.0,0.0,0.0,0.0,0.0,0.0,0.0,0.0,0.0,0.0,0.0,0.0,0.0,0.0,0.0,0.0,0.0,0.0,0.0,0.0,0.0,0.0,0.0,0.0,0.0,0.0,0.0,0.0,0.0,0.0,0.0,0.0,0.0,0.0,0.0,0.0,0.0,0.0,0.0,0.0,0.0,0.0,0.0,0.0,0.0,0.0,0.0,0.0,0.0,0.0,0.0,0.0,0.0,0.0,0.0,0.0,0.0,0.0,0.0,0.0,0.0,0.0,0.0,0.0,0.0,0.0,0.0,0.0,0.0,0.0,0.0,0.0,0.0,0.0,0.0,0.0,0.0,0.0,0.0,0.0,0.0,0.0,0.0,0.0,0.0,0.0,0.0,0.0,0.0,0.0,0.0,0.0,0.0,0.0,-2.1262,-2.1847,-2.2418,-2.3047,-2.3106,-2.3018,-2.2798,-2.2418,-2.1818,-2.094,0.0,0.0,0.0,0.0,0.0,0.0,0.0,0.0,0.0,0.0,0.0,0.0,0.0,0.0,0.0,0.0,0.0,0.0,0.0,0.0,0.0,0.0,0.0,0.0,0.0,0.0,0.0,0.0,0.0,0.0,0.0,0.0,0.0,0.0,0.0,0.0,0.0,0.0,0.0,0.0,0.0,0.0,0.0,0.0,0.0,0.0,0.0,0.0,0.0,0.0,0.0,0.0,0.0,0.0,0.0,0.0,0.0,0.0,0.0,0.0,0.0,0.0,0.0,0.0,0.0,0.0,0.0,0.0,0.0,0.0,0.0,0.0,0.0,0.0,0.0,0.0,0.0,0.0,0.0,0.0,0.0,0.0,0.0,0.0,0.0,0.0,0.0,0.0,0.0,0.0,0.0,0.0,0.0,0.0,0.0,0.0,0.0,0.0,0.0,0.0,0.0,0.0,-2.1569,-2.1979,-2.2418,-2.3047,-2.3106,-2.3106,-2.3106,-2.2535,-2.1906,0.0,0.0,0.0,0.0,0.0,0.0,0.0,0.0,0.0,0.0,0.0,0.0,0.0,0.0,0.0,0.0,0.0,0.0,0.0,0.0,0.0,0.0,0.0,0.0,0.0,0.0,0.0,0.0,0.0,0.0,0.0,0.0,0.0,0.0,0.0,0.0,0.0,0.0,0.0,0.0,0.0,0.0,0.0,0.0,0.0,0.0,0.0,0.0,0.0,0.0,0.0,0.0,0.0,0.0,0.0,0.0,0.0,0.0,0.0,0.0,0.0,0.0,0.0,0.0,0.0,0.0,0.0,0.0,0.0,0.0,0.0,0.0,0.0,0.0,0.0,0.0,0.0,0.0,0.0,0.0,0.0,0.0,0.0,0.0,0.0,0.0,0.0,0.0,0.0,0.0,0.0,0.0,0.0,0.0,0.0,0.0,0.0,0.0,0.0,0.0,0.0,0.0,0.0,-2.1598,-2.2169,-2.2652,-2.3062,-2.3106,-2.3018,-2.2784,-2.2403,-2.1803,-2.0925,0.0,0.0,0.0,0.0,0.0,0.0,0.0,0.0,0.0,0.0,0.0,0.0,0.0,0.0,0.0,0.0,0.0,0.0,0.0,0.0,0.0,0.0,0.0,0.0,0.0,0.0,0.0,0.0,0.0,0.0,0.0,0.0,0.0,0.0,0.0,0.0,0.0,0.0,0.0,0.0,0.0,0.0,0.0,0.0,0.0,0.0,0.0,0.0,0.0,0.0,0.0,0.0,0.0,0.0,0.0,0.0,0.0,0.0,0.0,0.0,0.0,0.0,0.0,0.0,0.0,0.0,0.0,0.0,0.0,0.0,0.0,0.0,0.0,0.0,0.0,0.0,0.0,0.0,0.0,0.0,0.0,0.0,0.0,0.0,0.0,0.0,0.0,0.0,0.0,0.0,0.0,0.0,0.0,0.0,0.0,0.0,0.0,0.0,0.0,0.0,0.0,0.0,-2.1789,-2.2315,-2.2754,-2.3076,-2.3106,-2.3032,-2.2828,-2.2432,-2.1818,-2.0969,0.0,0.0,0.0,0.0,0.0,0.0,0.0,0.0,0.0,0.0,0.0,0.0,0.0,0.0,0.0,0.0,0.0,0.0,0.0,0.0,0.0,0.0,0.0,0.0,0.0,0.0,0.0,0.0,0.0,0.0,0.0,0.0,0.0,0.0,0.0,0.0,0.0,0.0,0.0,0.0,0.0,0.0,0.0,0.0,0.0,0.0,0.0,0.0,0.0,0.0,0.0,0.0,0.0,0.0,0.0,0.0,0.0,0.0,0.0,0.0,0.0,0.0,0.0,0.0,0.0,0.0,0.0,0.0,0.0,0.0,0.0,0.0,0.0,0.0,0.0,0.0,0.0,0.0,0.0,0.0,0.0,0.0,0.0,0.0,0.0,0.0,0.0,0.0,0.0,0.0,0.0,0.0,0.0,0.0,0.0,0.0,0.0,0.0,0.0,0.0,0.0,0.0,-2.2067,-2.2462,-2.2784,-2.3076,-2.3106,-2.3106,-2.3106,-2.2564,-2.195,-2.1291,0.0,0.0,0.0,0.0,0.0,0.0,0.0,0.0,0.0,0.0,0.0,0.0,0.0,0.0,0.0,0.0,0.0,0.0,0.0,0.0,0.0,0.0,0.0,0.0,0.0,0.0,0.0,0.0,0.0,0.0,0.0,0.0,0.0,0.0,0.0,0.0,0.0,0.0,0.0,0.0,0.0,0.0,0.0,0.0,0.0,0.0,0.0,0.0,0.0,0.0,0.0,0.0,0.0,0.0,0.0,0.0,0.0,0.0,0.0,0.0,-1.7326,-1.6907,0.0,0.0,0.0,0.0,0.0,0.0,0.0,0.0,0.0,0.0,0.0,0.0,0.0,0.0,0.0,0.0,0.0,0.0,0.0,0.0,0.0,0.0,0.0,0.0,0.0,0.0,0.0,0.0,0.0,0.0,0.0,0.0,0.0,0.0,0.0,0.0,0.0,0.0,0.0,0.0,-2.2096,-2.2667,-2.3032,-2.3106,-2.3106,-2.3106,-2.3106,-2.2754,-2.2257,-2.1628,-2.0618,0.0,0.0,0.0,0.0,0.0,0.0,0.0,0.0,0.0,0.0,0.0,0.0,0.0,0.0,0.0,0.0,0.0,0.0,0.0,0.0,0.0,0.0,0.0,0.0,0.0,0.0,0.0,0.0,0.0,0.0,0.0,0.0,0.0,0.0,0.0,0.0,0.0,0.0,0.0,0.0,0.0,0.0,0.0,0.0,0.0,0.0,0.0,0.0,0.0,0.0,0.0,0.0,0.0,0.0,0.0,0.0,0.0,0.0,0.0,-1.8829,-1.8291,0.0,0.0,0.0,0.0,0.0,0.0,0.0,0.0,0.0,0.0,0.0,0.0,0.0,0.0,0.0,0.0,0.0,0.0,0.0,0.0,0.0,0.0,0.0,0.0,0.0,0.0,0.0,0.0,0.0,0.0,0.0,0.0,0.0,0.0,0.0,0.0,0.0,0.0,0.0,0.0,-2.2125,-2.2725,-2.3106,-2.3106,-2.3106,-2.3106,-2.3106,-2.2813,-2.2418,-2.1964,-2.1013,0.0,0.0,0.0,0.0,0.0,0.0,0.0,0.0,0.0,0.0,0.0,0.0,0.0,0.0,0.0,0.0,0.0,0.0,0.0,0.0,0.0,0.0,0.0,0.0,0.0,0.0,0.0,0.0,0.0,0.0,0.0,0.0,0.0,0.0,0.0,0.0,0.0,0.0,0.0,0.0,0.0,0.0,0.0,0.0,0.0,0.0,0.0,0.0,0.0,0.0,0.0,0.0,0.0,-1.929,-1.9313,-1.9341,-1.9278,-2.0046,-2.107,-2.0026,-1.9556,-1.9367,-1.9328,0.0,0.0,0.0,0.0,0.0,0.0,0.0,0.0,0.0,0.0,0.0,0.0,0.0,0.0,0.0,0.0,0.0,0.0,0.0,0.0,0.0,0.0,-2.1613,-2.1876,-2.1774,-2.1642,-2.1701,0.0,0.0,0.0,0.0,0.0,0.0,0.0,0.0,0.0,0.0,0.0,-2.2213,-2.2754,-2.3106,-2.3106,-2.3106,-2.3106,-2.3106,-2.2857,-2.2579,-2.2286,-2.1452,-2.0808,0.0,0.0,0.0,0.0,0.0,0.0,0.0,0.0,0.0,0.0,0.0,0.0,0.0,0.0,0.0,0.0,0.0,0.0,0.0,0.0,0.0,0.0,0.0,0.0,0.0,0.0,0.0,0.0,0.0,0.0,0.0,0.0,-1.4056,-1.3622,0.0,0.0,0.0,0.0,0.0,0.0,0.0,0.0,0.0,0.0,0.0,0.0,0.0,-1.5481,-1.7595,-1.8605,-1.9168,-1.9387,-1.9421,-1.9442,-1.9354,-1.9402,-1.9969,-2.1067,-2.097,0.0,-1.9431,-1.9346,0.0,0.0,0.0,0.0,0.0,0.0,0.0,0.0,0.0,0.0,0.0,0.0,0.0,0.0,0.0,0.0,0.0,0.0,0.0,0.0,0.0,0.0,-2.2871,-2.2915,-2.3106,-2.3354,-2.3647,-2.2315,-2.1086,-2.113,-2.0852,-2.0589,0.0,0.0,0.0,0.0,0.0,0.0,-2.2491,-2.2886,-2.3106,-2.3106,-2.3106,-2.3106,-2.3106,-2.3062,-2.2901,-2.2593,-2.2198,-2.1715,-2.1101,-2.0413,0.0,0.0,0.0,0.0,0.0,0.0,0.0,0.0,0.0,0.0,0.0,0.0,0.0,0.0,0.0,0.0,0.0,0.0,0.0,0.0,0.0,0.0,0.0,0.0,0.0,0.0,0.0,0.0,0.0,-1.346,-1.3611,-1.3397,-1.3215,-1.2942,0.0,0.0,0.0,0.0,0.0,0.0,0.0,0.0,0.0,-1.3832,-1.5255,-1.6523,-1.7486,-1.8661,-1.9272,-1.9192,-1.8394,-1.8058,-1.807,-1.8057,-1.8729,-1.9976,-1.9175,-1.8444,-1.8058,-1.8289,-1.7781,-1.6715,0.0,0.0,0.0,0.0,-1.6831,-1.762,-1.9753,-2.0723,-2.1014,-2.0256,0.0,0.0,0.0,0.0,0.0,0.0,0.0,-2.1686,-2.233,-2.293,-2.3427,-2.3618,-2.3764,-2.391,-2.4057,-2.3413,-2.2769,-2.2579,-2.2008,-2.154,-2.154,-2.1276,0.0,0.0,0.0,-2.2315,-2.2593,-2.2901,-2.3106,-2.3106,-2.3106,-2.3106,-2.3106,-2.3106,-2.3047,-2.2901,-2.2608,-2.2301,-2.2023,-2.1393,-2.0837,0.0,0.0,0.0,0.0,0.0,0.0,0.0,0.0,0.0,0.0,0.0,0.0,0.0,0.0,0.0,0.0,0.0,0.0,0.0,0.0,0.0,0.0,0.0,0.0,0.0,0.0,0.0,0.0,-1.3091,-1.3281,-1.308,-1.2822,-1.2541,0.0,0.0,0.0,0.0,0.0,0.0,-1.2534,-1.3611,-1.3914,-1.3136,-1.6267,-1.7757,-1.7427,-1.8155,-1.8324,-1.8031,-1.6952,-1.6431,-1.6431,-1.6466,-1.7092,-1.7943,-1.6894,-1.6465,-1.6435,-1.6786,-1.6841,-1.6796,-1.5849,-1.5403,-1.5534,-1.6646,-1.7035,-1.723,-1.9006,-1.9945,-2.0362,-1.992,-2.005,-2.055,-2.0522,0.0,0.0,0.0,0.0,-2.2311,-2.3076,-2.3471,-2.3808,-2.413,-2.4276,-2.4335,-2.4335,-2.4335,-2.4218,-2.3793,-2.3076,-2.255,-2.255,-2.2271,0.0,-2.2169,-2.2579,-2.2901,-2.2988,-2.3208,-2.3325,-2.3237,-2.3237,-2.3193,-2.312,-2.3106,-2.3106,-2.3106,-2.2886,-2.271,-2.2623,-2.2184,-2.1745,-2.135,0.0,0.0,0.0,0.0,0.0,0.0,0.0,0.0,0.0,0.0,0.0,0.0,0.0,0.0,0.0,0.0,0.0,0.0,0.0,0.0,0.0,0.0,0.0,0.0,0.0,0.0,0.0,0.0,0.0,-1.2509,-1.223,0.0,0.0,0.0,0.0,-1.1801,-1.2221,-1.2524,-1.2714,-1.3703,-1.4154,-1.4115,-1.7257,-1.844,-1.7025,-1.7036,-1.6477,-1.5077,-1.5067,-1.4947,-1.4957,-1.4957,-1.5096,-1.5115,-1.5106,-1.4995,-1.5005,-1.4983,-1.5021,-1.4988,-1.4978,-1.4978,-1.5122,-1.6425,-1.6941,-1.7107,-1.8136,-1.853,-1.8661,-1.9437,-2.0034,-2.0657,-2.1018,-2.1152,0.0,0.0,-2.209,-2.2385,-2.3272,-2.3808,-2.4145,-2.4466,-2.4788,-2.5008,-2.5008,-2.5008,-2.4818,-2.4174,-2.3764,-2.353,-2.353,0.0,-2.3149,-2.3457,-2.353,-2.3662,-2.3969,-2.4027,-2.391,-2.3603,-2.3574,-2.3442,-2.3135,-2.3106,-2.3106,-2.3106,-2.3091,-2.2945,-2.2637,-2.2593,-2.2286,-2.1686,-2.1335,0.0,0.0,0.0,0.0,0.0,0.0,0.0,0.0,0.0,0.0,0.0,0.0,0.0,0.0,0.0,0.0,0.0,0.0,0.0,0.0,0.0,0.0,0.0,0.0,0.0,0.0,0.0,0.0,-1.2024,-1.1836,0.0,-1.1536,-1.1494,-1.1496,-1.1733,-1.1935,-1.2051,-1.2094,-1.2441,-1.3204,-1.4615,-1.5768,-1.6177,-1.5673,-1.5703,-1.5355,-1.4884,-1.4893,-1.4903,-1.4903,-1.4903,-1.4903,-1.4903,-1.4903,-1.4912,-1.4912,-1.4947,-1.4871,-1.4952,-1.4952,-1.4952,-1.4961,-1.5762,-1.607,-1.625,-1.6894,-1.744,-1.7999,-1.8951,-1.9613,-2.0039,-2.0664,-2.0913,-2.1354,-2.2412,-2.2749,-2.3019,-2.3927,-2.4305,-2.4481,-2.4803,-2.4964,-2.5052,-2.5052,-2.5052,-2.4993,-2.4759,-2.4437,-2.4218,-2.4218,-2.3954,-2.3779,-2.3896,-2.391,-2.3954,-2.4071,-2.4086,-2.4042,-2.3925,-2.372,-2.3545,-2.3427,-2.3223,-2.3106,-2.3106,-2.3106,-2.3062,-2.2945,-2.293,-2.274,-2.2301,-2.1789,-2.1306,0.0,0.0,0.0,0.0,0.0,0.0,0.0,0.0,0.0,0.0,0.0,0.0,0.0,0.0,0.0,0.0,0.0,0.0,0.0,0.0,0.0,0.0,0.0,0.0,0.0,-1.1467,-1.1898,-1.1828,-1.1879,-1.1736,-1.1623,-1.1591,-1.1679,-1.1969,-1.1916,-1.1862,-1.1837,-1.1993,-1.2734,-1.4171,-1.4707,-1.4903,-1.4874,-1.4903,-1.4912,-1.4912,-1.4931,-1.4931,-1.4931,-1.4931,-1.4931,-1.4941,-1.4866,-1.5035,-1.5327,-1.5394,-1.5281,-1.5139,-1.4988,-1.4931,-1.4931,-1.5473,-1.5603,-1.5603,-1.6114,-1.6753,-1.7271,-1.8395,-1.8947,-1.9475,-2.0477,-2.0889,-2.1443,-2.2664,-2.3107,-2.3364,-2.4291,-2.4569,-2.4657,-2.4979,-2.5052,-2.5052,-2.5052,-2.514,-2.5213,-2.5213,-2.5037,-2.4862,-2.4744,-2.4642,-2.454,-2.4423,-2.4408,-2.4408,-2.4408,-2.4408,-2.4364,-2.4262,-2.4057,-2.3837,-2.3618,-2.3398,-2.3223,-2.312,-2.3106,-2.3106,-2.3106,-2.3106,-2.3003,-2.2798,-2.2184,-2.1701,-2.1379,0.0,0.0,0.0,0.0,0.0,0.0,0.0,0.0,0.0,0.0,0.0,0.0,0.0,0.0,0.0,0.0,0.0,0.0,0.0,0.0,0.0,0.0,0.0,-1.0816,-1.1355,-1.1837,-1.1976,-1.2026,-1.2045,-1.1886,-1.1768,-1.1993,-1.2312,-1.2075,-1.1888,-1.188,-1.2449,-1.2808,-1.2775,-1.4137,-1.4828,-1.4959,-1.4941,-1.4931,-1.4931,-1.4931,-1.4931,-1.4941,-1.4941,-1.4941,-1.4959,-1.4883,-1.5386,-1.6111,-1.6185,-1.5992,-1.5672,-1.5111,-1.495,-1.495,-1.5492,-1.5623,-1.5482,-1.5864,-1.6254,-1.6686,-1.7566,-1.8301,-1.9137,-2.0447,-2.1066,-2.1582,-2.2649,-2.3042,-2.3243,-2.4363,-2.4583,-2.4657,-2.4979,-2.5052,-2.5066,-2.5066,-2.5315,-2.5535,-2.5535,-2.5549,-2.5461,-2.514,-2.533,-2.5432,-2.511,-2.5066,0.0,-2.5052,-2.5052,-2.4935,-2.4613,-2.4569,-2.432,-2.3676,-2.3603,-2.3457,-2.3149,-2.312,-2.3106,-2.3106,-2.312,-2.312,-2.312,-2.255,-2.2081,-2.1759,0.0,0.0,0.0,0.0,0.0,0.0,0.0,0.0,0.0,0.0,0.0,0.0,0.0,0.0,0.0,0.0,0.0,0.0,0.0,0.0,0.0,-1.0451,-1.0894,-1.097,-1.1177,-1.163,-1.2125,-1.2283,-1.2239,-1.2203,-1.2179,-1.2355,-1.2678,-1.2596,-1.2489,-1.2489,-1.2668,-1.2824,-1.2808,-1.321,-1.3884,-1.4828,-1.495,-1.4941,-1.4931,-1.4931,-1.4875,-1.4874,-1.4874,-1.4948,-1.4962,-1.5586,-1.5334,-1.4629,-1.5119,-1.5019,-1.4728,-1.5306,-1.5529,-1.5385,-1.5529,-1.5529,-1.5663,-1.5932,-1.6067,-1.6345,-1.6799,-1.7481,-1.8173,-1.9043,-2.0123,-2.1369,-2.2644,-2.3378,-2.398,-2.4698,-2.492,-2.4949,-2.5037,-2.5052,-2.5125,-2.5344,-2.5461,-2.5593,-2.5842,-2.6076,-2.6135,-2.5813,-2.5622,-2.5491,-2.5418,-2.5198,-2.5052,-2.5052,-2.5052,-2.5022,-2.4935,-2.4715,-2.4496,-2.432,-2.3866,-2.3559,-2.3471,-2.3237,-2.3106,-2.3106,-2.334,-2.3457,-2.3457,-2.353,-2.3398,0.0,0.0,0.0,0.0,0.0,0.0,0.0,0.0,0.0,0.0,0.0,0.0,0.0,0.0,0.0,0.0,0.0,0.0,0.0,0.0,0.0,0.0,-1.0627,-1.1096,-1.1302,-1.1472,-1.1633,-1.2004,-1.2347,-1.2564,-1.2531,-1.254,-1.2588,-1.2832,-1.284,-1.284,-1.284,-1.284,-1.2832,-1.2824,-1.2816,-1.3252,-1.3998,-1.4554,-1.4865,-1.4939,-1.4939,-1.4861,-1.4971,-1.5259,-1.5045,-1.4446,-1.4955,-1.4844,-1.4276,-1.4657,-1.4701,-1.4553,0.0,0.0,0.0,0.0,-1.5282,-1.5282,-1.5428,-1.5564,-1.571,-1.6196,-1.6909,-1.7884,-1.88,-1.9923,-2.1314,-2.2822,-2.3551,-2.4281,-2.4873,-2.5052,-2.5096,-2.5227,-2.5257,-2.5344,-2.5666,-2.5842,-2.5988,-2.6179,-2.6486,0.0,-2.6457,-2.6047,-2.5681,-2.5549,-2.5257,-2.5052,-2.5052,-2.5052,-2.5052,-2.5052,-2.4891,-2.4715,-2.4583,-2.4218,0.0,0.0,0.0,-2.3574,-2.372,-2.3767,0.0,0.0,0.0,0.0,0.0,0.0,0.0,0.0,-2.4087,-2.4598,0.0,0.0,0.0,0.0,0.0,0.0,0.0,0.0,0.0,0.0,0.0,0.0,0.0,0.0,0.0,0.0,-1.0725,-1.1075,-1.1766,-1.1918,-1.1918,-1.1918,-1.2465,-1.284,-1.284,-1.284,-1.284,-1.284,-1.284,-1.284,-1.284,-1.284,0.0,0.0,0.0,-1.2781,-1.2791,-1.4066,-1.4729,-1.4764,-1.4764,-1.4773,-1.48,-1.5522,-1.5238,-1.3967,-1.398,-1.4204,-1.4658,-1.4682,-1.4759,-1.4875,-1.4536,-1.4671,-1.4937,-1.4937,-1.4937,-1.4937,-1.4534,0.0,0.0,-1.57,-1.6589,-1.7739,-1.9055,-2.0225,-2.1484,-2.2859,-2.3679,-2.4102,-2.4781,-2.4946,-2.5047,-2.5324,-2.5411,-2.5528,-2.5862,-2.6154,-2.6372,-2.6401,-2.6648,-2.6983,-2.6838,-2.6471,-2.5974,-2.5542,-2.533,-2.511,-2.4975,-2.4946,-2.4931,-2.4975,-2.4975,0.0,-2.4611,-2.4567,-2.4422,-2.4131,-2.4087,-2.4203,-2.4538,-2.43,-2.4203,-2.4516,-2.4327,-2.4233,-2.4498,-2.4846,-2.5166,-2.5458,-2.5798,-2.6197,0.0,0.0,0.0,0.0,0.0,0.0,0.0,0.0,0.0,0.0,0.0,0.0,0.0,0.0,0.0,-1.0645,-1.1165,-1.1774,-1.2489,-1.2644,-1.2644,-1.2644,-1.2684,-1.284,-1.284,-1.284,-1.284,-1.284,-1.284,-1.284,-1.284,-1.284,-1.284,-1.284,-1.2829,-1.2775,-1.2791,-1.3645,-1.4019,-1.4045,-1.4045,0.0,-1.4111,-1.4258,-1.4195,-1.3907,-1.4381,-1.4407,-1.4123,-1.4457,-1.4332,-1.4181,-1.4682,-1.4938,-1.4938,-1.4938,-1.4938,-1.4938,-1.4938,-1.5211,-1.5493,-1.5671,-1.6394,-1.7529,-1.8401,-1.9808,0.0,-2.231,-2.327,-2.4102,-2.4238,-2.4408,-2.462,-2.4538,-2.4735,-2.5003,-2.5327,-2.5439,-2.5552,-2.5951,-2.6196,-2.6399,-2.6093,-2.6229,-2.6241,-2.5883,-2.5394,-2.4882,-2.4606,-2.438,-2.4323,-2.4578,-2.4606,-2.4538,-2.4721,-2.4524,-2.4369,-2.4313,-2.4074,-2.4074,-2.4384,-2.4637,-2.4778,-2.5086,-2.559,-2.5723,-2.5778,-2.6335,-2.6753,-2.7172,-2.6537,-2.62,0.0,0.0,0.0,0.0,0.0,0.0,0.0,0.0,0.0,0.0,0.0,-0.9579,-0.9852,0.0,-1.0986,-1.1583,-1.2048,-1.2457,-1.2692,-1.284,-1.284,-1.284,-1.284,-1.284,-1.284,-1.284,-1.3013,-1.3378,-1.3386,-1.3286,-1.31,-1.31,-1.31,-1.31,-1.3046,-1.3134,-1.336,-1.3742,-1.3833,-1.3908,-1.3908,-1.3949,-1.3891,-1.3891,-1.394,-1.388,-1.4181,-1.4181,-1.3888,-1.4189,-1.4047,-1.3904,-1.4332,-1.4617,-1.4768,-1.4768,-1.4768,-1.4768,-1.4768,-1.5044,-1.5328,-1.5753,-1.6603,-1.7721,-1.8692,-1.9947,-2.1346,-2.231,-2.3241,-2.4052,-2.419,-2.4414,-2.468,-2.4834,-2.4988,-2.5184,-2.5492,-2.5562,-2.5604,-2.5772,-2.5946,-2.6093,-2.58,-2.5965,-2.5954,-2.5654,-2.5229,-2.4778,-2.4638,-2.4512,-2.447,-2.4624,-2.4638,-2.4694,-2.4848,-2.4736,-2.4722,-2.489,-2.4764,-2.4876,-2.5338,-2.5216,-2.529,-2.5755,-2.5896,-2.6211,-2.6348,-2.6799,-2.7168,-2.7456,-2.7004,-2.6955,0.0,0.0,0.0,0.0,0.0,0.0,0.0,-0.8639,-0.8953,-0.8883,-0.9394,-0.9801,-0.9985,-1.0614,-1.1487,-1.2588,-1.2743,-1.284,-1.284,-1.284,-1.284,-1.284,-1.284,-1.284,-1.284,-1.2865,-1.322,-1.3789,-1.3831,-1.3781,-1.3505,-1.3513,-1.3513,-1.3513,-1.3546,-1.3636,-1.3932,-1.3833,-1.3915,-1.3904,-1.3904,-1.3904,-1.3904,-1.3904,-1.3904,-1.3904,-1.3904,-1.3904,-1.3904,-1.3904,-1.3904,-1.3904,-1.3904,-1.4047,-1.4332,-1.4474,-1.4474,-1.4474,-1.4617,-1.4901,-1.5337,-1.6178,-1.7157,-1.8282,-1.9251,-2.0376,-2.1496,-2.2651,-2.3265,-2.3872,-2.4219,-2.4454,-2.4731,-2.498,-2.5091,-2.5202,-2.5451,-2.5506,-2.5506,-2.5506,-2.5653,-2.5653,-2.5653,-2.5653,-2.5569,-2.5319,-2.5013,-2.4818,-2.4676,-2.462,-2.4607,-2.4676,-2.4676,-2.4703,-2.4759,-2.4814,-2.4966,-2.5229,-2.5299,-2.5561,-2.6046,-2.5814,-2.584,-2.6139,-2.6128,-2.6266,-2.656,-2.6854,-2.7121,-2.7348,-2.7402,-2.7689,-0.816,-0.8384,-0.8587,-0.8608,-0.8723,-0.8736,0.0,-0.8732,-0.8852,-0.8883,-0.9004,-0.9529,-1.1239,-1.2122,-1.2613,-1.2775,-1.2824,-1.284,-1.284,-1.284,-1.284,-1.284,-1.284,-1.284,-1.284,-1.312,-1.3352,-1.3511,-1.3679,-1.3916,-1.3804,-1.3804,-1.3804,-1.3804,-1.3825,-1.3916,-1.3941,-1.394,-1.388,-1.3904,-1.3904,-1.3904,-1.3904,-1.3904,-1.3904,-1.3904,-1.3904,-1.3904,-1.3904,-1.3904,-1.3904,-1.3904,-1.3904,-1.3904,-1.4047,-1.4332,-1.4474,-1.4617,-1.5186,-1.5753,-1.6178,-1.6866,-1.7991,-1.8982,-1.9808,-2.0792,-2.1823,-2.2623,-2.3147,-2.338,-2.3789,-2.4071,-2.43,-2.434,-2.4542,-2.4743,-2.477,-2.4784,-2.4784,-2.4784,-2.5079,-2.5079,-2.4784,-2.5079,-2.5226,-2.5185,-2.4911,-2.4706,-2.43,-2.4071,-2.4004,-2.426,-2.43,-2.4394,-2.4663,-2.4932,-2.5093,-2.5133,-2.5375,-2.555,-2.5617,-2.5872,-2.6155,-2.6279,-2.6573,-2.6867,-2.7161,-2.7455,-2.7615,-2.7655,-2.7923,-2.7929,-0.835,-0.8615,-0.8866,-0.8947,-0.903,-0.9136,-0.9301,-0.9187,-0.9207,-0.9424,-0.9425,-0.9825,-1.096,-1.2073,-1.2767,-1.284,-1.284,-1.284,-1.284,-1.284,-1.284,-1.284,-1.284,-1.284,-1.284,-1.3136,-1.3419,-1.3526,-1.3717,-1.3866,-1.3966,-1.3966,-1.3966,-1.3966,-1.3899,-1.394,-1.394,-1.3863,-1.3904,-1.3904,-1.3904,-1.3904,-1.3904,-1.3904,-1.3904,-1.3904,-1.3904,-1.3904,-1.3904,-1.3904,-1.3904,-1.3904,-1.3904,-1.4047,-1.4332,-1.4474,-1.4617,-1.4893,-1.5886,-1.6593,-1.7298,-1.8272,-1.9251,-2.0086,-2.0792,-2.1735,-2.2445,-2.2994,-2.3426,-2.3861,-2.3995,-2.4235,-2.4449,-2.4449,-2.4556,-2.4636,-2.4636,-2.4636,-2.4636,-2.4636,-2.4784,-2.4784,-2.4636,-2.4784,-2.4784,-2.4784,-2.4823,-2.4596,-2.4449,-2.4342,-2.4329,-2.4436,-2.4449,-2.4569,-2.4863,-2.501,-2.5224,-2.5571,-2.5705,-2.5852,-2.6012,-2.6146,-2.6346,-2.664,-2.6934,-2.7228,-2.7522,-2.7816,-2.7963,-2.7963,-2.8083,-2.8016,-0.8608,-0.8893,-0.9157,-0.93,-0.9327,-0.9477,-0.9804,-0.9626,-0.9583,-0.9916,-1.0117,-1.0169,-1.0683,-1.1505,-1.2312,-1.2724,-1.2848,-1.284,-1.284,-1.284,-1.284,-1.284,-1.284,-1.284,-1.284,-1.3177,-1.3366,-1.3497,-1.3727,-1.3915,-1.3896,-1.3904,-1.3904,-1.3904,-1.3904,-1.3904,-1.3904,-1.3904,-1.3904,-1.3904,-1.3904,-1.3904,-1.3904,-1.3904,-1.3904,-1.4047,-1.4047,-1.4189,-1.4189,-1.4189,-1.4189,-1.4198,-1.4239,-1.455,-1.4988,-1.5184,-1.5444,-1.5818,-1.6954,-1.7803,-1.8509,-1.9772,-2.0471,-2.1167,-2.1874,-2.2497,-2.3166,-2.3399,-2.3875,-2.4222,-2.4302,-2.4476,-2.4636,-2.4636,-2.4703,-2.4756,-2.4756,-2.4823,-2.4877,-2.4877,-2.4877,-2.4877,-2.4877,-2.4877,-2.4877,-2.4877,-2.4877,-2.4823,-2.4663,-2.4636,-2.4636,-2.4636,-2.4716,-2.485,-2.5064,-2.5224,-2.5504,-2.5932,-2.6039,-2.6172,-2.6386,-2.6466,-2.664,-2.6934,-2.7228,-2.7535,-2.7816,-2.8043,-2.8136,-2.8136,-2.8136,-2.8136,-0.9015,-0.9354,-0.9625,-0.9513,-0.9777,-1.0002,-0.9875,-0.9851,-0.9948,-1.0493,-1.0609,-1.0711,-1.0704,-1.069,-1.1226,-1.2584,-1.2848,-1.284,-1.284,-1.284,-1.284,-1.284,-1.284,-1.284,-1.284,-1.3157,-1.3368,-1.3368,-1.3693,-1.3896,-1.3904,-1.3904,-1.3904,-1.3904,-1.3904,-1.3904,-1.3904,-1.3904,-1.3904,-1.3904,-1.3904,-1.3904,-1.3904,-1.3904,-1.4047,-1.4474,-1.4474,-1.4625,-1.491,-1.491,-1.491,-1.4927,-1.5254,-1.5605,-1.6057,-1.699,-1.7223,-1.7325,-1.8756,-1.9611,-2.0037,-2.1181,-2.1885,-2.2167,-2.2587,-2.3219,-2.3821,-2.4102,-2.4195,-2.4262,-2.4556,-2.4623,-2.4636,-2.4636,-2.4863,-2.5064,-2.5064,-2.5291,-2.5491,-2.5491,-2.5491,-2.5491,-2.5491,-2.5491,-2.5491,-2.5491,-2.5491,-2.5277,-2.4716,-2.4636,-2.4636,-2.4636,-2.489,-2.5064,-2.5077,-2.5598,-2.5932,-2.5959,-2.6226,-2.6373,-2.6386,-2.6653,-2.6947,-2.7241,-2.7535,-2.7829,-2.8123,-2.8136,-2.8136,-2.8136,-2.8136,-2.8136,-0.9028,-0.9258,-0.942,-0.9658,-0.981,-1.0045,-1.028,-1.034,-1.0478,-1.0644,-1.0664,-1.0671,-1.0704,-1.0753,-1.1214,-1.2556,-1.2783,-1.2848,-1.284,-1.284,-1.284,-1.284,-1.284,-1.284,-1.284,-1.3051,-1.3238,-1.336,-1.3595,-1.3782,-1.3896,-1.3904,-1.3904,-1.3904,-1.3904,-1.3904,-1.3904,-1.3904,-1.3904,-1.3904,-1.4026,-1.4083,-1.4091,-1.4496,-1.47,-1.4846,-1.513,-1.5351,-1.5237,-1.5237,-1.5301,-1.5488,-1.5974,-1.6625,-1.7231,-1.8456,-1.9322,-1.9949,-2.0226,-2.1019,-2.1734,-2.2472,-2.2898,-2.3324,-2.3466,-2.3678,-2.4075,-2.4168,-2.4342,-2.4516,-2.4609,-2.4636,-2.4636,-2.4636,-2.4863,-2.5077,-2.5077,-2.5304,-2.5518,-2.5518,-2.5518,-2.5518,-2.5518,-2.5518,-2.5518,-2.5518,-2.5518,-2.5371,-2.4983,-2.493,-2.493,-2.493,-2.5024,-2.5237,-2.5625,-2.5838,-2.6039,-2.6226,-2.6333,-2.6386,-2.6386,-2.6667,-2.6961,-2.7255,-2.7549,-2.7843,-2.8136,-2.8136,-2.8136,-2.8136,-2.8136,-2.8136,-0.911,-0.9255,-0.9451,-0.9686,-0.996,-1.0195,-1.0565,-1.0677,-1.0747,-1.0651,-1.0541,-1.0324,-1.0417,-1.0431,-1.0742,-1.1918,-1.2425,-1.2775,-1.2561,-1.27,-1.284,-1.284,-1.284,-1.2856,-1.2921,-1.3027,-1.3173,-1.336,-1.3539,-1.3717,-1.3896,-1.3904,-1.3904,-1.3904,-1.3904,-1.3904,-1.3904,-1.3904,-1.3904,-1.3904,-1.417,-1.4405,-1.4471,-1.5027,-1.5415,-1.5771,-1.5919,-1.6131,-1.6313,-1.6449,-1.6654,-1.6979,-1.7629,-1.8301,-1.9058,-2.0309,-2.1249,-2.1945,-2.1825,-2.2174,-2.304,-2.3484,-2.3785,-2.3928,-2.3928,-2.4128,-2.4356,-2.4356,-2.4489,-2.4636,-2.4636,-2.4636,-2.4663,-2.477,-2.5024,-2.5264,-2.5371,-2.5625,-2.5825,-2.5825,-2.5825,-2.5825,-2.5825,-2.5825,-2.5825,-2.5825,-2.5825,-2.5678,-2.5291,-2.5237,-2.5237,-2.5237,-2.5331,-2.5545,-2.5919,-2.6052,-2.6186,-2.6373,-2.6386,-2.644,-2.6547,-2.6827,-2.7121,-2.7415,-2.7709,-2.7949,-2.8136,-2.8136,-2.8136,-2.8136,-2.8136,-2.8136,-0.9151,-0.9466,-0.9705,-0.9849,-1.0227,-1.0711,-1.0711,-1.0719,-1.0732,-1.0725,-1.0229,-0.9817,-0.9697,-0.9738,-0.9988,-1.0548,-1.1789,-1.2645,-1.215,-1.2568,-1.284,-1.284,-1.2848,-1.2913,-1.3076,-1.31,-1.3189,-1.3368,-1.3547,-1.3717,-1.3888,-1.3904,-1.3904,-1.3904,-1.3904,-1.3904,-1.3904,-1.3904,-1.3904,-1.3904,-1.434,-1.4584,-1.4907,-1.5351,-1.6049,-1.684,-1.6987,-1.7419,-1.8142,-1.8571,-1.8852,-1.93,-1.997,-2.0649,-2.1432,-2.2126,-2.2831,-2.34,-2.328,-2.3336,-2.364,-2.4077,-2.4222,-2.4222,-2.4222,-2.4422,-2.4636,-2.4636,-2.4636,-2.4636,-2.4636,-2.4649,-2.473,-2.501,-2.5317,-2.5611,-2.5892,-2.6186,-2.6386,-2.6386,-2.6386,-2.6386,-2.6386,-2.6386,-2.6386,-2.6386,-2.6386,-2.6186,-2.5611,-2.5531,-2.5531,-2.5531,-2.5785,-2.5959,-2.5972,-2.6226,-2.6386,-2.6386,-2.6386,-2.652,-2.6814,-2.7108,-2.7402,-2.7696,-2.7989,-2.8136,-2.8136,-2.8136,-2.8136,-2.8136,-2.8136,-2.8136,-0.9312,-0.9297,-0.9193,-0.9716,-1.0283,-1.0685,-1.0685,-1.0742,-1.0517,-1.0143,-0.9849,-0.9613,-0.915,-0.9457,-0.9971,-1.0397,-1.132,-1.2118,-1.2281,-1.2568,-1.284,-1.284,-1.2954,-1.3043,-1.3092,-1.3222,-1.3376,-1.3563,-1.362,-1.3858,-1.4324,-1.4332,-1.4474,-1.4759,-1.4474,-1.4332,-1.4332,-1.4047,-1.3904,-1.3904,-1.4466,-1.4916,-1.5544,-1.6573,-1.7495,-1.816,-1.8761,-1.9106,-1.9096,-1.9528,-1.987,-2.0161,-2.1143,-2.169,-2.2313,-2.3189,-2.3735,-2.3883,-2.4101,-2.4222,-2.4382,-2.4529,-2.4529,-2.4529,-2.4529,-2.4583,-2.4636,-2.4636,-2.4636,-2.4636,-2.4636,-2.4796,-2.4983,-2.5064,-2.5464,-2.5865,-2.5945,-2.6186,-2.6386,-2.6386,-2.6386,-2.6386,-2.6386,-2.6386,-2.6386,-2.6386,-2.6386,-2.6253,-2.5892,-2.5838,-2.5838,-2.5838,-2.5919,-2.6039,-2.6266,-2.6346,-2.6386,-2.6386,-2.6386,-2.652,-2.6814,-2.7108,-2.7402,-2.7696,-2.7989,-2.8136,-2.8136,-2.8136,-2.8136,-2.8136,-2.8136,-2.8136,-0.9157,-0.9323,-0.943,-1.0029,-1.0424,-1.0642,-1.0317,-1.0329,-1.0186,-0.9533,-0.9462,-0.9334,-0.8916,-0.9406,-0.9875,-1.0239,-1.1195,-1.1903,-1.201,-1.2444,-1.2865,-1.2938,-1.3035,-1.3157,-1.3319,-1.3425,-1.3563,-1.4024,-1.3966,-1.3999,-1.4466,-1.4617,-1.4768,-1.5052,-1.4625,-1.4474,-1.4189,-1.4047,-1.4047,-1.4189,-1.494,-1.5713,-1.6499,-1.7743,-1.871,-1.938,-1.9984,-2.0358,-2.0534,-2.1117,-2.1479,-2.1812,-2.2546,-2.305,-2.3516,-2.4127,-2.4193,-2.4341,-2.4488,-2.4636,-2.4636,-2.4636,-2.4636,-2.4636,-2.4636,-2.4636,-2.4636,-2.4636,-2.4636,-2.4636,-2.4636,-2.4863,-2.5117,-2.5237,-2.5625,-2.5999,-2.6119,-2.6279,-2.6386,-2.6386,-2.6386,-2.6386,-2.6386,-2.6386,-2.6386,-2.6386,-2.6386,-2.6333,-2.6159,-2.6146,-2.6146,-2.6146,-2.6146,-2.6213,-2.6373,-2.6386,-2.6386,-2.6386,-2.6507,-2.6707,-2.7001,-2.7295,-2.7602,-2.7883,-2.8056,-2.8136,-2.8136,-2.8136,-2.8136,-2.8136,-2.8136,-2.8136,-0.8985,-0.9464,-0.9921,-1.044,-1.0524,-1.044,-0.9901,-0.9747,-0.9476,-0.8852,-0.8726,-0.8816,-0.8864,-0.9353,-0.9835,-1.0197,-1.104,-1.1772,-1.1833,-1.2429,-1.2897,-1.3076,-1.3116,-1.3262,-1.3612,-1.3669,-1.3883,-1.4466,-1.4322,-1.4437,-1.4608,-1.491,-1.5044,-1.5044,-1.4759,-1.4474,-1.4047,-1.4047,-1.4189,-1.4483,-1.5659,-1.6585,-1.7536,-1.8632,-1.9756,-2.0586,-2.1187,-2.1487,-2.1948,-2.2694,-2.3141,-2.3587,-2.3896,-2.4341,-2.4636,-2.4636,-2.4636,-2.4636,-2.4636,-2.4636,-2.4636,-2.4636,-2.4636,-2.4636,-2.4636,-2.4636,-2.4636,-2.4636,-2.4636,-2.4636,-2.4636,-2.489,-2.5197,-2.5451,-2.5772,-2.6079,-2.6333,-2.6386,-2.6386,-2.6386,-2.6386,-2.6386,-2.6386,-2.6386,-2.6386,-2.6386,-2.6386,-2.6386,-2.6386,-2.6386,-2.6386,-2.6386,-2.6386,-2.6386,-2.6386,-2.6426,-2.6453,-2.6453,-2.672,-2.7014,-2.7308,-2.7562,-2.7843,-2.8136,-2.8136,-2.8136,-2.8136,-2.8136,-2.8136,-2.8136,-2.8136,-2.8136,-0.9499,-0.9665,-0.9797,-0.9921,-0.9971,-0.9985,-0.984,-0.9361,-0.8897,-0.8291,-0.8132,-0.8314,-0.8809,-0.8994,-0.9205,-0.9768,-1.0609,-1.1328,-1.166,-1.235,-1.2897,-1.3076,-1.323,-1.3409,-1.362,-1.3774,-1.4014,-1.4474,-1.4733,-1.5008,-1.5319,-1.5461,-1.5461,-1.5461,-1.547,-1.5044,-1.4332,-1.4617,-1.4768,-1.4483,-1.609,-1.7309,-1.7966,-1.9959,-2.1254,-2.1948,-2.2694,-2.2992,-2.3141,-2.3587,-2.3896,-2.3896,-2.4341,-2.4488,-2.4636,-2.4636,-2.4636,-2.4636,-2.4636,-2.4636,-2.4636,-2.4636,-2.4636,-2.4636,-2.4636,-2.4636,-2.4636,-2.4636,-2.4636,-2.4636,-2.4636,-2.5037,-2.5451,-2.5504,-2.5919,-2.6333,-2.6373,-2.6386,-2.6386,-2.6386,-2.6386,-2.6386,-2.6386,-2.6386,-2.6386,-2.6386,-2.6386,-2.6386,-2.6386,-2.6386,-2.6386,-2.6386,-2.6386,-2.6386,-2.6386,-2.6613,-2.6747,-2.6747,-2.7028,-2.7321,-2.7615,-2.7669,-2.7843,-2.8136,-2.8136,-2.8136,-2.8136,-2.8136,-2.8136,-2.8136,-2.8136,-2.8136,-0.968,-0.9754,-0.9801,-0.9801,-0.9822,-0.9772,-0.9422,-0.8858,-0.831,-0.8091,-0.7994,-0.8223,-0.8769,-0.8941,-0.9222,-0.9989,-1.0638,-1.1283,-1.1743,-1.2537,-1.3035,-1.3214,-1.3401,-1.3587,-1.3758,-1.3998,-1.4332,-1.4759,-1.5044,-1.547,-1.5603,-1.5753,-1.5753,-1.5603,-1.5603,-1.5328,-1.4768,-1.491,-1.5239,-1.5901,-1.725,-1.8487,-1.9757,-2.1343,-2.2423,-2.2843,-2.3438,-2.3748,-2.3748,-2.4193,-2.4341,-2.4341,-2.4488,-2.4636,-2.4636,-2.4636,-2.4636,-2.4636,-2.4636,-2.4636,-2.4636,-2.4636,-2.4636,-2.4636,-2.4636,-2.4636,-2.4636,-2.4636,-2.4636,-2.4676,-2.4823,-2.5184,-2.5558,-2.5705,-2.6079,-2.6386,-2.6386,-2.6386,-2.6386,-2.6386,-2.6386,-2.6386,-2.6386,-2.6386,-2.6386,-2.6386,-2.6386,-2.6386,-2.6386,-2.6386,-2.6386,-2.6386,-2.6386,-2.6453,-2.66,-2.6747,-2.6894,-2.7041,-2.7335,-2.7549,-2.7696,-2.7843,-2.8003,-2.8136,-2.8136,-2.8136,-2.8136,-2.8136,-2.8136,-2.8136,-2.8136,-2.8136,-0.9815,-0.9822,-0.9822,-0.9822,-0.9813,-0.96,-0.9057,-0.8426,-0.803,-0.7968,-0.8214,-0.8473,-0.8834,-0.8983,-0.9314,-1.0222,-1.0823,-1.1301,-1.1757,-1.2489,-1.3076,-1.3336,-1.3498,-1.3669,-1.388,-1.4189,-1.4617,-1.5044,-1.5612,-1.5886,-1.5753,-1.6037,-1.6178,-1.5753,-1.5744,-1.5612,-1.5186,-1.5328,-1.5969,-1.7122,-1.8393,-1.9803,-2.1337,-2.2547,-2.329,-2.3587,-2.3896,-2.4193,-2.4193,-2.4488,-2.4636,-2.4636,-2.4636,-2.4636,-2.4636,-2.4636,-2.4636,-2.4636,-2.4636,-2.4636,-2.4636,-2.4636,-2.4636,-2.4636,-2.4636,-2.4636,-2.4636,-2.4636,-2.4636,-2.4703,-2.4997,-2.5291,-2.5598,-2.5959,-2.6226,-2.6386,-2.6386,-2.6386,-2.6386,-2.6386,-2.6386,-2.6386,-2.6386,-2.6386,-2.6386,-2.6386,-2.6386,-2.6386,-2.6386,-2.6386,-2.6386,-2.6386,-2.6386,-2.6507,-2.68,-2.6881,-2.7041,-2.7348,-2.7629,-2.7789,-2.7789,-2.8016,-2.8136,-2.8136,-2.8136,-2.8136,-2.8136,-2.8136,-2.8136,-2.8136,-2.8136,-2.8136,-0.9788,-0.9822,-0.9822,-0.9822,-0.9856,-0.968,-0.9028,-0.8393,-0.7988,-0.8019,-0.8777,-0.9338,-0.8874,-0.9265,-0.9709,-0.9831,-1.0517,-1.1191,-1.1534,-1.2131,-1.28,-1.3311,-1.3384,-1.353,-1.3872,-1.4189,-1.4759,-1.5461,-1.6603,-1.6885,-1.6178,-1.6452,-1.6452,-1.6178,-1.6452,-1.631,-1.5603,-1.6169,-1.6734,-1.7319,-1.9327,-2.0729,-2.1498,-2.3197,-2.3896,-2.4044,-2.4341,-2.4488,-2.4488,-2.4636,-2.4636,-2.4636,-2.4636,-2.4636,-2.4636,-2.4636,-2.4636,-2.4636,-2.4636,-2.4636,-2.4636,-2.4636,-2.4636,-2.4636,-2.4636,-2.4636,-2.4636,-2.4636,-2.4636,-2.4703,-2.4997,-2.5291,-2.5651,-2.6213,-2.6373,-2.6386,-2.6386,-2.6386,-2.6386,-2.6386,-2.6386,-2.6386,-2.6386,-2.6386,-2.6386,-2.6386,-2.6386,-2.6386,-2.6386,-2.6386,-2.6386,-2.6386,-2.6386,-2.6507,-2.68,-2.7068,-2.7348,-2.7642,-2.7936,-2.8096,-2.8096,-2.8123,-2.8136,-2.8136,-2.8136,-2.8136,-2.8136,-2.8136,-2.8136,-2.8136,-2.8136,-2.8136,-0.9799,-0.9754,-0.9802,-0.984,-0.978,-0.9638,-0.9003,-0.8415,-0.8183,-0.8814,-0.9046,-0.9091,-0.9158,-0.9331,-0.9655,-1.0093,-1.0693,-1.1264,-1.1733,-1.2306,-1.2889,-1.3319,-1.3465,-1.3776,-1.4164,-1.4617,-1.5328,-1.6603,-1.7308,-1.758,-1.758,-1.7298,-1.6875,-1.6452,-1.6593,-1.6593,-1.631,-1.7004,-1.799,-1.9118,-2.063,-2.191,-2.2974,-2.394,-2.4341,-2.4341,-2.4488,-2.4636,-2.4636,-2.4636,-2.4636,-2.4636,-2.4636,-2.4636,-2.4636,-2.4636,-2.4636,-2.4636,-2.4636,-2.4636,-2.4636,-2.4636,-2.4636,-2.4636,-2.4636,-2.4636,-2.4636,-2.4636,-2.4636,-2.4743,-2.5224,-2.5692,-2.6106,-2.6333,-2.6386,-2.6386,-2.6386,-2.6386,-2.6386,-2.6386,-2.6386,-2.6386,-2.6386,-2.6386,-2.6386,-2.6386,-2.6386,-2.6386,-2.6386,-2.6386,-2.6453,-2.6627,-2.6653,-2.6774,-2.7068,-2.7362,-2.7655,-2.7949,-2.8083,-2.8136,-2.8136,-2.8136,-2.8136,-2.8136,-2.8136,-2.8136,-2.8136,-2.8136,-2.8136,-2.8136,-2.8136,-2.8136,-0.9759,-0.9856,-0.9792,-0.9815,-0.9669,-0.9439,-0.9022,-0.8474,-0.828,-0.943,-0.9343,-0.9168,-0.94,-0.9499,-0.9738,-1.0241,-1.0729,-1.1328,-1.1971,-1.241,-1.2856,-1.3319,-1.3482,-1.3792,-1.4457,-1.5186,-1.6178,-1.7449,-1.8142,-1.8563,-1.8552,-1.8142,-1.758,-1.6875,-1.7017,-1.7046,-1.6964,-1.7837,-1.904,-2.0717,-2.1716,-2.2827,-2.4061,-2.4449,-2.4636,-2.4636,-2.4636,-2.4636,-2.4636,-2.4636,-2.4636,-2.4636,-2.4636,-2.4636,-2.4636,-2.4636,-2.4636,-2.4636,-2.4636,-2.4636,-2.4636,-2.4636,-2.4636,-2.4636,-2.4636,-2.4636,-2.4636,-2.4636,-2.4756,-2.501,-2.5518,-2.6012,-2.6386,-2.6386,-2.6386,-2.6386,-2.6386,-2.6386,-2.6386,-2.6386,-2.6386,-2.6386,-2.6386,-2.6386,-2.6386,-2.6386,-2.6386,-2.6386,-2.6386,-2.6386,-2.6507,-2.6787,-2.6894,-2.7068,-2.7375,-2.7575,-2.7829,-2.8123,-2.8136,-2.8136,-2.8136,-2.8136,-2.8136,-2.8136,-2.8136,-2.8136,-2.8136,-2.8136,-2.8136,-2.8136,-2.8136,-2.8136,-0.9659,-0.9743,-0.9743,-0.9743,-0.9373,-0.8943,-0.8872,-0.8468,-0.8273,-0.9414,-0.9549,-0.9549,-0.9549,-0.9933,-1.0225,-1.0404,-1.0883,-1.1411,-1.1955,-1.219,-1.2572,-1.3287,-1.3376,-1.3653,-1.4441,-1.616,-1.7429,-1.7861,-1.9273,-1.9692,-1.8993,-1.9262,-1.8843,-1.7308,-1.7721,-1.7834,-1.7632,-1.8778,-2.0043,-2.145,-2.2589,-2.3456,-2.4222,-2.4502,-2.4636,-2.4636,-2.4636,-2.4636,-2.4636,-2.4636,-2.4636,-2.4636,-2.4636,-2.4636,-2.4636,-2.4636,-2.4636,-2.4636,-2.4636,-2.4636,-2.4636,-2.4636,-2.4636,-2.4636,-2.4636,-2.4636,-2.4636,-2.4636,-2.505,-2.5571,-2.5879,-2.6172,-2.6386,-2.6386,-2.6386,-2.6386,-2.6386,-2.6386,-2.6386,-2.6386,-2.6386,-2.6386,-2.6386,-2.6386,-2.6386,-2.6386,-2.6386,-2.6386,-2.6386,-2.6386,-2.6507,-2.6787,-2.7081,-2.7375,-2.7669,-2.7696,-2.7829,-2.8123,-2.8136,-2.8136,-2.8136,-2.8136,-2.8136,-2.8136,-2.8136,-2.8136,-2.8136,-2.8136,-2.8136,-2.8136,-2.8136,-2.8136,-0.9167,-0.9218,-0.9225,-0.9239,-0.9089,-0.9127,-0.9929,-0.96,-0.9188,-0.949,-0.964,-0.9673,-0.9786,-0.9998,-1.0257,-1.0558,-1.1062,-1.1557,-1.1971,-1.2402,-1.284,-1.3319,-1.4005,-1.463,-1.5168,-1.6452,-1.7439,-1.7861,-1.8982,-1.9692,-1.9401,-1.9541,-1.8982,-1.7721,-1.8159,-1.856,-1.8921,-2.0116,-2.134,-2.2589,-2.3318,-2.4048,-2.4502,-2.4596,-2.4636,-2.4636,-2.4636,-2.4636,-2.4636,-2.4636,-2.4636,-2.4636,-2.4636,-2.4636,-2.4636,-2.4636,-2.4636,-2.4636,-2.4636,-2.4636,-2.4636,-2.4636,-2.4636,-2.4636,-2.4636,-2.4636,-2.4676,-2.489,-2.5211,-2.5585,-2.5879,-2.6172,-2.6386,-2.6386,-2.6386,-2.6386,-2.6386,-2.6386,-2.6386,-2.6386,-2.6386,-2.6386,-2.6386,-2.6386,-2.6386,-2.6386,-2.6386,-2.6386,-2.6386,-2.656,-2.68,-2.7094,-2.7388,-2.7602,-2.7696,-2.7883,-2.8043,-2.8136,-2.8136,-2.8136,-2.8136,-2.8136,-2.8136,-2.8136,-2.8136,-2.8136,-2.8136,-2.8136,-2.8136,-2.8136,-2.8136,-2.8136,-0.8953,-0.8886,-0.9001,-0.9471,-0.9595,-0.967,-1.016,-0.9887,-0.9633,-0.9573,-0.9689,-0.9762,-0.9868,-1.0144,-1.0461,-1.0753,-1.1248,-1.1727,-1.2085,-1.254,-1.2994,-1.3692,-1.4429,-1.5186,-1.5603,-1.6734,-1.759,-1.7861,-1.9122,-1.9692,-1.9401,-1.968,-1.9401,-1.8563,-1.8932,-1.9536,-1.9912,-2.1329,-2.2484,-2.3478,-2.3953,-2.4341,-2.4636,-2.4636,-2.4636,-2.4636,-2.4636,-2.4636,0.0,-2.4636,-2.4636,-2.4636,-2.4636,-2.4636,-2.4636,-2.4636,-2.4636,-2.4636,-2.4636,-2.4636,-2.4636,-2.4636,-2.4636,-2.4636,-2.4636,-2.4716,-2.4863,-2.5157,-2.5451,-2.5745,-2.6039,-2.6253,-2.6386,-2.6386,-2.6386,-2.6386,-2.6386,-2.6386,-2.6386,-2.6386,-2.6386,-2.6386,-2.6386,-2.6386,-2.6386,-2.6386,-2.6386,-2.6386,-2.6386,-2.664,-2.6934,-2.7228,-2.7522,-2.7749,-2.7856,-2.803,-2.8136,-2.8136,-2.8136,-2.8136,-2.8136,-2.8136,-2.8136,-2.8136,-2.8136,-2.8136,-2.8136,-2.8136,-2.8136,-2.8136,-2.8136,-2.8136,0.0,-0.8981,-0.9234,-1.033,-1.0644,-1.0481,-0.9753,-0.9587,0.0,-0.9565,-0.977,-0.9994,-0.99,-1.0339,-1.0753,-1.0956,-1.1443,-1.1922,-1.2272,-1.2653,-1.3218,-1.4145,-1.4656,-1.5186,-1.5612,-1.7017,-1.7861,-1.7861,-1.9133,-1.9692,-1.8982,-1.9692,-1.9831,-1.9564,-1.9945,-2.0484,-2.1018,-2.2456,-2.3478,-2.4044,-2.4488,-2.4636,-2.4636,-2.4636,-2.4636,-2.4636,-2.4636,-2.4636,-2.4636,-2.4636,-2.4636,-2.4636,-2.4636,-2.4636,-2.4636,-2.4636,-2.4636,-2.4636,-2.4636,-2.4636,-2.4636,-2.4636,-2.4636,-2.4636,-2.4663,-2.4863,-2.5144,-2.5424,-2.5732,-2.6026,-2.6319,-2.6386,-2.6386,-2.6386,-2.6386,-2.6386,-2.6386,-2.6386,-2.6386,-2.6386,-2.6386,-2.6386,-2.6386,-2.6386,-2.6386,-2.6386,-2.6386,-2.6386,-2.6386,-2.664,-2.6934,-2.7201,-2.7509,-2.7816,-2.8083,-2.8136,-2.8136,-2.8136,-2.8136,-2.8136,-2.8136,-2.8136,-2.8136,-2.8136,-2.8136,-2.8136,-2.8136,-2.8136,-2.8136,-2.8136,-2.8136,-2.8136,-0.9429,0.0,-0.9496,-0.9823,-0.9823,-0.9777,0.0,-0.9563,-0.9625,-0.9565,-0.9762,-0.9925,-1.0071,-1.042,-1.0794,-1.111,-1.1614,-1.2093,-1.245,-1.3051,-1.3694,-1.4664,-1.4875,-1.5337,-1.6037,-1.6885,-1.7449,-1.7449,-1.8293,-1.8714,-1.8573,-1.8993,-1.9632,-2.025,-2.1078,-2.1808,-2.2156,-2.3241,-2.3966,-2.4488,-2.4488,-2.4636,-2.4636,-2.4636,-2.4636,-2.4636,-2.4636,-2.4636,-2.4636,-2.4636,-2.4636,-2.4636,-2.4636,-2.4636,-2.4636,-2.4636,-2.4636,-2.4636,-2.4636,-2.4636,-2.4636,-2.4636,-2.4636,-2.4676,-2.4903,-2.5024,-2.5144,-2.5424,-2.5732,-2.6026,-2.6319,-2.6386,-2.6386,-2.6386,-2.6386,-2.6386,-2.6386,-2.6386,-2.6386,-2.6386,-2.6386,-2.6386,-2.6386,-2.6386,-2.6386,-2.6386,-2.6386,-2.6386,-2.6386,-2.664,-2.6854,-2.6921,-2.7388,-2.7722,-2.7802,-2.8016,-2.8136,-2.8136,-2.8136,-2.8136,-2.8136,-2.8136,-2.8136,-2.8136,-2.8136,-2.8136,-2.8136,-2.8136,-2.8136,-2.8136,-2.8136,-2.8136,-0.9527,-0.9571,-0.9638,-1.0072,-1.0136,-1.0047,-0.9864,-0.9911,-0.9855,-0.9778,-0.9957,-1.0193,-1.0371,-1.0761,-1.1151,-1.1435,-1.1922,-1.2426,-1.2873,-1.3344,-1.385,-1.4742,-1.4768,-1.5044,-1.5895,-1.6593,-1.7157,-1.7308,-1.7872,-1.8293,-1.8433,-1.8982,-1.9655,-2.0769,-2.2032,-2.2806,-2.3078,-2.3823,-2.4341,-2.4636,-2.4636,-2.4636,-2.4636,-2.4636,-2.4636,-2.4636,-2.4636,-2.4636,-2.4636,-2.4636,-2.4636,-2.4636,-2.4636,-2.4636,-2.4636,-2.4636,-2.4636,-2.4636,-2.4636,-2.4636,-2.4636,-2.4636,-2.4636,-2.4663,-2.4823,-2.5064,-2.5344,-2.5638,-2.5932,-2.6186,-2.6346,-2.6386,-2.6386,-2.6386,-2.6386,-2.6386,-2.6386,-2.6386,-2.6386,-2.6386,-2.6386,-2.6386,-2.6386,-2.6386,-2.6386,-2.6386,-2.6386,-2.6386,-2.6386,-2.664,-2.6827,-2.6827,-2.7228,-2.7549,-2.7682,-2.7843,-2.8003,-2.8136,-2.8136,-2.8136,-2.8136,-2.8136,-2.8136,-2.8136,-2.8136,-2.8136,-2.8136,-2.8136,-2.8136,-2.8136,-2.8136,-2.8136,-0.9406,-0.9673,-0.9933,-1.0502,-1.0647,-1.0627,-1.033,-1.0302,-1.0256,-0.9965,-1.0217,-1.0517,-1.0664,-1.1159,-1.1606,-1.1784,-1.2304,-1.2856,-1.3344,-1.3571,-1.3883,-1.4457,-1.4474,-1.4759,-1.5461,-1.6169,-1.6734,-1.7168,-1.758,-1.7861,-1.8433,-1.8982,-1.9935,-2.1193,-2.2472,-2.3327,-2.376,-2.4342,-2.4636,-2.4636,-2.4636,-2.4636,-2.4636,-2.4636,-2.4636,-2.4636,-2.4636,-2.4636,-2.4636,-2.4636,-2.4636,-2.4636,-2.4636,-2.4636,-2.4636,-2.4636,-2.4636,-2.4636,-2.4636,-2.4636,-2.4636,-2.4636,-2.4636,-2.4649,-2.469,-2.5077,-2.5571,-2.5879,-2.6159,-2.6386,-2.6386,-2.6386,-2.6386,-2.6386,-2.6386,-2.6386,-2.6386,-2.6386,-2.6386,-2.6386,-2.6386,-2.6386,-2.6386,-2.6386,-2.6386,-2.6386,-2.6386,-2.6386,-2.6386,-2.66,-2.676,-2.676,-2.7028,-2.7321,-2.7602,-2.7669,-2.7829,-2.8123,-2.8136,-2.8136,-2.8136,-2.8136,-2.8136,-2.8136,-2.8136,-2.8136,-2.8136,-2.8136,-2.8136,-2.8136,-2.8136,-2.8136,-0.96,-1.0095,-1.0594,-1.0648,-1.0708,-1.0675,-1.0387,-1.0265,-1.0233,-1.016,-1.0404,-1.0664,-1.0688,-1.1265,-1.1792,-1.1963,-1.2702,-1.3327,-1.3571,-1.375,-1.4014,-1.4474,-1.4474,-1.4759,-1.5461,-1.6037,-1.6461,-1.6734,-1.6875,-1.7298,-1.8293,-1.8854,-1.9795,-2.1616,-2.2614,-2.3471,-2.405,-2.4489,-2.4636,-2.4636,-2.4636,-2.4636,-2.4636,-2.4636,-2.4636,-2.4636,-2.4636,-2.4636,-2.4636,-2.4636,-2.4636,-2.4636,-2.4636,-2.4636,-2.4636,-2.4636,-2.4636,-2.4636,-2.4636,-2.4636,-2.4636,-2.4636,-2.4636,-2.469,-2.493,-2.5251,-2.5571,-2.5879,-2.6159,-2.6386,-2.6386,-2.6386,-2.6386,-2.6386,-2.6386,-2.6386,-2.6386,-2.6386,-2.6386,-2.6386,-2.6386,-2.6386,-2.6386,-2.6386,-2.6386,-2.6386,-2.6386,-2.6386,-2.6386,-2.6426,-2.6453,-2.6453,-2.672,-2.7014,-2.7308,-2.7562,-2.7829,-2.8123,-2.8136,-2.8136,-2.8136,-2.8136,-2.8136,-2.8136,-2.8136,-2.8136,-2.8136,-2.8136,-2.8136,-2.8136,-2.8136,-2.8136,-1.0104,-1.0467,-1.067,-1.0725,-1.0748,-1.0672,-1.059,-1.0647,-1.0696,-1.0615,-1.0802,-1.1037,-1.124,-1.163,-1.206,-1.2532,-1.3116,-1.3547,-1.3628,-1.379,-1.3904,-1.4189,-1.4189,-1.4474,-1.5186,-1.5612,-1.6028,-1.6734,-1.6875,-1.7439,-1.8293,-1.9122,-2.0215,-2.1616,-2.2743,-2.3599,-2.4195,-2.4342,-2.4476,-2.4636,-2.4636,-2.4636,-2.4636,-2.4636,-2.4636,-2.4636,-2.4636,-2.4636,-2.4636,-2.4636,-2.4636,-2.4636,-2.4636,-2.4636,-2.4636,-2.4636,-2.4636,-2.4636,-2.4636,-2.4636,-2.4636,-2.4636,-2.4636,-2.4663,-2.4796,-2.5157,-2.5545,-2.5678,-2.6039,-2.6386,-2.6386,-2.6386,-2.6386,-2.6386,-2.6386,-2.6386,-2.6386,-2.6386,-2.6386,-2.6386,-2.6386,-2.6386,-2.6386,-2.6386,-2.6386,-2.6386,-2.6386,-2.6386,-2.6386,-2.6386,-2.6386,-2.6386,-2.6653,-2.6947,-2.7241,-2.7535,-2.7829,-2.8123,-2.8136,-2.8136,-2.8136,-2.8136,-2.8136,-2.8136,-2.8136,-2.8136,-2.8136,-2.8136,-2.8136,-2.8136,-2.8136,-2.8136,-1.051,-1.0706,-1.0687,-1.0716,-1.0729,-1.0753,-1.0753,-1.0932,-1.1094,-1.1094,-1.1265,-1.15,-1.1784,-1.2077,-1.2475,-1.3059,-1.3465,-1.3701,-1.3701,-1.3815,-1.3904,-1.3904,-1.3904,-1.4189,-1.4759,-1.5186,-1.5603,-1.6452,-1.6734,-1.7308,-1.8293,-1.939,-2.0459,-2.1657,-2.2728,-2.3541,-2.3995,-2.4062,-2.4289,-2.4636,-2.4636,-2.4636,-2.4636,-2.4636,-2.4636,-2.4636,-2.4636,-2.4636,-2.4636,-2.4636,-2.4636,-2.4636,-2.4636,-2.4636,-2.4636,-2.4636,-2.4636,-2.4636,-2.4636,-2.4636,-2.4636,-2.4636,-2.4636,-2.4636,-2.4636,-2.505,-2.5518,-2.5518,-2.5932,-2.6386,-2.6386,-2.6386,-2.6386,-2.6386,-2.6386,-2.6386,-2.6386,-2.6386,-2.6386,-2.6386,-2.6386,-2.6386,-2.6386,-2.6386,-2.6386,-2.6386,-2.6386,-2.6386,-2.6386,-2.6386,-2.6413,-2.648,-2.6694,-2.6974,-2.7335,-2.7629,-2.7896,-2.8123,-2.8136,-2.8136,-2.8136,-2.8136,-2.8136,-2.8136,-2.8136,-2.8136,-2.8136,-2.8136,-2.8136,-2.8136,-2.8136,-2.8136,-1.0544,-1.0706,-1.0687,-1.0716,-1.0937,-1.1068,-1.0948,-1.1216,-1.1459,-1.1459,-1.1736,-1.1979,-1.2004,-1.2564,-1.3092,-1.3319,-1.3652,-1.388,-1.388,-1.3896,-1.3904,-1.3904,-1.3904,-1.4047,-1.4474,-1.4617,-1.4901,-1.5603,-1.5744,-1.6452,-1.8272,-1.9111,-2.0237,-2.1798,-2.2763,-2.3354,-2.3394,-2.3661,-2.4075,-2.4636,-2.4636,-2.4636,-2.4636,-2.4636,-2.4636,-2.4636,-2.4636,-2.4636,-2.4636,-2.4636,-2.4636,-2.4636,-2.4636,-2.4636,-2.4636,-2.4636,-2.4636,-2.4636,-2.4636,-2.4636,-2.4636,-2.4636,-2.4636,-2.4636,-2.4636,-2.505,-2.5518,-2.5518,-2.5932,-2.6386,-2.6386,-2.6386,-2.6386,-2.6386,-2.6386,-2.6386,-2.6386,-2.6386,-2.6386,-2.6386,-2.6386,-2.6386,-2.6386,-2.6386,-2.6386,-2.6386,-2.6386,-2.6386,-2.6386,-2.6386,-2.6493,-2.676,-2.6814,-2.7054,-2.7615,-2.7936,-2.8123,-2.8136,-2.8136,-2.8136,-2.8136,-2.8136,-2.8136,-2.8136,-2.8136,-2.8136,-2.8136,-2.8136,-2.8136,-2.8136,-2.8136,-2.8136,-1.0305,-1.0489,-1.0493,-1.0855,-1.0997,-1.1159,-1.1273,-1.1492,-1.1736,-1.1955,-1.2109,-1.2231,-1.2345,-1.2759,-1.3157,-1.3344,-1.3579,-1.3782,-1.3888,-1.3904,-1.3904,-1.3904,-1.3904,-1.4047,-1.4474,-1.4474,-1.4759,-1.5186,-1.5753,-1.631,-1.7288,-1.8692,-1.9947,-2.1057,-2.2138,-2.2849,-2.3327,-2.3434,-2.3701,-2.4102,-2.4275,-2.4462,-2.4636,-2.4636,-2.4636,-2.4636,-2.4636,-2.4636,-2.4636,-2.4636,-2.4636,-2.4636,-2.4636,-2.4636,-2.4636,-2.4636,-2.4636,-2.4636,-2.4636,-2.4636,-2.4636,-2.4636,-2.4636,-2.4636,-2.4636,-2.505,-2.5518,-2.5518,-2.5932,-2.6386,-2.6386,-2.6386,-2.6386,-2.6386,-2.6386,-2.6386,-2.6386,-2.6386,-2.6386,-2.6386,-2.6386,-2.6386,-2.6386,-2.6386,-2.6386,-2.6386,-2.6386,-2.6386,-2.6386,-2.6386,-2.6426,-2.6547,-2.6881,-2.7335,-2.7923,-2.8083,-2.8136,-2.8136,-2.8136,-2.8136,-2.8136,-2.8136,-2.8136,-2.8136,-2.8136,-2.8136,-2.8136,-2.8136,-2.8136,-2.8136,-2.8136,-2.8136,-1.0194,-1.0314,-1.0478,-1.085,-1.1183,-1.1443,-1.163,-1.1809,-1.2028,-1.2328,-1.2434,-1.2507,-1.2629,-1.2897,-1.3157,-1.3344,-1.3522,-1.3701,-1.388,-1.3904,-1.3904,-1.3904,-1.3904,-1.4047,-1.4332,-1.4332,-1.4474,-1.4768,-1.5328,-1.6037,-1.6734,-1.8131,-1.9529,-2.0629,-2.1609,-2.2415,-2.318,-2.318,-2.3327,-2.3634,-2.3834,-2.4075,-2.4369,-2.4369,-2.4369,-2.4369,-2.4369,-2.4369,-2.4369,-2.4462,-2.4556,-2.4636,-2.4636,-2.4636,-2.4636,-2.4636,-2.4636,-2.4636,-2.4636,-2.4636,-2.4636,-2.4636,-2.4636,-2.4636,-2.4636,-2.4983,-2.5398,-2.5491,-2.5865,-2.6279,-2.636,-2.6386,-2.6386,-2.6386,-2.6386,-2.6386,-2.6386,-2.6386,-2.6386,-2.6386,-2.6386,-2.6386,-2.6386,-2.6386,-2.6386,-2.6386,-2.6386,-2.6386,-2.6386,-2.6386,-2.6453,-2.664,-2.7108,-2.7602,-2.8096,-2.8136,-2.8136,-2.8136,-2.8136,-2.8136,-2.8136,-2.8136,-2.8136,-2.8136,-2.8136,-2.8136,-2.8136,-2.8136,-2.8136,-2.8136,-2.8136,-2.8136,-1.0125,-1.0298,-1.0526,-1.0883,-1.1378,-1.1825,-1.1996,-1.2174,-1.2361,-1.2532,-1.271,-1.284,-1.284,-1.2978,-1.3157,-1.3344,-1.3522,-1.3701,-1.388,-1.3904,-1.3904,-1.3904,-1.3904,-1.3904,-1.3904,-1.3904,-1.4047,-1.4474,-1.4474,-1.5186,-1.6593,-1.7429,-1.8692,-2.0491,-2.1346,-2.2173,-2.2859,-2.2859,-2.302,-2.3327,-2.3327,-2.3474,-2.3768,-2.3768,-2.3768,-2.3768,-2.3768,-2.3768,-2.3794,-2.4088,-2.4369,-2.4636,-2.4636,-2.4636,-2.4636,-2.4636,-2.4636,-2.4636,-2.4636,-2.4636,-2.4636,-2.4636,-2.4636,-2.4636,-2.4636,-2.4836,-2.5144,-2.5424,-2.5732,-2.6026,-2.6319,-2.6386,-2.6386,-2.6386,-2.6386,-2.6386,-2.6386,-2.6386,-2.6386,-2.6386,-2.6386,-2.6386,-2.6386,-2.6386,-2.6386,-2.6386,-2.6386,-2.6386,-2.6386,-2.6386,-2.6613,-2.7201,-2.7522,-2.7816,-2.811,-2.8136,-2.8136,-2.8136,-2.8136,-2.8136,-2.8136,-2.8136,-2.8136,-2.8136,-2.8136,-2.8136,-2.8136,-2.8136,-2.8136,-2.8136,-2.8136,-2.8136,-1.0158,-1.0387,-1.0729,-1.1224,-1.1565,-1.189,-1.2312,-1.245,-1.254,-1.2718,-1.28,-1.2873,-1.2994,-1.3059,-1.3197,-1.3514,-1.3612,-1.3701,-1.388,-1.3904,-1.3904,-1.3904,-1.3904,-1.3904,-1.3904,-1.3904,-1.3904,-1.4047,-1.4332,-1.4759,-1.547,-1.6725,-1.8131,-1.9401,-2.0653,-2.176,-2.2448,-2.2722,-2.2913,-2.3006,-2.3006,-2.3273,-2.3768,-2.3768,-2.3768,-2.3768,-2.3768,-2.3768,-2.3794,-2.4088,-2.4249,-2.4356,-2.4556,-2.4636,-2.4636,-2.4636,-2.4636,-2.4636,-2.4636,-2.4636,-2.4636,-2.4636,-2.4636,-2.4636,-2.4636,-2.4836,-2.5144,-2.5424,-2.5732,-2.6026,-2.6319,-2.6386,-2.6386,-2.6386,-2.6386,-2.6386,-2.6386,-2.6386,-2.6386,-2.6386,-2.6386,-2.6386,-2.6386,-2.6386,-2.6386,-2.6386,-2.6386,-2.6386,-2.6386,-2.6386,-2.6533,-2.6907,-2.7215,-2.7509,-2.7802,-2.8016,-2.8136,-2.8136,-2.8136,-2.8136,-2.8136,-2.8136,-2.8136,-2.8136,-2.8136,-2.8136,-2.8136,-2.8136,-2.8136,-2.8136,-2.8136,-2.8136,-1.0363,-1.0582,-1.0932,-1.1476,-1.1801,-1.2109,-1.2564,-1.267,-1.2702,-1.2816,-1.284,-1.2889,-1.3059,-1.3092,-1.3214,-1.3587,-1.3644,-1.3701,-1.388,-1.3904,-1.3904,-1.3904,-1.3904,-1.3904,-1.3904,-1.3904,-1.3904,-1.3904,-1.4189,-1.4474,-1.491,-1.6169,-1.758,-1.8982,-2.0249,-2.1346,-2.231,-2.2722,-2.2859,-2.2859,-2.2859,-2.306,-2.3407,-2.3407,-2.3407,-2.3407,-2.3407,-2.3474,-2.3607,-2.3781,-2.3995,-2.4222,-2.4396,-2.4529,-2.4636,-2.4636,-2.4636,-2.4636,-2.4636,-2.4636,-2.4636,-2.4636,-2.4636,-2.4636,-2.4636,-2.4756,-2.497,-2.5264,-2.5558,-2.5852,-2.6146,-2.6306,-2.6386,-2.6386,-2.6386,-2.6386,-2.6386,-2.6386,-2.6386,-2.6386,-2.6386,-2.6386,-2.6386,-2.6386,-2.6386,-2.6386,-2.6386,-2.6386,-2.6386,-2.6386,-2.6507,-2.6787,-2.6987,-2.7215,-2.7495,-2.7802,-2.7963,-2.7963,-2.8083,-2.8136,-2.8136,-2.8136,-2.8136,-2.8136,-2.8136,-2.8136,-2.8136,-2.8136,-2.8136,-2.8136,-2.8136,-2.8136,-1.0534,-1.0842,-1.1143,-1.1671,-1.2077,-1.2442,-1.2759,-1.284,-1.284,-1.284,-1.284,-1.2889,-1.3059,-1.3108,-1.323,-1.3587,-1.366,-1.3717,-1.388,-1.3904,-1.3904,-1.3904,-1.3904,-1.3904,-1.3904,-1.3904,-1.3904,-1.3904,-1.3904,-1.4189,-1.491,-1.5753,-1.7026,-1.8843,-1.997,-2.1207,-2.2173,-2.2722,-2.2859,-2.2859,-2.2859,-2.2859,-2.2859,-2.2859,-2.2859,-2.2859,-2.2859,-2.302,-2.3287,-2.3313,-2.3634,-2.4128,-2.4182,-2.4342,-2.4556,-2.4583,-2.4583,-2.4556,-2.4596,-2.4596,-2.4596,-2.4623,-2.4636,-2.4636,-2.4636,-2.4636,-2.4703,-2.4997,-2.5277,-2.5545,-2.5838,-2.6132,-2.6346,-2.6346,-2.6373,-2.6386,-2.6386,-2.6386,-2.6386,-2.6386,-2.6386,-2.6386,-2.6386,-2.6386,-2.6386,-2.6386,-2.6386,-2.6386,-2.6386,-2.6386,-2.6493,-2.6747,-2.6814,-2.6934,-2.7201,-2.7495,-2.7655,-2.7655,-2.7936,-2.8096,-2.8096,-2.8123,-2.8136,-2.8136,-2.8136,-2.8136,-2.8136,-2.8136,-2.8136,-2.8136,-2.8136,-2.8136,-1.042,-1.0932,-1.1484,-1.1874,-1.2353,-1.2743,-1.2816,-1.284,-1.284,-1.284,-1.284,-1.2889,-1.3059,-1.3214,-1.3384,-1.3612,-1.3758,-1.3855,-1.3896,-1.3904,-1.3904,-1.3904,-1.3904,-1.3904,-1.3904,-1.3904,-1.3904,-1.3904,-1.3904,-1.4047,-1.4617,-1.5328,-1.631,-1.757,-1.939,-2.0653,-2.1484,-2.2448,-2.2859,-2.2859,-2.2859,-2.2859,-2.2859,-2.2859,-2.2859,-2.2859,-2.2859,-2.2899,-2.2979,-2.322,-2.3407,-2.3567,-2.4022,-2.4102,-2.3981,-2.4209,-2.4155,-2.3995,-2.4222,-2.4302,-2.4329,-2.4556,-2.4636,-2.4636,-2.4636,-2.4636,-2.4703,-2.4997,-2.5117,-2.5237,-2.5531,-2.5825,-2.6052,-2.6052,-2.6226,-2.6386,-2.6386,-2.6386,-2.6386,-2.6386,-2.6386,-2.6386,-2.6386,-2.6386,-2.6386,-2.6386,-2.6386,-2.6386,-2.6386,-2.6386,-2.6413,-2.648,-2.668,-2.6854,-2.6907,-2.7188,-2.7362,-2.7362,-2.7629,-2.7789,-2.7789,-2.8016,-2.8136,-2.8136,-2.8136,-2.8136,-2.8136,-2.8136,-2.8136,-2.8136,-2.8136,-2.8136,-1.059,-1.1021,-1.1492,-1.2028,-1.2499,-1.284,-1.284,-1.284,-1.284,-1.284,-1.284,-1.2889,-1.3059,-1.3173,-1.3327,-1.3604,-1.3717,-1.3807,-1.3888,-1.3904,-1.3904,-1.3904,-1.3904,-1.3904,-1.3904,-1.3904,-1.3904,-1.3904,-1.3904,-1.4047,-1.4474,-1.5186,-1.6169,-1.7288,-1.91,-2.0503,-2.1207,-2.231,-2.2859,-2.2859,-2.2859,-2.2859,-2.2859,-2.2859,-2.2859,-2.2859,-2.2859,-2.2859,-2.2873,-2.3033,-2.3193,-2.3354,-2.3661,-2.3781,-2.3794,-2.3941,-2.3901,-2.3794,-2.3941,-2.4088,-2.4222,-2.4382,-2.4529,-2.4636,-2.4636,-2.4636,-2.4676,-2.4823,-2.497,-2.5117,-2.5264,-2.5518,-2.5745,-2.5745,-2.6079,-2.6386,-2.6386,-2.6386,-2.6386,-2.6386,-2.6386,-2.6386,-2.6386,-2.6386,-2.6386,-2.6386,-2.6386,-2.6386,-2.6386,-2.6386,-2.6386,-2.6386,-2.6533,-2.6613,-2.6613,-2.6881,-2.7054,-2.7054,-2.7335,-2.7495,-2.7495,-2.7642,-2.7856,-2.8136,-2.8003,-2.7936,-2.7923,-2.7789,-2.7722,-2.7722,-2.7722,-2.7802,-1.0737,-1.1118,-1.1516,-1.2182,-1.2596,-1.284,-1.284,-1.284,-1.284,-1.284,-1.284,-1.2881,-1.3027,-1.3076,-1.3189,-1.3498,-1.3604,-1.3693,-1.3839,-1.388,-1.3904,-1.3904,-1.3904,-1.3904,-1.3904,-1.3904,-1.3904,-1.3904,-1.3904,-1.4047,-1.4332,-1.5044,-1.6028,-1.7147,-1.8971,-2.0237,-2.1081,-2.2173,-2.2859,-2.2859,-2.2859,-2.2859,-2.2859,-2.2859,-2.2859,-2.2859,-2.2859,-2.2859,-2.2859,-2.2859,-2.3006,-2.3247,-2.33,-2.3447,-2.3621,-2.3674,-2.3661,-2.3621,-2.3674,-2.3848,-2.4062,-2.4115,-2.4329,-2.4556,-2.4556,-2.4596,-2.4636,-2.4636,-2.481,-2.4997,-2.4997,-2.5224,-2.5438,-2.5438,-2.5852,-2.6239,-2.6239,-2.6239,-2.6253,-2.6306,-2.636,-2.6386,-2.6386,-2.6386,-2.6386,-2.6386,-2.6386,-2.6386,-2.6386,-2.6386,-2.6386,-2.6386,-2.6386,-2.6386,-2.6386,-2.6613,-2.6747,-2.6747,-2.7028,-2.7188,-2.7188,-2.7241,-2.7495,-2.7976,-2.7749,-2.7629,-2.7629,-2.7375,-2.7268,-2.7268,-2.7268,-2.7402,-1.0396,-1.12,-1.202,-1.2426,-1.2686,-1.284,-1.284,-1.284,-1.284,-1.284,-1.284,-1.284,-1.2865,-1.2994,-1.3108,-1.3157,-1.3433,-1.3652,-1.3677,-1.3807,-1.3904,-1.3904,-1.3904,-1.3904,-1.3904,-1.3904,-1.3904,-1.3904,-1.3904,-1.3904,-1.4047,-1.4617,-1.547,-1.632,-1.8142,-1.968,-2.0804,-2.1897,-2.2585,-2.2859,-2.2859,-2.2859,-2.2859,-2.2859,-2.2859,-2.2859,-2.2859,-2.2859,-2.2859,-2.2859,-2.2886,-2.2953,-2.322,-2.318,-2.302,-2.3287,-2.322,-2.302,-2.33,-2.3407,-2.3487,-2.3741,-2.4022,-2.4262,-2.4262,-2.4436,-2.4636,-2.4636,-2.4663,-2.469,-2.469,-2.4917,-2.5144,-2.5144,-2.5384,-2.5625,-2.5625,-2.5625,-2.5705,-2.5959,-2.6213,-2.6386,-2.6386,-2.6386,-2.6386,-2.6386,-2.6386,-2.6386,-2.6386,-2.6386,-2.6386,-2.6386,-2.6386,-2.6386,-2.6386,-2.6426,-2.6453,-2.6453,-2.672,-2.6881,-2.6881,-2.7134,-2.7308,-2.7388,-2.7348,-2.7321,-2.7321,-2.7281,-2.7268,-2.7268,-2.7268,-2.7281,-1.0428,-1.1216,-1.1947,-1.2199,-1.2475,-1.271,-1.2816,-1.284,-1.284,-1.284,-1.284,-1.284,-1.284,-1.2897,-1.2986,-1.3076,-1.323,-1.3368,-1.3474,-1.3644,-1.3758,-1.3758,-1.3847,-1.3904,-1.3904,-1.3904,-1.3904,-1.3904,-1.3904,-1.3904,-1.3904,-1.4617,-1.5337,-1.6178,-1.8002,-1.9552,-2.0665,-2.176,-2.2448,-2.2859,-2.2859,-2.2859,-2.2859,-2.2859,-2.2859,-2.2859,-2.2859,-2.2859,-2.2859,-2.2859,-2.2859,-2.2873,-2.3006,-2.2979,-2.2886,-2.302,-2.2979,-2.2886,-2.302,-2.318,-2.3354,-2.3474,-2.3728,-2.3968,-2.3968,-2.4168,-2.4396,-2.4396,-2.4516,-2.4636,-2.4636,-2.473,-2.4836,-2.4836,-2.493,-2.5024,-2.5024,-2.5277,-2.5598,-2.5892,-2.5919,-2.5999,-2.6333,-2.6253,-2.6199,-2.636,-2.6386,-2.6386,-2.6386,-2.6386,-2.6386,-2.6386,-2.6386,-2.6386,-2.6386,-2.6386,-2.6386,-2.6386,-2.6507,-2.6587,-2.6587,-2.6707,-2.6774,-2.6774,-2.6934,-2.7014,-2.7014,-2.6854,-2.6774,-2.6774,-2.6774,-2.6867,-1.0444,-1.1086,-1.163,-1.1898,-1.2231,-1.2548,-1.2726,-1.28,-1.284,-1.284,-1.284,-1.284,-1.284,-1.284,-1.2881,-1.3011,-1.3068,-1.3141,-1.3279,-1.3457,-1.3571,-1.3571,-1.3725,-1.3839,-1.3839,-1.3872,-1.3904,-1.3904,-1.3904,-1.3904,-1.3904,-1.4474,-1.5186,-1.6037,-1.7721,-1.9262,-2.0527,-2.176,-2.2585,-2.2859,-2.2859,-2.2859,-2.2859,-2.2859,-2.2859,-2.2859,-2.2859,-2.2859,-2.2859,-2.2859,-2.2859,-2.2859,-2.2859,-2.2859,-2.2859,-2.2859,-2.2859,-2.2859,-2.2859,-2.302,-2.3207,-2.3207,-2.342,-2.3661,-2.3661,-2.3861,-2.4115,-2.4182,-2.4356,-2.4543,-2.4623,-2.4636,-2.4636,-2.4636,-2.4636,-2.4636,-2.4636,-2.5037,-2.5464,-2.5692,-2.5611,-2.5651,-2.6092,-2.5985,-2.5919,-2.6132,-2.6226,-2.6279,-2.6279,-2.6346,-2.6386,-2.6386,-2.6386,-2.6386,-2.6386,-2.6386,-2.6386,-2.6386,-2.6386,-2.6386,-2.6386,-2.6386,-2.6386,-2.6386,-2.66,-2.6707,-2.6707,-2.6493,-2.6386,-2.6386,-2.6386,-2.6507,-1.0298,-1.072,-1.1135,-1.1663,-1.206,-1.2361,-1.254,-1.271,-1.284,-1.284,-1.284,-1.284,-1.284,-1.284,-1.284,-1.2848,-1.2986,-1.31,-1.3108,-1.3271,-1.3384,-1.3384,-1.3547,-1.366,-1.366,-1.3807,-1.3904,-1.3904,-1.3904,-1.3904,-1.3904,-1.4332,-1.4901,-1.5603,-1.6725,-1.8272,-2.0086,-2.1897,-2.2859,-2.2859,-2.2859,-2.2859,-2.2859,-2.2859,-2.2859,-2.2859,-2.2859,-2.2859,-2.2859,-2.2859,-2.2859,-2.2859,-2.2859,-2.2859,-2.2859,-2.2859,-2.2859,-2.2859,-2.2859,-2.2873,-2.2886,-2.2886,-2.31,-2.3354,-2.3354,-2.3554,-2.3848,-2.4128,-2.4209,-2.4289,-2.4569,-2.4636,-2.4636,-2.4636,-2.4636,-2.4636,-2.4636,-2.4877,-2.5104,-2.5117,-2.5331,-2.5518,-2.5558,-2.5545,-2.5545,-2.5558,-2.5798,-2.5972,-2.5972,-2.6226,-2.6386,-2.6386,-2.6386,-2.6386,-2.6386,-2.6386,-2.6386,-2.6386,-2.6386,-2.6386,-2.6386,-2.6386,-2.6386,-2.6386,-2.64,-2.6413,-2.6413,-2.64,-2.6386,-2.6386,-2.6386,-2.64,-0.986,-1.0347,-1.0867,-1.1183,-1.1614,-1.2044,-1.2337,-1.2532,-1.2694,-1.2808,-1.284,-1.284,-1.284,-1.284,-1.284,-1.284,-1.2889,-1.2929,-1.2929,-1.3084,-1.3197,-1.3197,-1.336,-1.3474,-1.3474,-1.3522,-1.3563,-1.3563,-1.3563,-1.3612,-1.3734,-1.4156,-1.4771,-1.5603,-1.6725,-1.8401,-2.0792,-2.2173,-2.2859,-2.2859,-2.2859,-2.2859,-2.2859,-2.2859,-2.2859,-2.2859,-2.2859,-2.2859,-2.2859,-2.2859,-2.2859,-2.2859,-2.2859,-2.2859,-2.2859,-2.2859,-2.2859,-2.2859,-2.2859,-2.2859,-2.2859,-2.2859,-2.2939,-2.3033,-2.3033,-2.3247,-2.3554,-2.3848,-2.4062,-2.4275,-2.4556,-2.4636,-2.4636,-2.4636,-2.4636,-2.4636,-2.4636,-2.4716,-2.485,-2.5037,-2.501,-2.5077,-2.5451,-2.5358,-2.5304,-2.5478,-2.5598,-2.5745,-2.5932,-2.6052,-2.6186,-2.6373,-2.6386,-2.6386,-2.6386,-2.6386,-2.6386,-2.6386,-2.6386,-2.6386,-2.6386,-2.6386,-2.6386,-2.6386,-2.6386,-2.6386,-2.6386,-2.6386,-2.6386,-2.6386,-2.6386,-2.6386,-0.96,-1.0063,-1.0574,-1.0818,-1.1281,-1.176,-1.206,-1.2353,-1.2596,-1.2718,-1.2791,-1.284,-1.284,-1.284,-1.284,-1.284,-1.284,-1.284,-1.284,-1.2938,-1.3011,-1.3011,-1.3165,-1.3279,-1.3279,-1.3336,-1.3368,-1.3368,-1.3368,-1.3425,-1.3547,-1.3883,-1.4561,-1.5603,-1.7007,-1.8832,-2.0792,-2.2035,-2.2722,-2.2859,-2.2859,-2.2859,-2.2859,-2.2859,-2.2859,-2.2859,-2.2859,-2.2859,-2.2859,-2.2859,-2.2859,-2.2859,-2.2859,-2.2859,-2.2859,-2.2859,-2.2859,-2.2859,-2.2859,-2.2859,-2.2859,-2.2859,-2.2859,-2.2859,-2.2859,-2.3086,-2.3394,-2.3688,-2.3981,-2.4275,-2.4556,-2.4636,-2.4636,-2.4636,-2.4636,-2.4636,-2.4636,-2.4636,-2.469,-2.489,-2.477,-2.4756,-2.5157,-2.5064,-2.4997,-2.5184,-2.5304,-2.5478,-2.5772,-2.5892,-2.6066,-2.636,-2.6386,-2.6386,-2.6386,-2.6386,-2.6386,-2.6386,-2.6386,-2.6386,-2.6386,-2.6386,-2.6386,-2.6386,-2.6386,-2.6386,-2.6386,-2.6386,-2.6386,-2.6386,-2.6386,-2.6386,0.0,0.0,0.0,-1.059,-1.1078,-1.1524,-1.1719,-1.2166,-1.254,-1.2556,-1.2702,-1.2832,-1.284,-1.284,-1.284,-1.284,-1.284,-1.284,-1.284,-1.284,-1.284,-1.284,-1.2986,-1.3084,-1.3084,-1.3246,-1.336,-1.336,-1.336,-1.336,-1.336,-1.3539,-1.428,-1.5593,-1.7861,-1.9401,-2.0086,-2.1609,-2.2448,-2.2859,-2.2859,-2.2859,-2.2859,-2.2859,-2.2859,-2.2859,-2.2859,-2.2859,-2.2859,-2.2859,-2.2859,-2.2859,-2.2859,-2.2859,-2.2859,-2.2859,-2.2859,-2.2859,-2.2859,-2.2859,-2.2859,-2.2859,-2.2859,-2.2859,-2.2859,-2.3086,-2.3394,-2.3688,-2.3981,-2.4275,-2.4556,-2.4636,-2.4636,-2.4636,-2.4636,-2.4636,-2.4636,-2.4636,-2.4636,-2.4636,-2.4636,-2.4636,-2.4636,-2.4636,-2.4636,-2.4636,-2.4877,-2.517,-2.5478,-2.5758,-2.6052,-2.636,-2.6386,-2.6386,-2.6386,-2.6386,-2.6386,-2.6386,-2.6386,-2.6386,-2.6386,-2.6386,-2.6386,-2.6386,-2.6386,-2.6386,-2.6386,-2.6386,-2.6386,-2.6386,-2.6386,-2.6386,-0.9372,0.0,0.0,0.0,0.0,0.0,-1.1305,-1.1695,-1.2069,-1.232,-1.2515,-1.2678,-1.2808,-1.284,-1.284,-1.284,-1.284,-1.284,-1.284,-1.284,-1.284,-1.284,-1.2881,-1.2905,-1.2905,-1.2954,-1.2986,-1.2986,-1.2986,-1.3043,-1.3165,-1.4018,-1.5059,-1.6091,-1.8057,-1.9541,-2.0527,-2.176,-2.2448,-2.2859,-2.2859,-2.2859,-2.2859,-2.2859,-2.2859,-2.2859,-2.2859,-2.2859,-2.2859,-2.2859,-2.2859,-2.2859,-2.2859,-2.2859,-2.2859,-2.2859,-2.2859,-2.2859,-2.2859,-2.2859,-2.2859,-2.2859,-2.2859,-2.2859,-2.2859,-2.3086,-2.3394,-2.3688,-2.3981,-2.4275,-2.4556,-2.4636,-2.4636,-2.4636,-2.4636,-2.4636,-2.4636,-2.4636,-2.4636,-2.4636,-2.4636,-2.4636,-2.4636,-2.4636,-2.4636,-2.4636,-2.4703,-2.4943,-2.5451,-2.5585,-2.5825,-2.6333,-2.6386,-2.6386,-2.6386,-2.6386,-2.6386,-2.6386,-2.6386,-2.6386,-2.6386,-2.6386,-2.6386,-2.6386,-2.6386,-2.6386,-2.6386,-2.6386,-2.6386,-2.6386,-2.6386,-2.6386,-0.9324,-0.9616,-0.9933,-1.0111,0.0,0.0,-1.1053,-1.1403,-1.1744,-1.2028,-1.2223,-1.2393,-1.258,-1.2613,-1.2637,-1.271,-1.2726,-1.2751,-1.2824,-1.284,-1.284,-1.284,-1.284,-1.284,-1.284,-1.284,-1.284,-1.284,-1.284,-1.2913,-1.3352,-1.419,-1.5081,-1.6135,-1.7875,-1.9262,-2.0376,-2.1371,-2.2193,-2.2859,-2.2739,-2.2739,-2.2859,-2.2859,-2.2859,-2.2859,-2.2859,-2.2859,-2.2859,-2.2859,-2.2859,-2.2859,-2.2859,-2.2859,-2.2859,-2.2859,-2.2859,-2.2859,-2.2859,-2.2859,-2.2859,-2.2859,-2.2859,-2.2859,-2.2859,-2.3086,-2.3394,-2.3688,-2.4062,-2.4422,-2.4596,-2.4636,-2.4636,-2.4636,-2.4636,-2.4636,-2.4636,-2.4636,-2.4636,-2.4636,-2.4636,-2.4636,-2.4636,-2.4636,-2.4636,-2.4636,-2.4636,-2.485,-2.5438,-2.5518,-2.5745,-2.6333,-2.6386,-2.6386,-2.6386,-2.6386,-2.6386,-2.6386,-2.6386,-2.6386,-2.6386,-2.6386,-2.6386,-2.6386,-2.6386,-2.6386,-2.6386,-2.6386,-2.6386,-2.6386,-2.6386,-2.6386,-0.938,-0.9632,-0.9933,-1.0111,-1.0412,0.0,-1.0899,-1.12,-1.1492,-1.1679,-1.1849,-1.2028,-1.2215,-1.2264,-1.2328,-1.2483,-1.254,-1.2629,-1.2808,-1.284,-1.284,-1.284,-1.284,-1.284,-1.284,-1.284,-1.284,-1.284,-1.284,-1.3038,-1.3595,-1.4188,-1.4928,-1.5958,-1.7534,-1.8905,-2.019,-2.0885,-2.1823,-2.2766,-2.2498,-2.2525,-2.2819,-2.2819,-2.2832,-2.2859,-2.2859,-2.2859,-2.2859,-2.2859,-2.2859,-2.2859,-2.2859,-2.2859,-2.2859,-2.2859,-2.2859,-2.2859,-2.2859,-2.2859,-2.2859,-2.2859,-2.2859,-2.2859,-2.2859,-2.3086,-2.3394,-2.3728,-2.4195,-2.4596,-2.4623,-2.4636,-2.4636,-2.4636,-2.4636,-2.4636,-2.4636,-2.4636,-2.4636,-2.4636,-2.4636,-2.4636,-2.4636,-2.4636,-2.4636,-2.4636,-2.4636,-2.485,-2.5438,-2.5518,-2.5745,-2.6333,-2.6386,-2.6386,-2.6386,-2.6386,-2.6386,-2.6386,-2.6386,-2.6386,-2.6386,-2.6386,-2.6386,-2.6386,-2.6386,-2.6386,-2.6386,-2.6386,-2.6386,-2.6386,-2.6386,-2.6386,-0.9575,-0.973,-0.9933,-1.0111,-1.0322,0.0,-1.0704,-1.0915,-1.1118,-1.1297,-1.1476,-1.1663,-1.1849,-1.1996,-1.2093,-1.2125,-1.2377,-1.2629,-1.2808,-1.284,-1.284,-1.284,-1.284,-1.284,-1.284,-1.284,-1.284,-1.284,-1.284,-1.3112,-1.3796,-1.4121,-1.5125,-1.6817,-1.7819,-1.9027,-2.0612,-2.1149,-2.17,-2.2151,-2.2098,-2.2231,-2.2498,-2.2498,-2.2632,-2.2859,-2.2859,-2.2859,-2.2859,-2.2859,-2.2859,-2.2859,-2.2859,-2.2859,-2.2859,-2.2859,-2.2859,-2.2859,-2.2859,-2.2859,-2.2859,-2.2859,-2.2859,-2.2859,-2.2859,-2.3086,-2.3434,-2.3968,-2.4195,-2.4342,-2.4569,-2.4636,-2.4636,-2.4636,-2.4636,-2.4636,-2.4636,-2.4636,-2.4636,-2.4636,-2.4636,-2.4636,-2.4636,-2.4636,-2.4636,-2.4636,-2.4636,-2.485,-2.5438,-2.5518,-2.5745,-2.6333,-2.6386,-2.6386,-2.6386,-2.6386,-2.6386,-2.6386,-2.6386,-2.6386,-2.6386,-2.6386,-2.6386,-2.6386,-2.6386,-2.6386,-2.6386,-2.6386,-2.6386,-2.6386,-2.6386,-2.6386,-0.9892,-0.9957,-1.0071,-1.0249,-1.0371,0.0,0.0,-1.0761,-1.0883,-1.1062,-1.1167,-1.1289,-1.1468,-1.1565,-1.1687,-1.1874,-1.2052,-1.2264,-1.2532,-1.2726,-1.284,-1.284,-1.284,-1.284,-1.284,-1.284,-1.284,-1.284,-1.284,-1.3095,-1.3621,-1.3935,-1.4888,-1.6191,-1.7379,-1.8575,-2.0062,-2.0592,-2.1319,-2.1991,-2.1844,-2.1924,-2.2205,-2.2205,-2.2365,-2.2645,-2.2645,-2.2726,-2.2859,-2.2859,-2.2859,-2.2859,-2.2859,-2.2859,-2.2859,-2.2859,-2.2859,-2.2859,-2.2859,-2.2859,-2.2859,-2.2859,-2.2859,-2.2859,-2.2859,-2.3086,-2.3394,-2.3688,-2.3981,-2.4235,-2.4382,-2.4529,-2.4636,-2.4636,-2.4636,-2.4636,-2.4636,-2.4636,-2.4636,-2.4636,-2.4636,-2.4636,-2.4636,-2.4636,-2.4636,-2.4636,-2.4636,-2.4796,-2.5237,-2.5424,-2.5678,-2.6119,-2.6306,-2.6386,-2.6386,-2.6386,-2.6386,-2.6386,-2.6386,-2.6386,-2.6386,-2.6386,-2.6386,-2.6386,-2.6386,-2.6386,-2.6386,-2.6386,-2.6386,-2.6386,-2.6386,-2.6386,-1.0176,-1.0184,-1.0249,-1.0396,-1.0436,-1.0469,0.0,0.0,0.0,-1.0834,-1.0891,-1.0956,-1.1094,-1.1151,-1.1273,-1.1573,-1.1679,-1.1825,-1.2109,-1.2426,-1.2661,-1.2726,-1.2767,-1.2783,-1.2783,-1.2816,-1.284,-1.284,-1.284,-1.2972,-1.3367,-1.3776,-1.4406,-1.5367,-1.6696,-1.8006,-1.9252,-2.0055,-2.0812,-2.1686,-2.1577,-2.1617,-2.1897,-2.1897,-2.2084,-2.2418,-2.2418,-2.2592,-2.2859,-2.2859,-2.2859,-2.2859,-2.2859,-2.2859,-2.2859,-2.2859,-2.2859,-2.2859,-2.2859,-2.2859,-2.2859,-2.2859,-2.2859,-2.2859,-2.2859,-2.3033,-2.3247,-2.3313,-2.3714,-2.4128,-2.4195,-2.4422,-2.4636,-2.4636,-2.4636,-2.4636,-2.4636,-2.4636,-2.4636,-2.4636,-2.4636,-2.4636,-2.4636,-2.4636,-2.4636,-2.4636,-2.4636,-2.4743,-2.5037,-2.5291,-2.5545,-2.5838,-2.6079,-2.6226,-2.6226,-2.6226,-2.6226,-2.6226,-2.6226,-2.6253,-2.6306,-2.636,-2.6386,-2.6386,-2.6386,-2.6386,-2.6386,-2.6386,-2.6386,-2.6386,-2.6386,-2.6386,-1.0209,-1.0282,-1.0412,-1.0428,-1.0436,-1.0436,-1.0461,0.0,-1.0469,-1.0493,0.0,-1.0729,-1.0753,0.0,0.0,-1.1053,-1.133,-1.1541,-1.1581,-1.1768,-1.2012,-1.2328,-1.2499,-1.2596,-1.2596,-1.2743,-1.284,-1.284,-1.284,-1.2972,-1.3367,-1.3524,-1.413,-1.5747,-1.6388,-1.7435,-1.8982,-1.9757,-2.04,-2.0706,-2.1049,-2.1309,-2.1603,-2.1603,-2.1897,-2.2418,-2.2418,-2.2592,-2.2859,-2.2859,-2.2859,-2.2859,-2.2859,-2.2859,-2.2859,-2.2859,-2.2859,-2.2859,-2.2859,-2.2859,-2.2859,-2.2859,-2.2859,-2.2859,-2.2859,-2.2886,-2.2966,-2.3247,-2.3567,-2.3875,-2.4142,-2.4422,-2.4636,-2.4636,-2.4636,-2.4636,-2.4636,-2.4636,-2.4636,-2.4636,-2.4636,-2.4636,-2.4636,-2.4636,-2.4636,-2.4636,-2.4636,-2.4743,-2.5037,-2.5104,-2.5237,-2.5531,-2.5598,-2.5611,-2.5611,-2.5611,-2.5611,-2.5611,-2.5611,-2.5732,-2.5999,-2.6253,-2.6386,-2.6386,-2.6386,-2.6386,-2.6386,-2.6386,-2.6386,-2.6386,-2.6386,-2.6386,-1.0493,-1.0526,-1.0582,-1.0582,-1.0509,-1.0461,-1.0558,-1.0509,-1.0461,-1.0566,0.0,0.0,0.0,0.0,0.0,0.0,-1.1094,-1.1224,-1.1321,-1.1403,-1.163,-1.2093,-1.2207,-1.2296,-1.2402,-1.2483,-1.2532,-1.2532,-1.275,-1.3068,-1.3206,-1.3692,-1.4313,-1.4913,-1.5753,-1.6655,-1.7803,-1.8992,-1.9839,-2.0348,-2.0856,-2.1176,-2.1296,-2.1296,-2.1617,-2.2164,-2.2164,-2.2432,-2.2859,-2.2859,-2.2859,-2.2859,-2.2859,-2.2859,-2.2859,-2.2859,-2.2859,-2.2859,-2.2859,-2.2859,-2.2859,-2.2859,-2.2859,-2.2859,-2.2859,-2.2859,-2.2886,-2.302,-2.3407,-2.3794,-2.3928,-2.4289,-2.4636,-2.4636,-2.4636,-2.4636,-2.4636,-2.4636,-2.4636,-2.4636,-2.4636,-2.4636,-2.4636,-2.4636,-2.4636,-2.4636,-2.4636,-2.4676,-2.481,-2.497,-2.513,-2.5251,-2.5411,-2.5518,-2.5518,-2.5518,-2.5518,-2.5518,-2.5518,-2.5571,-2.5692,-2.5985,-2.6132,-2.6132,-2.6306,-2.6386,-2.6386,-2.6386,-2.6386,-2.6386,-2.6386,-2.6386,-1.081,-1.0769,-1.0704,-1.0753,-1.0558,-1.0404,-1.0582,-1.0485,-1.0412,-1.0582,-1.0664,0.0,0.0,0.0,-1.0737,-1.0875,0.0,-1.0867,-1.0988,-1.1005,-1.1208,-1.1744,-1.1898,-1.2052,-1.228,-1.2304,-1.2304,-1.2304,-1.285,-1.3079,-1.3208,-1.403,-1.453,-1.466,-1.5574,-1.6483,-1.713,-1.8431,-1.9456,-2.0081,-2.0729,-2.1109,-2.1109,-2.1109,-2.143,-2.1991,-2.1991,-2.2311,-2.2859,-2.2859,-2.2859,-2.2859,-2.2859,-2.2859,-2.2859,-2.2859,-2.2859,-2.2859,-2.2859,-2.2859,-2.2859,-2.2859,-2.2859,-2.2859,-2.2859,-2.2859,-2.2859,-2.2859,-2.3247,-2.3661,-2.3754,-2.4142,-2.4543,-2.4623,-2.4636,-2.4636,-2.4636,-2.4636,-2.4636,-2.4636,-2.4636,-2.4636,-2.4636,-2.4636,-2.4636,-2.4636,-2.4636,-2.4636,-2.4636,-2.4823,-2.4957,-2.4957,-2.5144,-2.5277,-2.5277,-2.5277,-2.5277,-2.5277,-2.5344,-2.5398,-2.5398,-2.5678,-2.5838,-2.5838,-2.6039,-2.6186,-2.6266,-2.6266,-2.6306,-2.6386,-2.6386,-2.6386,-1.111,-1.0956,-1.0737,-1.0915,-1.0558,-1.0217,-1.0404,-1.0306,-1.0225,-1.0404,-1.0574,-1.0688,-1.0688,-1.0688,-1.0696,-1.0704,-1.0558,0.0,0.0,-1.0461,-1.0655,-1.1183,-1.1565,-1.1922,-1.2272,-1.2304,-1.2304,-1.2304,-1.285,-1.3208,-1.3602,-1.4419,-1.5043,-1.5443,-1.6084,-1.6872,-1.7529,-1.8559,-1.9468,-2.0106,-2.0729,-2.1109,-2.1109,-2.1109,-2.143,-2.1991,-2.1991,-2.2311,-2.2859,-2.2859,-2.2859,-2.2859,-2.2859,-2.2859,-2.2859,-2.2859,-2.2859,-2.2859,-2.2859,-2.2859,-2.2859,-2.2859,-2.2859,-2.2859,-2.2859,-2.2859,-2.2859,-2.2859,-2.31,-2.3407,-2.3701,-2.3995,-2.4289,-2.4569,-2.4636,-2.4636,-2.4636,-2.4636,-2.4636,-2.4636,-2.4636,-2.4636,-2.4636,-2.4636,-2.4636,-2.4636,-2.4636,-2.4636,-2.4636,-2.4649,-2.4649,-2.4649,-2.4663,-2.4663,-2.4663,-2.4663,-2.4663,-2.4663,-2.493,-2.509,-2.509,-2.5371,-2.5531,-2.5531,-2.5531,-2.5678,-2.5972,-2.5972,-2.6119,-2.6386,-2.6386,-2.6386,-1.1191,-1.1053,-1.0891,-1.0956,-1.0655,-1.0387,-1.0566,-1.0469,-1.0396,-1.0566,-1.0647,-1.0688,-1.0688,-1.0688,-1.0655,-1.0542,-1.0477,-1.0396,0.0,-1.0363,-1.0542,-1.0834,-1.1191,-1.1459,-1.1573,-1.1703,-1.1776,-1.1776,-1.2648,-1.34,-1.3789,-1.5119,-1.6084,-1.6483,-1.699,-1.7378,-1.7787,-1.8688,-1.9328,-1.9839,-2.0729,-2.1109,-2.1109,-2.1109,-2.1323,-2.171,-2.1897,-2.2205,-2.2579,-2.2779,-2.2859,-2.2859,-2.2859,-2.2859,-2.2859,-2.2859,-2.2859,-2.2859,-2.2859,-2.2859,-2.2859,-2.2859,-2.2859,-2.2859,-2.2859,-2.2859,-2.2859,-2.2859,-2.3086,-2.3354,-2.3447,-2.3834,-2.4222,-2.4329,-2.4489,-2.4636,-2.4636,-2.4636,-2.4636,-2.4636,-2.4636,-2.4636,-2.4636,-2.4636,-2.4636,-2.4636,-2.4636,-2.4636,-2.4636,-2.4636,-2.4636,-2.4636,-2.4636,-2.4636,-2.4636,-2.4636,-2.4636,-2.4636,-2.473,-2.4783,-2.4783,-2.5064,-2.5224,-2.5224,-2.5411,-2.5558,-2.5665,-2.5665,-2.5718,-2.5812,-2.5812,-2.5919,-1.1386,-1.124,-1.1078,-1.1143,-1.0842,-1.0574,-1.0753,-1.0607,-1.0485,-1.0655,-1.0688,-1.0688,-1.0688,-1.0688,-1.0639,-1.0461,-1.0379,-1.0274,0.0,-1.0225,-1.0404,-1.0582,-1.0915,-1.1159,-1.1216,-1.133,-1.1427,-1.1492,-1.2551,-1.3483,-1.4048,-1.5839,-1.699,-1.7389,-1.7893,-1.8291,-1.8547,-1.92,-1.9584,-1.9966,-2.0729,-2.1109,-2.1109,-2.1109,-2.1269,-2.1563,-2.175,-2.2058,-2.2432,-2.2619,-2.2766,-2.2859,-2.2859,-2.2859,-2.2859,-2.2859,-2.2859,-2.2859,-2.2859,-2.2859,-2.2859,-2.2859,-2.2859,-2.2859,-2.2859,-2.2859,-2.2859,-2.2859,-2.3006,-2.3193,-2.33,-2.3688,-2.4075,-2.4182,-2.4422,-2.4636,-2.4636,-2.4636,-2.4636,-2.4636,-2.4636,-2.4636,-2.4636,-2.4636,-2.4636,-2.4636,-2.4636,-2.4636,-2.4636,-2.4636,-2.4636,-2.4636,-2.4636,-2.4636,-2.4636,-2.4636,-2.4636,-2.4636,-2.4636,-2.4636,-2.4636,-2.4823,-2.4917,-2.4917,-2.5104,-2.5251,-2.5358,-2.5358,-2.5411,-2.5504,-2.5411,-2.5464]},{"header":{"parameterUnit":"m.s-1","parameterCategory":1,"la1":30.6,"la2":29.2853,"lo1":-89.7004,"lo2":-87.6739,"dy":0.0162,"dx":0.0183,"nx":112,"ny":82,"refTime":"2024-09-26T12:00:00:Z","depth":0,"parameterNumber":3,"parameterNumberName":"V-component_of_WINDS"},"data":[0.0,0.0,0.0,0.0,0.0,0.0,0.0,0.0,0.0,0.0,0.0,0.0,0.0,0.0,0.0,0.0,0.0,0.0,0.0,0.0,0.0,0.0,0.0,0.0,0.0,0.0,0.0,0.0,0.0,0.0,0.0,0.0,0.0,0.0,0.0,0.0,0.0,0.0,0.0,0.0,0.0,0.0,0.0,0.0,0.0,0.0,0.0,0.0,0.0,0.0,0.0,0.0,0.0,0.0,0.0,0.0,0.0,0.0,0.0,0.0,0.0,0.0,0.0,0.0,0.0,0.0,0.0,0.0,0.0,0.0,0.0,0.0,0.0,0.0,0.0,0.0,0.0,0.0,0.0,0.0,0.0,0.0,0.0,0.0,0.0,0.0,0.0,0.0,0.0,0.0,-5.2009,-5.3856,-5.5957,-5.7188,-5.7188,-5.5776,-5.4218,-5.2589,0.0,0.0,0.0,0.0,0.0,0.0,0.0,0.0,0.0,0.0,0.0,0.0,0.0,0.0,0.0,0.0,0.0,0.0,0.0,0.0,0.0,0.0,0.0,0.0,0.0,0.0,0.0,0.0,0.0,0.0,0.0,0.0,0.0,0.0,0.0,0.0,0.0,0.0,0.0,0.0,0.0,0.0,0.0,0.0,0.0,0.0,0.0,0.0,0.0,0.0,0.0,0.0,0.0,0.0,0.0,0.0,0.0,0.0,0.0,0.0,0.0,0.0,0.0,0.0,0.0,0.0,0.0,0.0,0.0,0.0,0.0,0.0,0.0,0.0,0.0,0.0,0.0,0.0,0.0,0.0,0.0,0.0,0.0,0.0,0.0,0.0,0.0,0.0,0.0,0.0,0.0,0.0,0.0,0.0,0.0,0.0,0.0,0.0,0.0,0.0,0.0,0.0,0.0,0.0,-5.2408,-5.5341,-5.6573,-5.7188,-5.7188,-5.5776,-5.4218,-5.2589,0.0,0.0,0.0,0.0,0.0,0.0,0.0,0.0,0.0,0.0,0.0,0.0,0.0,0.0,0.0,0.0,0.0,0.0,0.0,0.0,0.0,0.0,0.0,0.0,0.0,0.0,0.0,0.0,0.0,0.0,0.0,0.0,0.0,0.0,0.0,0.0,0.0,0.0,0.0,0.0,0.0,0.0,0.0,0.0,0.0,0.0,0.0,0.0,0.0,0.0,0.0,0.0,0.0,0.0,0.0,0.0,0.0,0.0,0.0,0.0,0.0,0.0,0.0,0.0,0.0,0.0,0.0,0.0,0.0,0.0,0.0,0.0,0.0,0.0,0.0,0.0,0.0,0.0,0.0,0.0,0.0,0.0,0.0,0.0,0.0,0.0,0.0,0.0,0.0,0.0,0.0,0.0,0.0,0.0,0.0,0.0,0.0,0.0,0.0,0.0,0.0,0.0,0.0,-5.248,-5.411,-5.6391,-5.6971,-5.7188,-5.7188,-5.5776,-5.4218,-5.2589,-5.056,0.0,0.0,0.0,0.0,0.0,0.0,0.0,0.0,0.0,0.0,0.0,0.0,0.0,0.0,0.0,0.0,0.0,0.0,0.0,0.0,0.0,0.0,0.0,0.0,0.0,0.0,0.0,0.0,0.0,0.0,0.0,0.0,0.0,0.0,0.0,0.0,0.0,0.0,0.0,0.0,0.0,0.0,0.0,0.0,0.0,0.0,0.0,0.0,0.0,0.0,0.0,0.0,0.0,0.0,0.0,0.0,0.0,0.0,0.0,0.0,0.0,0.0,0.0,0.0,0.0,0.0,0.0,0.0,0.0,0.0,0.0,0.0,0.0,0.0,0.0,0.0,0.0,0.0,0.0,0.0,0.0,0.0,0.0,0.0,0.0,0.0,0.0,0.0,0.0,0.0,0.0,0.0,0.0,0.0,0.0,0.0,0.0,0.0,0.0,0.0,0.0,0.0,-5.3892,-5.5486,-5.7043,-5.7188,-5.7188,-5.7188,-5.5776,-5.4218,-5.2589,-5.0234,0.0,0.0,0.0,0.0,0.0,0.0,0.0,0.0,0.0,0.0,0.0,0.0,0.0,0.0,0.0,0.0,0.0,0.0,0.0,0.0,0.0,0.0,0.0,0.0,0.0,0.0,0.0,0.0,0.0,0.0,0.0,0.0,0.0,0.0,0.0,0.0,0.0,0.0,0.0,0.0,0.0,0.0,0.0,0.0,0.0,0.0,0.0,0.0,0.0,0.0,0.0,0.0,0.0,0.0,0.0,0.0,0.0,0.0,0.0,0.0,0.0,0.0,0.0,0.0,0.0,0.0,0.0,0.0,0.0,0.0,0.0,0.0,0.0,0.0,0.0,0.0,0.0,0.0,0.0,0.0,0.0,0.0,0.0,0.0,0.0,0.0,0.0,0.0,0.0,0.0,0.0,0.0,0.0,0.0,0.0,0.0,0.0,0.0,0.0,0.0,0.0,0.0,-5.3892,-5.5486,-5.7043,-5.7188,-5.7188,-5.7188,-5.5776,-5.4218,-5.2589,-5.0234,0.0,0.0,0.0,0.0,0.0,0.0,0.0,0.0,0.0,0.0,0.0,0.0,0.0,0.0,0.0,0.0,0.0,0.0,0.0,0.0,0.0,0.0,0.0,0.0,0.0,0.0,0.0,0.0,0.0,0.0,0.0,0.0,0.0,0.0,0.0,0.0,0.0,0.0,0.0,0.0,0.0,0.0,0.0,0.0,0.0,0.0,0.0,0.0,0.0,0.0,0.0,0.0,0.0,0.0,0.0,0.0,0.0,0.0,0.0,0.0,0.0,0.0,0.0,0.0,0.0,0.0,0.0,0.0,0.0,0.0,0.0,0.0,0.0,0.0,0.0,0.0,0.0,0.0,0.0,0.0,0.0,0.0,0.0,0.0,0.0,0.0,0.0,0.0,0.0,0.0,0.0,0.0,0.0,0.0,0.0,0.0,0.0,0.0,0.0,0.0,0.0,0.0,-5.3892,-5.5486,-5.7043,-5.7188,-5.7007,-5.65,-5.5486,-5.4001,-5.1864,0.0,0.0,0.0,0.0,0.0,0.0,0.0,0.0,0.0,0.0,0.0,0.0,0.0,0.0,0.0,0.0,0.0,0.0,0.0,0.0,0.0,0.0,0.0,0.0,0.0,0.0,0.0,0.0,0.0,0.0,0.0,0.0,0.0,0.0,0.0,0.0,0.0,0.0,0.0,0.0,0.0,0.0,0.0,0.0,0.0,0.0,0.0,0.0,0.0,0.0,0.0,0.0,0.0,0.0,0.0,0.0,0.0,0.0,0.0,0.0,0.0,0.0,0.0,0.0,0.0,0.0,0.0,0.0,0.0,0.0,0.0,0.0,0.0,0.0,0.0,0.0,0.0,0.0,0.0,0.0,0.0,0.0,0.0,0.0,0.0,0.0,0.0,0.0,0.0,0.0,0.0,0.0,0.0,0.0,0.0,0.0,0.0,0.0,0.0,0.0,0.0,0.0,-5.2625,-5.4074,-5.5486,-5.7043,-5.7188,-5.6971,-5.6428,-5.5486,-5.4001,-5.1828,0.0,0.0,0.0,0.0,0.0,0.0,0.0,0.0,0.0,0.0,0.0,0.0,0.0,0.0,0.0,0.0,0.0,0.0,0.0,0.0,0.0,0.0,0.0,0.0,0.0,0.0,0.0,0.0,0.0,0.0,0.0,0.0,0.0,0.0,0.0,0.0,0.0,0.0,0.0,0.0,0.0,0.0,0.0,0.0,0.0,0.0,0.0,0.0,0.0,0.0,0.0,0.0,0.0,0.0,0.0,0.0,0.0,0.0,0.0,0.0,0.0,0.0,0.0,0.0,0.0,0.0,0.0,0.0,0.0,0.0,0.0,0.0,0.0,0.0,0.0,0.0,0.0,0.0,0.0,0.0,0.0,0.0,0.0,0.0,0.0,0.0,0.0,0.0,0.0,0.0,0.0,0.0,0.0,0.0,0.0,0.0,0.0,0.0,0.0,0.0,0.0,0.0,-5.3385,-5.4399,-5.5486,-5.7043,-5.7188,-5.7188,-5.7188,-5.5776,-5.4218,0.0,0.0,0.0,0.0,0.0,0.0,0.0,0.0,0.0,0.0,0.0,0.0,0.0,0.0,0.0,0.0,0.0,0.0,0.0,0.0,0.0,0.0,0.0,0.0,0.0,0.0,0.0,0.0,0.0,0.0,0.0,0.0,0.0,0.0,0.0,0.0,0.0,0.0,0.0,0.0,0.0,0.0,0.0,0.0,0.0,0.0,0.0,0.0,0.0,0.0,0.0,0.0,0.0,0.0,0.0,0.0,0.0,0.0,0.0,0.0,0.0,0.0,0.0,0.0,0.0,0.0,0.0,0.0,0.0,0.0,0.0,0.0,0.0,0.0,0.0,0.0,0.0,0.0,0.0,0.0,0.0,0.0,0.0,0.0,0.0,0.0,0.0,0.0,0.0,0.0,0.0,0.0,0.0,0.0,0.0,0.0,0.0,0.0,0.0,0.0,0.0,0.0,0.0,-5.3458,-5.487,-5.6066,-5.708,-5.7188,-5.6971,-5.6391,-5.545,-5.3965,-5.1792,0.0,0.0,0.0,0.0,0.0,0.0,0.0,0.0,0.0,0.0,0.0,0.0,0.0,0.0,0.0,0.0,0.0,0.0,0.0,0.0,0.0,0.0,0.0,0.0,0.0,0.0,0.0,0.0,0.0,0.0,0.0,0.0,0.0,0.0,0.0,0.0,0.0,0.0,0.0,0.0,0.0,0.0,0.0,0.0,0.0,0.0,0.0,0.0,0.0,0.0,0.0,0.0,0.0,0.0,0.0,0.0,0.0,0.0,0.0,0.0,0.0,0.0,0.0,0.0,0.0,0.0,0.0,0.0,0.0,0.0,0.0,0.0,0.0,0.0,0.0,0.0,0.0,0.0,0.0,0.0,0.0,0.0,0.0,0.0,0.0,0.0,0.0,0.0,0.0,0.0,0.0,0.0,0.0,0.0,0.0,0.0,0.0,0.0,0.0,0.0,0.0,0.0,-5.3929,-5.5233,-5.6319,-5.7116,-5.7188,-5.7007,-5.65,-5.5522,-5.4001,-5.19,0.0,0.0,0.0,0.0,0.0,0.0,0.0,0.0,0.0,0.0,0.0,0.0,0.0,0.0,0.0,0.0,0.0,0.0,0.0,0.0,0.0,0.0,0.0,0.0,0.0,0.0,0.0,0.0,0.0,0.0,0.0,0.0,0.0,0.0,0.0,0.0,0.0,0.0,0.0,0.0,0.0,0.0,0.0,0.0,0.0,0.0,0.0,0.0,0.0,0.0,0.0,0.0,0.0,0.0,0.0,0.0,0.0,0.0,0.0,0.0,0.0,0.0,0.0,0.0,0.0,0.0,0.0,0.0,0.0,0.0,0.0,0.0,0.0,0.0,0.0,0.0,0.0,0.0,0.0,0.0,0.0,0.0,0.0,0.0,0.0,0.0,0.0,0.0,0.0,0.0,0.0,0.0,0.0,0.0,0.0,0.0,0.0,0.0,0.0,0.0,0.0,0.0,-5.4617,-5.5595,-5.6391,-5.7116,-5.7188,-5.7188,-5.7188,-5.5848,-5.4327,-5.2697,0.0,0.0,0.0,0.0,0.0,0.0,0.0,0.0,0.0,0.0,0.0,0.0,0.0,0.0,0.0,0.0,0.0,0.0,0.0,0.0,0.0,0.0,0.0,0.0,0.0,0.0,0.0,0.0,0.0,0.0,0.0,0.0,0.0,0.0,0.0,0.0,0.0,0.0,0.0,0.0,0.0,0.0,0.0,0.0,0.0,0.0,0.0,0.0,0.0,0.0,0.0,0.0,0.0,0.0,0.0,0.0,0.0,0.0,0.0,0.0,-4.2882,-4.2377,0.0,0.0,0.0,0.0,0.0,0.0,0.0,0.0,0.0,0.0,0.0,0.0,0.0,0.0,0.0,0.0,0.0,0.0,0.0,0.0,0.0,0.0,0.0,0.0,0.0,0.0,0.0,0.0,0.0,0.0,0.0,0.0,0.0,0.0,0.0,0.0,0.0,0.0,0.0,0.0,-5.4689,-5.6102,-5.7007,-5.7188,-5.7188,-5.7188,-5.7188,-5.6319,-5.5088,-5.353,-5.1031,0.0,0.0,0.0,0.0,0.0,0.0,0.0,0.0,0.0,0.0,0.0,0.0,0.0,0.0,0.0,0.0,0.0,0.0,0.0,0.0,0.0,0.0,0.0,0.0,0.0,0.0,0.0,0.0,0.0,0.0,0.0,0.0,0.0,0.0,0.0,0.0,0.0,0.0,0.0,0.0,0.0,0.0,0.0,0.0,0.0,0.0,0.0,0.0,0.0,0.0,0.0,0.0,0.0,0.0,0.0,0.0,0.0,0.0,0.0,-4.6024,-4.5273,0.0,0.0,0.0,0.0,0.0,0.0,0.0,0.0,0.0,0.0,0.0,0.0,0.0,0.0,0.0,0.0,0.0,0.0,0.0,0.0,0.0,0.0,0.0,0.0,0.0,0.0,0.0,0.0,0.0,0.0,0.0,0.0,0.0,0.0,0.0,0.0,0.0,0.0,0.0,0.0,-5.4762,-5.6247,-5.7188,-5.7188,-5.7188,-5.7188,-5.7188,-5.6464,-5.5486,-5.4363,-5.2009,0.0,0.0,0.0,0.0,0.0,0.0,0.0,0.0,0.0,0.0,0.0,0.0,0.0,0.0,0.0,0.0,0.0,0.0,0.0,0.0,0.0,0.0,0.0,0.0,0.0,0.0,0.0,0.0,0.0,0.0,0.0,0.0,0.0,0.0,0.0,0.0,0.0,0.0,0.0,0.0,0.0,0.0,0.0,0.0,0.0,0.0,0.0,0.0,0.0,0.0,0.0,0.0,0.0,-4.8659,-4.9029,-4.9101,-5.055,-5.1217,-5.1184,-4.988,-4.9016,-4.8545,-4.814,0.0,0.0,0.0,0.0,0.0,0.0,0.0,0.0,0.0,0.0,0.0,0.0,0.0,0.0,0.0,0.0,0.0,0.0,0.0,0.0,0.0,0.0,-5.3494,-5.4146,-5.3892,-5.3566,-5.3711,0.0,0.0,0.0,0.0,0.0,0.0,0.0,0.0,0.0,0.0,0.0,-5.4979,-5.6319,-5.7188,-5.7188,-5.7188,-5.7188,-5.7188,-5.6573,-5.5884,-5.516,-5.3096,-5.1502,0.0,0.0,0.0,0.0,0.0,0.0,0.0,0.0,0.0,0.0,0.0,0.0,0.0,0.0,0.0,0.0,0.0,0.0,0.0,0.0,0.0,0.0,0.0,0.0,0.0,0.0,0.0,0.0,0.0,0.0,0.0,0.0,-4.2008,-4.1616,0.0,0.0,0.0,0.0,0.0,0.0,0.0,0.0,0.0,0.0,0.0,0.0,0.0,-4.8364,-4.9007,-4.9761,-5.0592,-5.1511,-5.2291,-5.27,-5.2815,-5.3671,-5.4129,-5.4173,-5.4629,0.0,-5.1286,-5.1402,0.0,0.0,0.0,0.0,0.0,0.0,0.0,0.0,0.0,0.0,0.0,0.0,0.0,0.0,0.0,0.0,0.0,0.0,0.0,0.0,0.0,0.0,-5.6609,-5.6717,-5.7188,-5.7804,-5.8528,-5.5233,-5.219,-5.2299,-5.1611,-5.0959,0.0,0.0,0.0,0.0,0.0,0.0,-5.5667,-5.6645,-5.7188,-5.7188,-5.7188,-5.7188,-5.7188,-5.708,-5.6681,-5.5921,-5.4943,-5.3748,-5.2226,-5.0524,0.0,0.0,0.0,0.0,0.0,0.0,0.0,0.0,0.0,0.0,0.0,0.0,0.0,0.0,0.0,0.0,0.0,0.0,0.0,0.0,0.0,0.0,0.0,0.0,0.0,0.0,0.0,0.0,0.0,-4.2366,-4.3834,-4.4512,-4.4974,-4.5134,0.0,0.0,0.0,0.0,0.0,0.0,0.0,0.0,0.0,-4.9875,-5.1091,-5.2009,-5.264,-5.3064,-5.3676,-5.4575,-5.4973,-5.5166,-5.5204,-5.5988,-5.6385,-5.6411,-5.7307,-5.6766,-5.5166,-5.4266,-5.353,-5.3013,0.0,0.0,0.0,0.0,-5.2977,-5.383,-5.3543,-5.3636,-5.369,-5.2769,0.0,0.0,0.0,0.0,0.0,0.0,0.0,-5.3675,-5.5269,-5.6754,-5.7985,-5.8456,-5.8818,-5.918,-5.9542,-5.7949,-5.6355,-5.5884,-5.4472,-5.3313,-5.3313,-5.2661,0.0,0.0,0.0,-5.5233,-5.5921,-5.6681,-5.7188,-5.7188,-5.7188,-5.7188,-5.7188,-5.7188,-5.7043,-5.6681,-5.5957,-5.5196,-5.4508,-5.2951,-5.1574,0.0,0.0,0.0,0.0,0.0,0.0,0.0,0.0,0.0,0.0,0.0,0.0,0.0,0.0,0.0,0.0,0.0,0.0,0.0,0.0,0.0,0.0,0.0,0.0,0.0,0.0,0.0,0.0,-4.4195,-4.5565,-4.7165,-4.7438,-4.7634,0.0,0.0,0.0,0.0,0.0,0.0,-5.074,-5.216,-5.2847,-5.2684,-5.405,-5.5059,-5.5696,-5.5874,-5.6395,-5.7186,-5.7229,-5.73,-5.73,-5.7899,-5.8166,-5.8236,-5.8915,-5.8874,-5.8274,-5.6668,-5.5958,-5.5808,-5.5272,-5.5074,-5.5078,-5.4874,-5.5287,-5.5921,-5.5591,-5.5551,-5.5566,-5.5104,-5.4349,-5.3535,-5.3462,0.0,0.0,0.0,0.0,-5.5571,-5.7116,-5.8094,-5.8927,-5.9724,-6.0086,-6.0231,-6.0231,-6.0231,-5.9941,-5.8891,-5.7116,-5.5812,-5.5812,-5.5124,0.0,-5.487,-5.5884,-5.6681,-5.6899,-5.7442,-5.7732,-5.7514,-5.7514,-5.7406,-5.7224,-5.7188,-5.7188,-5.7188,-5.6645,-5.621,-5.5993,-5.4907,-5.382,-5.2842,0.0,0.0,0.0,0.0,0.0,0.0,0.0,0.0,0.0,0.0,0.0,0.0,0.0,0.0,0.0,0.0,0.0,0.0,0.0,0.0,0.0,0.0,0.0,0.0,0.0,0.0,0.0,0.0,0.0,-4.8369,-4.8602,0.0,0.0,0.0,0.0,-5.1116,-5.1901,-5.2672,-5.347,-5.4958,-5.5731,-5.5579,-5.6444,-5.7178,-5.7941,-5.7978,-5.8424,-5.9365,-5.9327,-5.9398,-5.9436,-5.9436,-5.9441,-5.9517,-5.9479,-5.9587,-5.9625,-5.8462,-5.7564,-5.6927,-5.6889,-5.6889,-5.6932,-5.6814,-5.7192,-5.7754,-5.7521,-5.7888,-5.8297,-5.726,-5.6183,-5.5249,-5.5113,-5.5103,0.0,0.0,-5.6079,-5.6467,-5.7964,-5.8927,-5.976,-6.0557,-6.1353,-6.1897,-6.1897,-6.1897,-6.1426,-5.9832,-5.8818,-5.8239,-5.8239,0.0,-5.7297,-5.8058,-5.8239,-5.8565,-5.9325,-5.947,-5.918,-5.842,-5.8347,-5.8021,-5.7261,-5.7188,-5.7188,-5.7188,-5.7152,-5.679,-5.6029,-5.5921,-5.516,-5.3675,-5.2806,0.0,0.0,0.0,0.0,0.0,0.0,0.0,0.0,0.0,0.0,0.0,0.0,0.0,0.0,0.0,0.0,0.0,0.0,0.0,0.0,0.0,0.0,0.0,0.0,0.0,0.0,0.0,0.0,-5.1064,-5.1268,0.0,-5.2577,-5.2387,-5.2946,-5.4613,-5.4969,-5.5504,-5.6294,-5.7298,-5.7768,-5.7548,-5.8336,-5.8832,-5.9008,-5.9122,-5.9375,-5.9696,-5.9734,-5.9772,-5.9772,-5.9772,-5.9772,-5.9772,-5.9772,-5.9809,-5.9809,-5.9398,-5.9095,-5.8873,-5.8873,-5.8873,-5.8911,-5.8823,-5.8942,-5.9095,-5.8915,-5.8877,-5.8872,-5.8326,-5.7777,-5.7383,-5.7161,-5.707,-5.7115,-5.7631,-5.7751,-5.8065,-5.9595,-6.0158,-6.0593,-6.139,-6.1788,-6.2005,-6.2005,-6.2005,-6.186,-6.1281,-6.0484,-5.9941,-5.9941,-5.9289,-5.8854,-5.9144,-5.918,-5.9289,-5.9579,-5.9615,-5.9506,-5.9216,-5.8709,-5.8275,-5.7985,-5.7478,-5.7188,-5.7188,-5.7188,-5.708,-5.679,-5.6754,-5.6283,-5.5196,-5.3929,-5.2733,0.0,0.0,0.0,0.0,0.0,0.0,0.0,0.0,0.0,0.0,0.0,0.0,0.0,0.0,0.0,0.0,0.0,0.0,0.0,0.0,0.0,0.0,0.0,0.0,0.0,-4.967,-5.1535,-5.3353,-5.3582,-5.4053,-5.5275,-5.5123,-5.5543,-5.6919,-5.7289,-5.766,-5.8183,-5.8948,-5.9272,-5.9026,-5.9539,-5.9772,-5.9658,-5.9772,-5.9809,-5.9809,-5.9885,-5.9885,-5.9885,-5.9885,-5.9885,-5.9923,-6.0183,-6.0302,-6.035,-6.0615,-6.0724,-6.0719,-6.0113,-5.9885,-5.9885,-5.9828,-5.9794,-5.9794,-5.9618,-5.9401,-5.9253,-5.9241,-5.919,-5.9059,-5.905,-5.8989,-5.8914,-5.9042,-5.9037,-5.9314,-6.0501,-6.081,-6.1027,-6.1824,-6.2005,-6.2005,-6.2005,-6.2223,-6.2404,-6.2404,-6.1969,-6.1534,-6.1245,-6.0991,-6.0738,-6.0448,-6.0412,-6.0412,-6.0412,-6.0412,-6.0303,-6.005,-5.9542,-5.8999,-5.8456,-5.7913,-5.7478,-5.7224,-5.7188,-5.7188,-5.7188,-5.7188,-5.6935,-5.6428,-5.4907,-5.3711,-5.2915,0.0,0.0,0.0,0.0,0.0,0.0,0.0,0.0,0.0,0.0,0.0,0.0,0.0,0.0,0.0,0.0,0.0,0.0,0.0,0.0,0.0,0.0,0.0,-4.9296,-5.1217,-5.3391,-5.516,-5.5389,-5.6064,-5.7774,-5.72,-5.7034,-5.7925,-5.8693,-5.9089,-5.9051,-5.9852,-6.0255,-6.0102,-6.0038,-6.0031,-5.9999,-5.9923,-5.9885,-5.9885,-5.9885,-5.9885,-5.9923,-5.9923,-5.9923,-5.9999,-6.0823,-6.1141,-6.1196,-6.2024,-6.2397,-6.2277,-6.0605,-5.9961,-5.9961,-5.9904,-5.987,-5.9866,-5.9726,-5.9621,-5.9664,-6.0265,-6.0332,-6.0236,-6.067,-6.0748,-6.0525,-6.0176,-6.0026,-6.0158,-6.0682,-6.0846,-6.1027,-6.1824,-6.2005,-6.2041,-6.2041,-6.2657,-6.32,-6.32,-6.3237,-6.3019,-6.2223,-6.2693,-6.2947,-6.215,-6.2041,0.0,-6.2005,-6.2005,-6.1716,-6.0919,-6.081,-6.0194,-5.8601,-5.842,-5.8058,-5.7297,-5.7224,-5.7188,-5.7188,-5.7224,-5.7224,-5.7224,-5.5812,-5.4653,-5.3856,0.0,0.0,0.0,0.0,0.0,0.0,0.0,0.0,0.0,0.0,0.0,0.0,0.0,0.0,0.0,0.0,0.0,0.0,0.0,0.0,0.0,-5.1369,-5.2953,-5.2738,-5.4331,-5.5913,-5.7046,-5.7172,-5.7581,-5.8666,-5.8551,-5.8754,-5.9644,-5.9901,-6.0043,-6.0043,-6.0245,-6.0332,-6.0255,-6.0208,-6.0137,-6.0031,-5.9961,-5.9923,-5.9885,-5.9885,-6.0221,-6.0785,-6.0785,-6.1088,-6.1728,-6.1936,-6.2079,-6.2129,-6.2373,-6.2558,-6.2547,-6.1966,-6.1709,-6.1705,-6.1709,-6.1709,-6.1675,-6.1606,-6.1571,-6.1538,-6.1618,-6.1469,-6.1349,-6.133,-6.1025,-6.0766,-6.097,-6.0901,-6.0877,-6.1516,-6.1679,-6.1752,-6.1969,-6.2005,-6.2186,-6.273,-6.3019,-6.3345,-6.3961,-6.4541,-6.4685,-6.3889,-6.3418,-6.3092,-6.2911,-6.2367,-6.2005,-6.2005,-6.2005,-6.1933,-6.1716,-6.1172,-6.0629,-6.0194,-5.9072,-5.8311,-5.8094,-5.7514,-5.7188,-5.7188,-5.7768,-5.8058,-5.8058,-5.8239,-5.7913,0.0,0.0,0.0,0.0,0.0,0.0,0.0,0.0,0.0,0.0,0.0,0.0,0.0,0.0,0.0,0.0,0.0,0.0,0.0,0.0,0.0,0.0,-5.4043,-5.5782,-5.6179,-5.7021,-5.7826,-5.8348,-5.8716,-5.9109,-5.9595,-5.9633,-5.9863,-6.037,-6.0408,-6.0408,-6.0408,-6.0408,-6.037,-6.0332,-6.0293,-6.0399,-6.0632,-6.0621,-6.0747,-6.105,-6.105,-6.131,-6.1766,-6.1776,-6.207,-6.2573,-6.2895,-6.3041,-6.3092,-6.3486,-6.3676,-6.367,0.0,0.0,0.0,0.0,-6.2454,-6.2454,-6.2459,-6.2425,-6.2429,-6.2627,-6.256,-6.2369,-6.2466,-6.224,-6.1902,-6.1862,-6.1755,-6.164,-6.1951,-6.2005,-6.2114,-6.244,-6.2512,-6.273,-6.3526,-6.3961,-6.4323,-6.4794,-6.5555,0.0,-6.5482,-6.4468,-6.3563,-6.3237,-6.2512,-6.2005,-6.2005,-6.2005,-6.2005,-6.2005,-6.1607,-6.1172,-6.0846,-5.9941,0.0,0.0,0.0,-5.8347,-5.8709,-5.9196,0.0,0.0,0.0,0.0,0.0,0.0,0.0,0.0,-5.9994,-6.0883,0.0,0.0,0.0,0.0,0.0,0.0,0.0,0.0,0.0,0.0,0.0,0.0,0.0,0.0,0.0,0.0,-5.6491,-5.8333,-5.9153,-5.9243,-5.9243,-5.9243,-5.9928,-6.0408,-6.0408,-6.0408,-6.0408,-6.0408,-6.0408,-6.0408,-6.0408,-6.0408,0.0,0.0,0.0,-6.078,-6.1496,-6.1538,-6.1945,-6.2699,-6.2699,-6.2737,-6.2851,-6.2838,-6.2867,-6.3001,-6.3719,-6.4069,-6.4127,-6.4883,-6.5226,-6.5079,-6.3594,-6.2921,-6.2819,-6.2819,-6.2819,-6.2819,-6.2953,0.0,0.0,-6.3558,-6.3574,-6.3425,-6.3817,-6.3661,-6.3289,-6.2805,-6.25,-6.2381,-6.2114,-6.2132,-6.2386,-6.3075,-6.3292,-6.3582,-6.4416,-6.5141,-6.5685,-6.5757,-6.6374,-6.6786,-6.6845,-6.5518,-6.4287,-6.3619,-6.2693,-6.215,-6.2205,-6.2132,-6.2096,-6.2205,-6.2205,0.0,-6.1299,-6.119,-6.0827,-6.0102,-5.9994,-6.0284,-6.1117,-6.1296,-6.1838,-6.2639,-6.2964,-6.3544,-6.4237,-6.515,-6.5989,-6.6755,-6.5493,-6.525,0.0,0.0,0.0,0.0,0.0,0.0,0.0,0.0,0.0,0.0,0.0,0.0,0.0,0.0,0.0,-5.6744,-5.8117,-5.9192,-6.0043,-6.013,-6.013,-6.013,-6.0321,-6.0408,-6.0408,-6.0408,-6.0408,-6.0408,-6.0408,-6.0408,-6.0408,-6.0408,-6.0408,-6.0408,-6.1009,-6.142,-6.1496,-6.2192,-6.259,-6.2704,-6.2704,0.0,-6.365,-6.3657,-6.4031,-6.4734,-6.487,-6.4985,-6.5047,-6.5213,-6.5321,-6.5314,-6.4883,-6.4704,-6.4704,-6.4704,-6.4704,-6.4704,-6.4704,-6.46,-6.4533,-6.4651,-6.4552,-6.4294,-6.4172,-6.3792,0.0,-6.3002,-6.2654,-6.2381,-6.2328,-6.2765,-6.3311,-6.351,-6.402,-6.4713,-6.5551,-6.5842,-6.6134,-6.6733,-6.6931,-6.7019,-6.7097,-6.6162,-6.5359,-6.5291,-6.4056,-6.3166,-6.3274,-6.2692,-6.2546,-6.3202,-6.3274,-6.351,-6.3984,-6.3474,-6.3073,-6.2927,-6.2308,-6.2308,-6.3109,-6.3765,-6.4548,-6.535,-6.6663,-6.7449,-6.7595,-6.9055,-7.015,-7.0784,-6.8684,-6.781,0.0,0.0,0.0,0.0,0.0,0.0,0.0,0.0,0.0,0.0,0.0,-5.1062,-5.3157,0.0,-5.652,-5.8234,-5.9216,-5.989,-6.036,-6.0408,-6.0408,-6.0408,-6.0408,-6.0408,-6.0408,-6.0408,-6.0571,-6.0971,-6.101,-6.1191,-6.1631,-6.1631,-6.1631,-6.1631,-6.2041,-6.2462,-6.2853,-6.3291,-6.3711,-6.4054,-6.4054,-6.4245,-6.4657,-6.4657,-6.4886,-6.5299,-6.5314,-6.5314,-6.5337,-6.5352,-6.5383,-6.5413,-6.5321,-6.5258,-6.5264,-6.5264,-6.5264,-6.5264,-6.5264,-6.5161,-6.5095,-6.4993,-6.4781,-6.4444,-6.4128,-6.3749,-6.3336,-6.3002,-6.2998,-6.3069,-6.3017,-6.36,-6.4293,-6.4694,-6.5095,-6.5606,-6.6408,-6.659,-6.67,-6.7137,-6.7154,-6.7097,-6.721,-6.6769,-6.6313,-6.5969,-6.4876,-6.413,-6.4184,-6.3855,-6.3746,-6.4147,-6.4184,-6.4329,-6.4731,-6.4439,-6.4402,-6.484,-6.4512,-6.4803,-6.6007,-6.6555,-6.7195,-6.798,-6.9262,-7.0104,-7.047,-7.1677,-7.2665,-7.3433,-7.2226,-7.1619,0.0,0.0,0.0,0.0,0.0,0.0,0.0,-4.8375,-4.9509,-5.1029,-5.2605,-5.4199,-5.5912,-5.7267,-5.8412,-5.9224,-5.995,-6.0408,-6.0408,-6.0408,-6.0408,-6.0408,-6.0408,-6.0408,-6.0408,-6.0523,-6.0886,-6.156,-6.1751,-6.2162,-6.2862,-6.2901,-6.2901,-6.2901,-6.3053,-6.3473,-6.4169,-6.439,-6.4772,-6.5413,-6.5413,-6.5413,-6.5413,-6.5413,-6.5413,-6.5413,-6.5413,-6.5413,-6.5413,-6.5413,-6.5413,-6.5413,-6.5413,-6.5383,-6.5321,-6.529,-6.529,-6.529,-6.5258,-6.5194,-6.5133,-6.4888,-6.4596,-6.4287,-6.3963,-6.3654,-6.3326,-6.3088,-6.3489,-6.3847,-6.3925,-6.4546,-6.5277,-6.5934,-6.6226,-6.6519,-6.7176,-6.7322,-6.7322,-6.7322,-6.7266,-6.7266,-6.7266,-6.7266,-6.7047,-6.6391,-6.5588,-6.5077,-6.5131,-6.4984,-6.4948,-6.5131,-6.5131,-6.5204,-6.535,-6.5496,-6.5898,-6.6592,-6.6774,-6.7468,-6.8747,-6.9043,-6.9575,-7.0381,-7.1301,-7.2165,-7.2973,-7.378,-7.4515,-7.5139,-7.5285,-7.5055,-4.6278,-4.7548,-4.8702,-4.8817,-4.9471,-5.0183,0.0,-5.1491,-5.2897,-5.3803,-5.5287,-5.6942,-5.85,-5.8922,-5.9338,-6.0102,-6.0332,-6.0408,-6.0408,-6.0408,-6.0408,-6.0408,-6.0408,-6.0408,-6.0408,-6.1067,-6.1497,-6.1582,-6.2345,-6.2773,-6.2917,-6.2917,-6.2917,-6.2917,-6.3673,-6.4092,-6.4207,-6.4886,-6.5299,-6.5413,-6.5413,-6.5413,-6.5413,-6.5413,-6.5413,-6.5413,-6.5413,-6.5413,-6.5413,-6.5413,-6.5413,-6.5413,-6.5413,-6.5413,-6.5383,-6.5321,-6.529,-6.5258,-6.5128,-6.4993,-6.4888,-6.4632,-6.4328,-6.4083,-6.3792,-6.3519,-6.3379,-6.3886,-6.403,-6.4237,-6.4919,-6.5689,-6.6313,-6.6423,-6.6973,-6.7523,-6.7596,-6.7633,-6.7633,-6.7633,-6.7524,-6.7524,-6.7633,-6.7524,-6.747,-6.736,-6.6628,-6.6079,-6.6313,-6.5689,-6.5506,-6.6203,-6.6313,-6.657,-6.7303,-6.8037,-6.8477,-6.8587,-6.9247,-6.9724,-6.9907,-7.0604,-7.1374,-7.2202,-7.301,-7.3817,-7.4625,-7.5432,-7.5873,-7.5983,-7.6717,-7.6216,-4.7355,-4.8856,-5.0279,-5.0741,-5.1876,-5.3166,-5.4128,-5.4901,-5.5768,-5.7079,-5.787,-5.8715,-5.9864,-6.0008,-6.0064,-6.0408,-6.0408,-6.0408,-6.0408,-6.0408,-6.0408,-6.0408,-6.0408,-6.0408,-6.0408,-6.1144,-6.1802,-6.2298,-6.3176,-6.3863,-6.4322,-6.4322,-6.4322,-6.4322,-6.4696,-6.4886,-6.4886,-6.5222,-6.5413,-6.5413,-6.5413,-6.5413,-6.5413,-6.5413,-6.5413,-6.5413,-6.5413,-6.5413,-6.5413,-6.5413,-6.5413,-6.5413,-6.5413,-6.5383,-6.5321,-6.529,-6.5258,-6.5155,-6.492,-6.4743,-6.4558,-6.4249,-6.3963,-6.3705,-6.3519,-6.3574,-6.3825,-6.4044,-6.4802,-6.5558,-6.5925,-6.6586,-6.7173,-6.7173,-6.7467,-6.7687,-6.7687,-6.7687,-6.7687,-6.7687,-6.7633,-6.7633,-6.7687,-6.7633,-6.7633,-6.7633,-6.7286,-6.712,-6.7173,-6.688,-6.6843,-6.7136,-6.7173,-6.7504,-6.8311,-6.8715,-6.9302,-7.0257,-7.0624,-7.1027,-7.1468,-7.1835,-7.2386,-7.3193,-7.4001,-7.4808,-7.5616,-7.6423,-7.6827,-7.6827,-7.7157,-7.6974,-4.8817,-5.0433,-5.1933,-5.2741,-5.4282,-5.5882,-5.7054,-5.752,-5.8042,-5.9254,-5.9656,-5.9964,-6.0589,-6.0597,-6.0518,-6.0512,-6.0446,-6.0408,-6.0408,-6.0408,-6.0408,-6.0408,-6.0408,-6.0408,-6.0408,-6.1335,-6.2213,-6.2824,-6.3894,-6.4772,-6.5375,-6.5413,-6.5413,-6.5413,-6.5413,-6.5413,-6.5413,-6.5413,-6.5413,-6.5413,-6.5413,-6.5413,-6.5413,-6.5413,-6.5413,-6.5383,-6.5383,-6.5352,-6.5352,-6.5352,-6.5352,-6.539,-6.5581,-6.5633,-6.5574,-6.577,-6.5589,-6.5259,-6.4973,-6.4745,-6.4547,-6.4171,-6.3952,-6.3725,-6.3527,-6.3972,-6.4522,-6.4728,-6.5595,-6.6549,-6.6769,-6.7247,-6.7687,-6.7687,-6.7871,-6.8017,-6.8017,-6.8201,-6.8348,-6.8348,-6.8348,-6.8348,-6.8348,-6.8348,-6.8348,-6.8348,-6.8348,-6.8201,-6.776,-6.7687,-6.7687,-6.7687,-6.7907,-6.8274,-6.8862,-6.9302,-7.0073,-7.1248,-7.1541,-7.1908,-7.2496,-7.2716,-7.3193,-7.4001,-7.4808,-7.5652,-7.6423,-7.7047,-7.7304,-7.7304,-7.7304,-7.7304,-5.1125,-5.3049,-5.4587,-5.536,-5.69,-5.8209,-5.8231,-5.8869,-5.9447,-5.9511,-6.0165,-6.0742,-6.0704,-6.0627,-6.057,-6.0502,-6.0446,-6.0408,-6.0408,-6.0408,-6.0408,-6.0408,-6.0408,-6.0408,-6.0408,-6.1898,-6.2892,-6.2892,-6.442,-6.5375,-6.5413,-6.5413,-6.5413,-6.5413,-6.5413,-6.5413,-6.5413,-6.5413,-6.5413,-6.5413,-6.5413,-6.5413,-6.5413,-6.5413,-6.5383,-6.529,-6.529,-6.5296,-6.5232,-6.5232,-6.5232,-6.5308,-6.6074,-6.6273,-6.6246,-6.6899,-6.6598,-6.5804,-6.5411,-6.516,-6.503,-6.4707,-6.4472,-6.4376,-6.423,-6.4669,-6.5448,-6.6219,-6.6476,-6.6659,-6.7467,-6.765,-6.7687,-6.7687,-6.8311,-6.8862,-6.8862,-6.9486,-7.0036,-7.0036,-7.0036,-7.0036,-7.0036,-7.0036,-7.0036,-7.0036,-7.0036,-6.9449,-6.7907,-6.7687,-6.7687,-6.7687,-6.8385,-6.8862,-6.8898,-7.033,-7.1248,-7.1321,-7.2055,-7.2459,-7.2496,-7.323,-7.4037,-7.4845,-7.5652,-7.646,-7.7268,-7.7304,-7.7304,-7.7304,-7.7304,-7.7304,-5.1202,-5.3184,-5.4821,-5.6207,-5.7846,-5.9232,-5.9826,-6.0173,-6.0188,-5.9604,-5.9719,-5.9758,-5.9196,-5.9465,-5.9777,-5.971,-6.0141,-6.0446,-6.0408,-6.0408,-6.0408,-6.0408,-6.0408,-6.0408,-6.0408,-6.1402,-6.228,-6.2853,-6.3962,-6.484,-6.5375,-6.5413,-6.5413,-6.5413,-6.5413,-6.5413,-6.5413,-6.5413,-6.5413,-6.5413,-6.5987,-6.6254,-6.6292,-6.6765,-6.7,-6.6968,-6.6864,-6.6493,-6.5998,-6.5998,-6.5622,-6.5137,-6.5904,-6.6065,-6.6031,-6.6551,-6.6833,-6.6812,-6.6157,-6.5663,-6.543,-6.5263,-6.5114,-6.4963,-6.4912,-6.55,-6.6145,-6.6402,-6.688,-6.7357,-6.7614,-6.7687,-6.7687,-6.7687,-6.8311,-6.8898,-6.8898,-6.9522,-7.011,-7.011,-7.011,-7.011,-7.011,-7.011,-7.011,-7.011,-7.011,-6.9706,-6.8641,-6.8495,-6.8495,-6.8495,-6.8752,-6.9339,-7.0403,-7.0991,-7.1541,-7.2055,-7.2349,-7.2496,-7.2496,-7.3266,-7.4074,-7.4882,-7.5689,-7.6497,-7.7304,-7.7304,-7.7304,-7.7304,-7.7304,-7.7304,-5.1664,-5.3859,-5.5728,-5.7114,-5.8732,-6.0118,-6.0689,-6.055,-6.0181,-5.9642,-5.9027,-5.855,-5.8335,-5.8412,-5.8673,-5.9243,-5.9737,-6.0102,-6.0387,-6.0398,-6.0408,-6.0408,-6.0408,-6.0485,-6.079,-6.1287,-6.1975,-6.2853,-6.3694,-6.4535,-6.5375,-6.5413,-6.5413,-6.5413,-6.5413,-6.5413,-6.5413,-6.5413,-6.5413,-6.5413,-6.5956,-6.6345,-6.665,-6.7088,-6.744,-6.7639,-6.7604,-6.7192,-6.6666,-6.6592,-6.6179,-6.5652,-6.637,-6.6553,-6.6462,-6.6948,-6.7393,-6.754,-6.6675,-6.6271,-6.5975,-6.586,-6.5794,-6.5742,-6.5742,-6.6292,-6.6916,-6.6916,-6.7283,-6.7687,-6.7687,-6.7687,-6.776,-6.8054,-6.8752,-6.9412,-6.9706,-7.0403,-7.0954,-7.0954,-7.0954,-7.0954,-7.0954,-7.0954,-7.0954,-7.0954,-7.0954,-7.055,-6.9486,-6.9339,-6.9339,-6.9339,-6.9596,-7.0183,-7.1211,-7.1578,-7.1945,-7.2459,-7.2496,-7.2642,-7.2936,-7.3707,-7.4515,-7.5322,-7.613,-7.679,-7.7304,-7.7304,-7.7304,-7.7304,-7.7304,-7.7304,-5.2569,-5.5091,-5.723,-5.8077,-5.9518,-6.0742,-6.0742,-6.0027,-5.935,-5.9311,-5.8011,-5.7131,-5.7944,-5.7422,-5.7379,-5.9065,-5.9268,-5.9491,-6.0391,-6.0425,-6.0408,-6.0408,-6.0446,-6.0752,-6.1516,-6.1631,-6.2051,-6.2892,-6.3732,-6.4535,-6.5337,-6.5413,-6.5413,-6.5413,-6.5413,-6.5413,-6.5413,-6.5413,-6.5413,-6.5413,-6.5359,-6.5785,-6.6554,-6.6493,-6.685,-6.7542,-6.7505,-6.7354,-6.7122,-6.6965,-6.6845,-6.6758,-6.7417,-6.7539,-6.7459,-6.8097,-6.8235,-6.7959,-6.7133,-6.6824,-6.6758,-6.6602,-6.6549,-6.6549,-6.6549,-6.71,-6.7687,-6.7687,-6.7687,-6.7687,-6.7687,-6.7724,-6.7944,-6.8715,-6.9559,-7.0367,-7.1138,-7.1945,-7.2496,-7.2496,-7.2496,-7.2496,-7.2496,-7.2496,-7.2496,-7.2496,-7.2496,-7.1945,-7.0367,-7.0146,-7.0146,-7.0146,-7.0844,-7.1321,-7.1358,-7.2055,-7.2496,-7.2496,-7.2496,-7.2863,-7.367,-7.4478,-7.5285,-7.6093,-7.69,-7.7304,-7.7304,-7.7304,-7.7304,-7.7304,-7.7304,-7.7304,-5.3492,-5.5555,-5.7235,-5.806,-5.9072,-5.9835,-5.9835,-5.8673,-5.7443,-5.6797,-5.5857,-5.5224,-5.5421,-5.5766,-5.6549,-5.8219,-5.8922,-5.9561,-6.0365,-6.0425,-6.0408,-6.0408,-6.0943,-6.1363,-6.1593,-6.2204,-6.293,-6.3809,-6.4076,-6.4505,-6.5283,-6.5321,-6.529,-6.5226,-6.529,-6.5321,-6.5321,-6.5383,-6.5413,-6.5413,-6.5932,-6.6592,-6.733,-6.7728,-6.8262,-6.8977,-6.8816,-6.8316,-6.771,-6.7546,-6.708,-6.6462,-6.7058,-6.7253,-6.7172,-6.7825,-6.7967,-6.7915,-6.7589,-6.7463,-6.7447,-6.7393,-6.7393,-6.7393,-6.7393,-6.754,-6.7687,-6.7687,-6.7687,-6.7687,-6.7687,-6.8128,-6.8641,-6.8862,-6.9963,-7.1064,-7.1284,-7.1945,-7.2496,-7.2496,-7.2496,-7.2496,-7.2496,-7.2496,-7.2496,-7.2496,-7.2496,-7.2129,-7.1138,-7.0991,-7.0991,-7.0991,-7.1211,-7.1541,-7.2165,-7.2386,-7.2496,-7.2496,-7.2496,-7.2863,-7.367,-7.4478,-7.5285,-7.6093,-7.69,-7.7304,-7.7304,-7.7304,-7.7304,-7.7304,-7.7304,-7.7304,-5.3995,-5.571,-5.7117,-5.761,-5.8373,-5.885,-5.8511,-5.712,-5.5638,-5.4762,-5.3664,-5.2933,-5.3282,-5.4031,-5.5297,-5.7335,-5.827,-5.9166,-6.0379,-6.0491,-6.0523,-6.0867,-6.1325,-6.1898,-6.2662,-6.3159,-6.3809,-6.4589,-6.4322,-6.4474,-6.5252,-6.5258,-6.5264,-6.5199,-6.5296,-6.529,-6.5352,-6.5383,-6.5383,-6.5352,-6.6026,-6.673,-6.7425,-6.7996,-6.8628,-6.9294,-6.9122,-6.8728,-6.8227,-6.8008,-6.7607,-6.7131,-6.7383,-6.7418,-6.734,-6.7663,-6.7847,-6.7794,-6.7741,-6.7687,-6.7687,-6.7687,-6.7687,-6.7687,-6.7687,-6.7687,-6.7687,-6.7687,-6.7687,-6.7687,-6.7687,-6.8311,-6.9009,-6.9339,-7.0403,-7.1431,-7.1762,-7.2202,-7.2496,-7.2496,-7.2496,-7.2496,-7.2496,-7.2496,-7.2496,-7.2496,-7.2496,-7.2349,-7.1872,-7.1835,-7.1835,-7.1835,-7.1835,-7.2018,-7.2459,-7.2496,-7.2496,-7.2496,-7.2826,-7.3377,-7.4184,-7.4992,-7.5836,-7.6607,-7.7084,-7.7304,-7.7304,-7.7304,-7.7304,-7.7304,-7.7304,-7.7304,-5.4419,-5.5805,-5.6994,-5.7021,-5.7482,-5.7735,-5.6879,-5.528,-5.3741,-5.2897,-5.1453,-5.0645,-5.1588,-5.2374,-5.3716,-5.639,-5.7465,-5.8515,-6.0176,-6.0414,-6.0676,-6.1516,-6.1707,-6.2395,-6.4038,-6.4305,-6.4619,-6.5252,-6.4603,-6.4457,-6.522,-6.5232,-6.5161,-6.5161,-6.5226,-6.529,-6.5383,-6.5383,-6.5352,-6.5328,-6.5859,-6.6518,-6.7203,-6.7758,-6.8334,-6.8945,-6.8763,-6.867,-6.8565,-6.8321,-6.8171,-6.8018,-6.7952,-6.7794,-6.7687,-6.7687,-6.7687,-6.7687,-6.7687,-6.7687,-6.7687,-6.7687,-6.7687,-6.7687,-6.7687,-6.7687,-6.7687,-6.7687,-6.7687,-6.7687,-6.7687,-6.8385,-6.9229,-6.9926,-7.0807,-7.1651,-7.2349,-7.2496,-7.2496,-7.2496,-7.2496,-7.2496,-7.2496,-7.2496,-7.2496,-7.2496,-7.2496,-7.2496,-7.2496,-7.2496,-7.2496,-7.2496,-7.2496,-7.2496,-7.2496,-7.2606,-7.2679,-7.2679,-7.3413,-7.4221,-7.5028,-7.5726,-7.6497,-7.7304,-7.7304,-7.7304,-7.7304,-7.7304,-7.7304,-7.7304,-7.7304,-7.7304,-5.5283,-5.6246,-5.7016,-5.6994,-5.6549,-5.5912,-5.5105,-5.3087,-5.1106,-5.0218,-4.9255,-4.9026,-5.0606,-5.101,-5.2202,-5.5395,-5.6552,-5.7608,-5.9294,-6.0032,-6.0676,-6.1516,-6.2242,-6.3083,-6.4076,-6.4802,-6.523,-6.529,-6.5112,-6.5009,-6.5057,-6.5023,-6.5023,-6.5023,-6.5061,-6.5161,-6.5321,-6.5258,-6.5264,-6.5328,-6.5755,-6.6333,-6.7049,-6.7379,-6.7924,-6.8565,-6.8321,-6.8222,-6.8171,-6.8018,-6.7952,-6.7952,-6.7794,-6.7741,-6.7687,-6.7687,-6.7687,-6.7687,-6.7687,-6.7687,-6.7687,-6.7687,-6.7687,-6.7687,-6.7687,-6.7687,-6.7687,-6.7687,-6.7687,-6.7687,-6.7687,-6.8788,-6.9926,-7.0073,-7.1211,-7.2349,-7.2459,-7.2496,-7.2496,-7.2496,-7.2496,-7.2496,-7.2496,-7.2496,-7.2496,-7.2496,-7.2496,-7.2496,-7.2496,-7.2496,-7.2496,-7.2496,-7.2496,-7.2496,-7.2496,-7.312,-7.3487,-7.3487,-7.4258,-7.5065,-7.5873,-7.6019,-7.6497,-7.7304,-7.7304,-7.7304,-7.7304,-7.7304,-7.7304,-7.7304,-7.7304,-7.7304,-5.5609,-5.6032,-5.6302,-5.6302,-5.5703,-5.472,-5.3433,-5.1549,-4.9661,-4.8351,-4.7773,-4.7853,-4.9106,-5.0067,-5.1644,-5.4562,-5.603,-5.7378,-5.9039,-6.0272,-6.1325,-6.2166,-6.3045,-6.3923,-6.4726,-6.5154,-6.5321,-6.5226,-6.5161,-6.5061,-6.4989,-6.4993,-6.4993,-6.4989,-6.4989,-6.5095,-6.5264,-6.5232,-6.5356,-6.56,-6.6107,-6.6663,-6.7235,-6.7691,-6.8,-6.8272,-6.807,-6.8004,-6.8004,-6.7847,-6.7794,-6.7794,-6.7741,-6.7687,-6.7687,-6.7687,-6.7687,-6.7687,-6.7687,-6.7687,-6.7687,-6.7687,-6.7687,-6.7687,-6.7687,-6.7687,-6.7687,-6.7687,-6.7687,-6.7797,-6.8201,-6.9192,-7.022,-7.0624,-7.1651,-7.2496,-7.2496,-7.2496,-7.2496,-7.2496,-7.2496,-7.2496,-7.2496,-7.2496,-7.2496,-7.2496,-7.2496,-7.2496,-7.2496,-7.2496,-7.2496,-7.2496,-7.2496,-7.2679,-7.3083,-7.3487,-7.3891,-7.4294,-7.5102,-7.5689,-7.6093,-7.6497,-7.6937,-7.7304,-7.7304,-7.7304,-7.7304,-7.7304,-7.7304,-7.7304,-7.7304,-7.7304,-5.5665,-5.5703,-5.5703,-5.5703,-5.4951,-5.3759,-5.203,-5.0354,-4.8638,-4.6985,-4.6586,-4.6857,-4.7665,-4.9067,-5.0873,-5.3207,-5.504,-5.6816,-5.8438,-6.0043,-6.1516,-6.2739,-6.3503,-6.4305,-6.5299,-6.5352,-6.5258,-6.5161,-6.5027,-6.492,-6.4993,-6.4924,-6.4888,-6.4993,-6.4955,-6.5027,-6.5128,-6.5095,-6.5262,-6.5615,-6.6325,-6.6855,-6.7161,-6.7877,-6.8121,-6.8018,-6.7952,-6.7847,-6.7847,-6.7741,-6.7687,-6.7687,-6.7687,-6.7687,-6.7687,-6.7687,-6.7687,-6.7687,-6.7687,-6.7687,-6.7687,-6.7687,-6.7687,-6.7687,-6.7687,-6.7687,-6.7687,-6.7687,-6.7687,-6.7871,-6.8678,-6.9486,-7.033,-7.1321,-7.2055,-7.2496,-7.2496,-7.2496,-7.2496,-7.2496,-7.2496,-7.2496,-7.2496,-7.2496,-7.2496,-7.2496,-7.2496,-7.2496,-7.2496,-7.2496,-7.2496,-7.2496,-7.2496,-7.2826,-7.3634,-7.3854,-7.4294,-7.5139,-7.5909,-7.635,-7.635,-7.6974,-7.7304,-7.7304,-7.7304,-7.7304,-7.7304,-7.7304,-7.7304,-7.7304,-7.7304,-7.7304,-5.5511,-5.5703,-5.5703,-5.5703,-5.4507,-5.2871,-5.1202,-4.9489,-4.7735,-4.6065,-4.5688,-4.5896,-4.6743,-4.7662,-4.8809,-5.0577,-5.287,-5.5006,-5.669,-5.8322,-6.0217,-6.2624,-6.2968,-6.3656,-6.5261,-6.5352,-6.5226,-6.5023,-6.4781,-6.4708,-6.4888,-6.4779,-6.4779,-6.4888,-6.4779,-6.4815,-6.4989,-6.485,-6.4707,-6.4634,-6.5774,-6.6247,-6.6165,-6.7368,-6.7952,-6.7899,-6.7794,-6.7741,-6.7741,-6.7687,-6.7687,-6.7687,-6.7687,-6.7687,-6.7687,-6.7687,-6.7687,-6.7687,-6.7687,-6.7687,-6.7687,-6.7687,-6.7687,-6.7687,-6.7687,-6.7687,-6.7687,-6.7687,-6.7687,-6.7871,-6.8678,-6.9486,-7.0477,-7.2018,-7.2459,-7.2496,-7.2496,-7.2496,-7.2496,-7.2496,-7.2496,-7.2496,-7.2496,-7.2496,-7.2496,-7.2496,-7.2496,-7.2496,-7.2496,-7.2496,-7.2496,-7.2496,-7.2496,-7.2826,-7.3634,-7.4368,-7.5139,-7.5946,-7.6754,-7.7194,-7.7194,-7.7268,-7.7304,-7.7304,-7.7304,-7.7304,-7.7304,-7.7304,-7.7304,-7.7304,-7.7304,-7.7304,-5.4874,-5.5318,-5.5588,-5.5105,-5.4084,-5.2641,-5.0413,-4.897,-4.7622,-4.588,-4.5476,-4.5706,-4.6569,-4.7451,-4.8541,-5.0167,-5.2556,-5.4752,-5.641,-5.8525,-6.0637,-6.2662,-6.335,-6.4123,-6.5238,-6.5258,-6.5095,-6.4781,-6.4596,-6.4482,-6.4482,-6.4558,-6.467,-6.4779,-6.4743,-6.4743,-6.4815,-6.5162,-6.5423,-6.5591,-6.6441,-6.6935,-6.7197,-6.7605,-6.7794,-6.7794,-6.7741,-6.7687,-6.7687,-6.7687,-6.7687,-6.7687,-6.7687,-6.7687,-6.7687,-6.7687,-6.7687,-6.7687,-6.7687,-6.7687,-6.7687,-6.7687,-6.7687,-6.7687,-6.7687,-6.7687,-6.7687,-6.7687,-6.7687,-6.7981,-6.9302,-7.0587,-7.1725,-7.2349,-7.2496,-7.2496,-7.2496,-7.2496,-7.2496,-7.2496,-7.2496,-7.2496,-7.2496,-7.2496,-7.2496,-7.2496,-7.2496,-7.2496,-7.2496,-7.2496,-7.2679,-7.3156,-7.323,-7.356,-7.4368,-7.5175,-7.5983,-7.679,-7.7157,-7.7304,-7.7304,-7.7304,-7.7304,-7.7304,-7.7304,-7.7304,-7.7304,-7.7304,-7.7304,-7.7304,-7.7304,-7.7304,-5.3968,-5.4507,-5.4836,-5.4276,-5.3469,-5.22,-4.9894,-4.8682,-4.7566,-4.5837,-4.5416,-4.5571,-4.6202,-4.7218,-4.8405,-4.9778,-5.215,-5.4459,-5.632,-5.8383,-6.0485,-6.2662,-6.3427,-6.4199,-6.5213,-6.5128,-6.4888,-6.4558,-6.4326,-6.4206,-6.4169,-6.4326,-6.4482,-6.467,-6.4633,-6.4747,-6.501,-6.5424,-6.5857,-6.6209,-6.6834,-6.7247,-6.7479,-6.763,-6.7687,-6.7687,-6.7687,-6.7687,-6.7687,-6.7687,-6.7687,-6.7687,-6.7687,-6.7687,-6.7687,-6.7687,-6.7687,-6.7687,-6.7687,-6.7687,-6.7687,-6.7687,-6.7687,-6.7687,-6.7687,-6.7687,-6.7687,-6.7687,-6.8017,-6.8715,-7.011,-7.1468,-7.2496,-7.2496,-7.2496,-7.2496,-7.2496,-7.2496,-7.2496,-7.2496,-7.2496,-7.2496,-7.2496,-7.2496,-7.2496,-7.2496,-7.2496,-7.2496,-7.2496,-7.2496,-7.2826,-7.3597,-7.3891,-7.4368,-7.5212,-7.5763,-7.646,-7.7268,-7.7304,-7.7304,-7.7304,-7.7304,-7.7304,-7.7304,-7.7304,-7.7304,-7.7304,-7.7304,-7.7304,-7.7304,-7.7304,-7.7304,-5.2756,-5.3217,-5.3217,-5.3217,-5.249,-5.1376,-4.9683,-4.8643,-4.7527,-4.576,-4.5413,-4.5413,-4.5413,-4.6729,-4.8105,-4.8945,-5.12,-5.3683,-5.6243,-5.7351,-5.9147,-6.251,-6.293,-6.355,-6.5137,-6.4813,-6.4483,-6.4405,-6.4037,-6.391,-6.4121,-6.4,-6.4125,-6.4596,-6.4444,-6.4858,-6.5804,-6.5486,-6.5559,-6.6017,-6.6544,-6.6699,-6.6549,-6.732,-6.7687,-6.7687,-6.7687,-6.7687,-6.7687,-6.7687,-6.7687,-6.7687,-6.7687,-6.7687,-6.7687,-6.7687,-6.7687,-6.7687,-6.7687,-6.7687,-6.7687,-6.7687,-6.7687,-6.7687,-6.7687,-6.7687,-6.7687,-6.7687,-6.8825,-7.0257,-7.1101,-7.1908,-7.2496,-7.2496,-7.2496,-7.2496,-7.2496,-7.2496,-7.2496,-7.2496,-7.2496,-7.2496,-7.2496,-7.2496,-7.2496,-7.2496,-7.2496,-7.2496,-7.2496,-7.2496,-7.2826,-7.3597,-7.4404,-7.5212,-7.6019,-7.6093,-7.646,-7.7268,-7.7304,-7.7304,-7.7304,-7.7304,-7.7304,-7.7304,-7.7304,-7.7304,-7.7304,-7.7304,-7.7304,-7.7304,-7.7304,-7.7304,-5.1336,-5.2279,-5.2992,-5.2395,-5.1548,-5.047,-4.8805,-4.7716,-4.6722,-4.5625,-4.5354,-4.5507,-4.6042,-4.7035,-4.8258,-4.9671,-5.204,-5.4371,-5.632,-5.8345,-6.0408,-6.2662,-6.3833,-6.4654,-6.5052,-6.4779,-6.4521,-6.4405,-6.4083,-6.391,-6.3958,-6.3915,-6.4083,-6.4444,-6.493,-6.5264,-6.5445,-6.6313,-6.6668,-6.6544,-6.7243,-6.7442,-6.732,-6.7577,-6.7687,-6.7687,-6.7687,-6.7687,-6.7687,-6.7687,-6.7687,-6.7687,-6.7687,-6.7687,-6.7687,-6.7687,-6.7687,-6.7687,-6.7687,-6.7687,-6.7687,-6.7687,-6.7687,-6.7687,-6.7687,-6.7687,-6.7797,-6.8385,-6.9265,-7.0293,-7.1101,-7.1908,-7.2496,-7.2496,-7.2496,-7.2496,-7.2496,-7.2496,-7.2496,-7.2496,-7.2496,-7.2496,-7.2496,-7.2496,-7.2496,-7.2496,-7.2496,-7.2496,-7.2496,-7.2973,-7.3634,-7.4441,-7.5249,-7.5836,-7.6093,-7.6607,-7.7047,-7.7304,-7.7304,-7.7304,-7.7304,-7.7304,-7.7304,-7.7304,-7.7304,-7.7304,-7.7304,-7.7304,-7.7304,-7.7304,-7.7304,-7.7304,-4.9509,-5.0394,-5.1048,-5.0486,-4.9946,-4.9175,-4.7799,-4.7019,-4.6313,-4.5528,-4.5583,-4.5927,-4.6424,-4.7723,-4.9213,-5.0588,-5.2919,-5.5174,-5.6855,-5.8994,-6.1134,-6.3062,-6.4419,-6.5128,-6.4989,-6.4707,-6.452,-6.4405,-6.4042,-6.391,-6.3958,-6.3873,-6.3958,-6.4206,-6.4953,-6.5427,-6.564,-6.663,-6.7197,-6.7229,-6.7642,-6.7794,-6.7687,-6.7687,-6.7687,-6.7687,-6.7687,-6.7687,0.0,-6.7687,-6.7687,-6.7687,-6.7687,-6.7687,-6.7687,-6.7687,-6.7687,-6.7687,-6.7687,-6.7687,-6.7687,-6.7687,-6.7687,-6.7687,-6.7687,-6.7907,-6.8311,-6.9119,-6.9926,-7.0734,-7.1541,-7.2129,-7.2496,-7.2496,-7.2496,-7.2496,-7.2496,-7.2496,-7.2496,-7.2496,-7.2496,-7.2496,-7.2496,-7.2496,-7.2496,-7.2496,-7.2496,-7.2496,-7.2496,-7.3193,-7.4001,-7.4808,-7.5616,-7.624,-7.6533,-7.7011,-7.7304,-7.7304,-7.7304,-7.7304,-7.7304,-7.7304,-7.7304,-7.7304,-7.7304,-7.7304,-7.7304,-7.7304,-7.7304,-7.7304,-7.7304,-7.7304,0.0,-4.7876,-4.8066,-4.8082,-4.8014,-4.777,-4.6887,-4.6602,0.0,-4.5489,-4.5965,-4.6517,-4.6577,-4.864,-5.0588,-5.1544,-5.3836,-5.6091,-5.7734,-5.9529,-6.1526,-6.3802,-6.4769,-6.5128,-6.5027,-6.4633,-6.4405,-6.4405,-6.4079,-6.391,-6.4083,-6.391,-6.3867,-6.399,-6.4731,-6.5464,-6.6156,-6.663,-6.7229,-6.7899,-6.7741,-6.7687,-6.7687,-6.7687,-6.7687,-6.7687,-6.7687,-6.7687,-6.7687,-6.7687,-6.7687,-6.7687,-6.7687,-6.7687,-6.7687,-6.7687,-6.7687,-6.7687,-6.7687,-6.7687,-6.7687,-6.7687,-6.7687,-6.7687,-6.776,-6.8311,-6.9082,-6.9853,-7.0697,-7.1505,-7.2312,-7.2496,-7.2496,-7.2496,-7.2496,-7.2496,-7.2496,-7.2496,-7.2496,-7.2496,-7.2496,-7.2496,-7.2496,-7.2496,-7.2496,-7.2496,-7.2496,-7.2496,-7.2496,-7.3193,-7.4001,-7.4735,-7.5579,-7.6423,-7.7157,-7.7304,-7.7304,-7.7304,-7.7304,-7.7304,-7.7304,-7.7304,-7.7304,-7.7304,-7.7304,-7.7304,-7.7304,-7.7304,-7.7304,-7.7304,-7.7304,-7.7304,-4.484,0.0,-4.8851,-4.8826,-4.8826,-4.8597,0.0,-4.7006,-4.6275,-4.5489,-4.5927,-4.6691,-4.7379,-4.9022,-5.0779,-5.227,-5.4639,-5.6893,-5.8574,-6.1402,-6.3741,-6.4807,-6.5079,-6.5133,-6.4924,-6.4708,-6.4558,-6.4558,-6.4324,-6.4203,-6.4244,-6.4121,-6.4214,-6.4718,-6.5357,-6.5652,-6.5742,-6.7022,-6.7679,-6.7741,-6.7741,-6.7687,-6.7687,-6.7687,-6.7687,-6.7687,-6.7687,-6.7687,-6.7687,-6.7687,-6.7687,-6.7687,-6.7687,-6.7687,-6.7687,-6.7687,-6.7687,-6.7687,-6.7687,-6.7687,-6.7687,-6.7687,-6.7687,-6.7797,-6.8421,-6.8752,-6.9082,-6.9853,-7.0697,-7.1505,-7.2312,-7.2496,-7.2496,-7.2496,-7.2496,-7.2496,-7.2496,-7.2496,-7.2496,-7.2496,-7.2496,-7.2496,-7.2496,-7.2496,-7.2496,-7.2496,-7.2496,-7.2496,-7.2496,-7.3193,-7.378,-7.3964,-7.5249,-7.6166,-7.6387,-7.6974,-7.7304,-7.7304,-7.7304,-7.7304,-7.7304,-7.7304,-7.7304,-7.7304,-7.7304,-7.7304,-7.7304,-7.7304,-7.7304,-7.7304,-7.7304,-7.7304,-4.4819,-4.6526,-4.7907,-4.7898,-4.8204,-4.8302,-4.7422,-4.7133,-4.6866,-4.6003,-4.6844,-4.7952,-4.8793,-5.0627,-5.2461,-5.3798,-5.6091,-5.8459,-6.0561,-6.2777,-6.4466,-6.515,-6.5264,-6.5161,-6.4958,-6.4743,-6.4596,-6.4596,-6.4443,-6.4324,-6.4284,-6.4083,-6.4289,-6.4882,-6.5371,-6.5767,-6.6086,-6.7274,-6.7794,-6.7687,-6.7687,-6.7687,-6.7687,-6.7687,-6.7687,-6.7687,-6.7687,-6.7687,-6.7687,-6.7687,-6.7687,-6.7687,-6.7687,-6.7687,-6.7687,-6.7687,-6.7687,-6.7687,-6.7687,-6.7687,-6.7687,-6.7687,-6.7687,-6.776,-6.8201,-6.8862,-6.9633,-7.044,-7.1248,-7.1945,-7.2386,-7.2496,-7.2496,-7.2496,-7.2496,-7.2496,-7.2496,-7.2496,-7.2496,-7.2496,-7.2496,-7.2496,-7.2496,-7.2496,-7.2496,-7.2496,-7.2496,-7.2496,-7.2496,-7.3193,-7.3707,-7.3707,-7.4808,-7.5689,-7.6056,-7.6497,-7.6937,-7.7304,-7.7304,-7.7304,-7.7304,-7.7304,-7.7304,-7.7304,-7.7304,-7.7304,-7.7304,-7.7304,-7.7304,-7.7304,-7.7304,-7.7304,-4.5722,-4.6505,-4.6729,-4.6885,-4.7533,-4.7938,-4.7083,-4.7449,-4.7739,-4.6882,-4.8067,-4.948,-5.0168,-5.2499,-5.46,-5.5441,-5.7886,-6.0485,-6.2777,-6.3847,-6.4619,-6.5213,-6.529,-6.5226,-6.5023,-6.485,-6.4707,-6.4634,-6.4482,-6.4405,-6.4284,-6.4083,-6.4203,-6.4744,-6.5263,-6.5874,-6.6633,-6.7337,-6.7687,-6.7687,-6.7687,-6.7687,-6.7687,-6.7687,-6.7687,-6.7687,-6.7687,-6.7687,-6.7687,-6.7687,-6.7687,-6.7687,-6.7687,-6.7687,-6.7687,-6.7687,-6.7687,-6.7687,-6.7687,-6.7687,-6.7687,-6.7687,-6.7687,-6.7724,-6.7834,-6.8898,-7.0257,-7.1101,-7.1872,-7.2496,-7.2496,-7.2496,-7.2496,-7.2496,-7.2496,-7.2496,-7.2496,-7.2496,-7.2496,-7.2496,-7.2496,-7.2496,-7.2496,-7.2496,-7.2496,-7.2496,-7.2496,-7.2496,-7.2496,-7.3083,-7.3523,-7.3523,-7.4258,-7.5065,-7.5836,-7.6019,-7.646,-7.7268,-7.7304,-7.7304,-7.7304,-7.7304,-7.7304,-7.7304,-7.7304,-7.7304,-7.7304,-7.7304,-7.7304,-7.7304,-7.7304,-7.7304,-4.5163,-4.6495,-4.7785,-4.8533,-4.932,-4.9686,-4.8869,-4.8815,-4.8662,-4.7799,-4.8945,-5.0168,-5.0283,-5.2996,-5.5479,-5.6282,-5.9759,-6.2701,-6.3847,-6.4688,-6.523,-6.529,-6.529,-6.5226,-6.5023,-6.4924,-6.4817,-6.4707,-6.467,-6.4558,-6.4324,-6.4162,-6.4246,-6.4604,-6.5214,-6.5823,-6.6528,-6.7283,-6.7687,-6.7687,-6.7687,-6.7687,-6.7687,-6.7687,-6.7687,-6.7687,-6.7687,-6.7687,-6.7687,-6.7687,-6.7687,-6.7687,-6.7687,-6.7687,-6.7687,-6.7687,-6.7687,-6.7687,-6.7687,-6.7687,-6.7687,-6.7687,-6.7687,-6.7834,-6.8495,-6.9376,-7.0257,-7.1101,-7.1872,-7.2496,-7.2496,-7.2496,-7.2496,-7.2496,-7.2496,-7.2496,-7.2496,-7.2496,-7.2496,-7.2496,-7.2496,-7.2496,-7.2496,-7.2496,-7.2496,-7.2496,-7.2496,-7.2496,-7.2496,-7.2606,-7.2679,-7.2679,-7.3413,-7.4221,-7.5028,-7.5726,-7.646,-7.7268,-7.7304,-7.7304,-7.7304,-7.7304,-7.7304,-7.7304,-7.7304,-7.7304,-7.7304,-7.7304,-7.7304,-7.7304,-7.7304,-7.7304,-4.6053,-4.7213,-4.8128,-4.9396,-5.003,-5.0206,-4.9824,-5.0092,-5.0321,-4.9939,-5.0818,-5.1926,-5.2881,-5.4715,-5.674,-5.8956,-6.1707,-6.3732,-6.4114,-6.4879,-6.5413,-6.5352,-6.5352,-6.529,-6.5128,-6.5027,-6.4886,-6.4707,-6.467,-6.4521,-6.4324,-6.4042,-6.4115,-6.4604,-6.4672,-6.5279,-6.6476,-6.688,-6.7247,-6.7687,-6.7687,-6.7687,-6.7687,-6.7687,-6.7687,-6.7687,-6.7687,-6.7687,-6.7687,-6.7687,-6.7687,-6.7687,-6.7687,-6.7687,-6.7687,-6.7687,-6.7687,-6.7687,-6.7687,-6.7687,-6.7687,-6.7687,-6.7687,-6.776,-6.8128,-6.9119,-7.0183,-7.055,-7.1541,-7.2496,-7.2496,-7.2496,-7.2496,-7.2496,-7.2496,-7.2496,-7.2496,-7.2496,-7.2496,-7.2496,-7.2496,-7.2496,-7.2496,-7.2496,-7.2496,-7.2496,-7.2496,-7.2496,-7.2496,-7.2496,-7.2496,-7.2496,-7.323,-7.4037,-7.4845,-7.5652,-7.646,-7.7268,-7.7304,-7.7304,-7.7304,-7.7304,-7.7304,-7.7304,-7.7304,-7.7304,-7.7304,-7.7304,-7.7304,-7.7304,-7.7304,-7.7304,-4.6923,-4.78,-4.8205,-4.9877,-5.0474,-5.0588,-5.0588,-5.1429,-5.2193,-5.2193,-5.2996,-5.4104,-5.5441,-5.6816,-5.8689,-6.144,-6.335,-6.4458,-6.4458,-6.4993,-6.5413,-6.5413,-6.5413,-6.5352,-6.5226,-6.5128,-6.4989,-6.4779,-6.4707,-6.4596,-6.4324,-6.392,-6.3915,-6.4261,-6.418,-6.4677,-6.5925,-6.6109,-6.6733,-6.7687,-6.7687,-6.7687,-6.7687,-6.7687,-6.7687,-6.7687,-6.7687,-6.7687,-6.7687,-6.7687,-6.7687,-6.7687,-6.7687,-6.7687,-6.7687,-6.7687,-6.7687,-6.7687,-6.7687,-6.7687,-6.7687,-6.7687,-6.7687,-6.7687,-6.7687,-6.8825,-7.011,-7.011,-7.1248,-7.2496,-7.2496,-7.2496,-7.2496,-7.2496,-7.2496,-7.2496,-7.2496,-7.2496,-7.2496,-7.2496,-7.2496,-7.2496,-7.2496,-7.2496,-7.2496,-7.2496,-7.2496,-7.2496,-7.2496,-7.2496,-7.2569,-7.2753,-7.334,-7.4111,-7.5102,-7.5909,-7.6644,-7.7268,-7.7304,-7.7304,-7.7304,-7.7304,-7.7304,-7.7304,-7.7304,-7.7304,-7.7304,-7.7304,-7.7304,-7.7304,-7.7304,-7.7304,-4.7076,-4.78,-4.8205,-4.9877,-5.0909,-5.152,-5.1505,-5.2766,-5.3913,-5.3913,-5.5212,-5.6358,-5.6473,-5.9109,-6.1593,-6.2662,-6.4229,-6.5299,-6.5299,-6.5375,-6.5413,-6.5413,-6.5413,-6.5383,-6.529,-6.5258,-6.5194,-6.4989,-6.4955,-6.4779,-6.4249,-6.4004,-6.3698,-6.3305,-6.3836,-6.4163,-6.4273,-6.5007,-6.6145,-6.7687,-6.7687,-6.7687,-6.7687,-6.7687,-6.7687,-6.7687,-6.7687,-6.7687,-6.7687,-6.7687,-6.7687,-6.7687,-6.7687,-6.7687,-6.7687,-6.7687,-6.7687,-6.7687,-6.7687,-6.7687,-6.7687,-6.7687,-6.7687,-6.7687,-6.7687,-6.8825,-7.011,-7.011,-7.1248,-7.2496,-7.2496,-7.2496,-7.2496,-7.2496,-7.2496,-7.2496,-7.2496,-7.2496,-7.2496,-7.2496,-7.2496,-7.2496,-7.2496,-7.2496,-7.2496,-7.2496,-7.2496,-7.2496,-7.2496,-7.2496,-7.2789,-7.3523,-7.367,-7.4331,-7.5873,-7.6754,-7.7268,-7.7304,-7.7304,-7.7304,-7.7304,-7.7304,-7.7304,-7.7304,-7.7304,-7.7304,-7.7304,-7.7304,-7.7304,-7.7304,-7.7304,-7.7304,-4.6969,-4.7808,-4.8327,-5.0527,-5.1735,-5.2499,-5.3034,-5.4065,-5.5212,-5.6243,-5.6969,-5.7542,-5.8077,-6.0026,-6.1898,-6.2777,-6.3885,-6.484,-6.5337,-6.5413,-6.5413,-6.5413,-6.5413,-6.5383,-6.529,-6.529,-6.5226,-6.5128,-6.4993,-6.4815,-6.4521,-6.4128,-6.3749,-6.3391,-6.3394,-6.364,-6.409,-6.4383,-6.5118,-6.6219,-6.6696,-6.721,-6.7687,-6.7687,-6.7687,-6.7687,-6.7687,-6.7687,-6.7687,-6.7687,-6.7687,-6.7687,-6.7687,-6.7687,-6.7687,-6.7687,-6.7687,-6.7687,-6.7687,-6.7687,-6.7687,-6.7687,-6.7687,-6.7687,-6.7687,-6.8825,-7.011,-7.011,-7.1248,-7.2496,-7.2496,-7.2496,-7.2496,-7.2496,-7.2496,-7.2496,-7.2496,-7.2496,-7.2496,-7.2496,-7.2496,-7.2496,-7.2496,-7.2496,-7.2496,-7.2496,-7.2496,-7.2496,-7.2496,-7.2496,-7.2606,-7.2936,-7.3854,-7.5102,-7.6717,-7.7157,-7.7304,-7.7304,-7.7304,-7.7304,-7.7304,-7.7304,-7.7304,-7.7304,-7.7304,-7.7304,-7.7304,-7.7304,-7.7304,-7.7304,-7.7304,-7.7304,-4.6953,-4.8006,-4.877,-5.1047,-5.2614,-5.3836,-5.4715,-5.5556,-5.6587,-5.8001,-5.8498,-5.8842,-5.9415,-6.0676,-6.1898,-6.2777,-6.3618,-6.4458,-6.5299,-6.5413,-6.5413,-6.5413,-6.5413,-6.5383,-6.5321,-6.5321,-6.529,-6.5264,-6.5095,-6.4924,-6.4707,-6.4289,-6.3878,-6.349,-6.3205,-6.3297,-6.3686,-6.3686,-6.409,-6.4934,-6.5485,-6.6145,-6.6953,-6.6953,-6.6953,-6.6953,-6.6953,-6.6953,-6.6953,-6.721,-6.7467,-6.7687,-6.7687,-6.7687,-6.7687,-6.7687,-6.7687,-6.7687,-6.7687,-6.7687,-6.7687,-6.7687,-6.7687,-6.7687,-6.7687,-6.8641,-6.9779,-7.0036,-7.1064,-7.2202,-7.2422,-7.2496,-7.2496,-7.2496,-7.2496,-7.2496,-7.2496,-7.2496,-7.2496,-7.2496,-7.2496,-7.2496,-7.2496,-7.2496,-7.2496,-7.2496,-7.2496,-7.2496,-7.2496,-7.2496,-7.2679,-7.3193,-7.4478,-7.5836,-7.7194,-7.7304,-7.7304,-7.7304,-7.7304,-7.7304,-7.7304,-7.7304,-7.7304,-7.7304,-7.7304,-7.7304,-7.7304,-7.7304,-7.7304,-7.7304,-7.7304,-7.7304,-4.7128,-4.8449,-4.9519,-5.12,-5.3531,-5.5632,-5.6434,-5.7275,-5.8154,-5.8956,-5.9797,-6.0408,-6.0408,-6.1058,-6.1898,-6.2777,-6.3618,-6.4458,-6.5299,-6.5413,-6.5413,-6.5413,-6.5413,-6.5413,-6.5413,-6.5413,-6.5383,-6.529,-6.529,-6.5128,-6.4743,-6.4483,-6.4128,-6.3535,-6.3336,-6.3051,-6.2805,-6.2805,-6.3246,-6.409,-6.409,-6.4494,-6.5301,-6.5301,-6.5301,-6.5301,-6.5301,-6.5301,-6.5375,-6.6182,-6.6953,-6.7687,-6.7687,-6.7687,-6.7687,-6.7687,-6.7687,-6.7687,-6.7687,-6.7687,-6.7687,-6.7687,-6.7687,-6.7687,-6.7687,-6.8238,-6.9082,-6.9853,-7.0697,-7.1505,-7.2312,-7.2496,-7.2496,-7.2496,-7.2496,-7.2496,-7.2496,-7.2496,-7.2496,-7.2496,-7.2496,-7.2496,-7.2496,-7.2496,-7.2496,-7.2496,-7.2496,-7.2496,-7.2496,-7.2496,-7.312,-7.4735,-7.5616,-7.6423,-7.7231,-7.7304,-7.7304,-7.7304,-7.7304,-7.7304,-7.7304,-7.7304,-7.7304,-7.7304,-7.7304,-7.7304,-7.7304,-7.7304,-7.7304,-7.7304,-7.7304,-7.7304,-4.728,-4.8869,-5.0474,-5.2805,-5.4409,-5.5938,-5.7925,-5.8574,-5.8994,-5.9835,-6.0217,-6.0561,-6.1134,-6.144,-6.2089,-6.3579,-6.4038,-6.4458,-6.5299,-6.5413,-6.5413,-6.5413,-6.5413,-6.5413,-6.5413,-6.5413,-6.5413,-6.5383,-6.5321,-6.5226,-6.5061,-6.4669,-6.4289,-6.3958,-6.3565,-6.3194,-6.2953,-6.2855,-6.2952,-6.3209,-6.3209,-6.3943,-6.5301,-6.5301,-6.5301,-6.5301,-6.5301,-6.5301,-6.5375,-6.6182,-6.6623,-6.6916,-6.7467,-6.7687,-6.7687,-6.7687,-6.7687,-6.7687,-6.7687,-6.7687,-6.7687,-6.7687,-6.7687,-6.7687,-6.7687,-6.8238,-6.9082,-6.9853,-7.0697,-7.1505,-7.2312,-7.2496,-7.2496,-7.2496,-7.2496,-7.2496,-7.2496,-7.2496,-7.2496,-7.2496,-7.2496,-7.2496,-7.2496,-7.2496,-7.2496,-7.2496,-7.2496,-7.2496,-7.2496,-7.2496,-7.2899,-7.3927,-7.4771,-7.5579,-7.6387,-7.6974,-7.7304,-7.7304,-7.7304,-7.7304,-7.7304,-7.7304,-7.7304,-7.7304,-7.7304,-7.7304,-7.7304,-7.7304,-7.7304,-7.7304,-7.7304,-7.7304,-4.8235,-4.9786,-5.1429,-5.3989,-5.5517,-5.6969,-5.9109,-5.9606,-5.9759,-6.0293,-6.0408,-6.0637,-6.144,-6.1593,-6.2166,-6.3923,-6.4191,-6.4458,-6.5299,-6.5413,-6.5413,-6.5413,-6.5413,-6.5413,-6.5413,-6.5413,-6.5413,-6.5413,-6.5352,-6.529,-6.5232,-6.485,-6.4482,-6.4083,-6.3736,-6.3336,-6.3002,-6.2855,-6.2805,-6.2805,-6.2805,-6.3356,-6.431,-6.431,-6.431,-6.431,-6.431,-6.4494,-6.4861,-6.5338,-6.5925,-6.6549,-6.7026,-6.7393,-6.7687,-6.7687,-6.7687,-6.7687,-6.7687,-6.7687,-6.7687,-6.7687,-6.7687,-6.7687,-6.7687,-6.8017,-6.8605,-6.9412,-7.022,-7.1027,-7.1835,-7.2275,-7.2496,-7.2496,-7.2496,-7.2496,-7.2496,-7.2496,-7.2496,-7.2496,-7.2496,-7.2496,-7.2496,-7.2496,-7.2496,-7.2496,-7.2496,-7.2496,-7.2496,-7.2496,-7.2826,-7.3597,-7.4147,-7.4771,-7.5542,-7.6387,-7.6827,-7.6827,-7.7157,-7.7304,-7.7304,-7.7304,-7.7304,-7.7304,-7.7304,-7.7304,-7.7304,-7.7304,-7.7304,-7.7304,-7.7304,-7.7304,-4.9557,-5.1009,-5.2422,-5.4906,-5.6816,-5.8536,-6.0026,-6.0408,-6.0408,-6.0408,-6.0408,-6.0637,-6.144,-6.1669,-6.2242,-6.3923,-6.4267,-6.4535,-6.5299,-6.5413,-6.5413,-6.5413,-6.5413,-6.5413,-6.5413,-6.5413,-6.5413,-6.5413,-6.5413,-6.5352,-6.5232,-6.4993,-6.4671,-6.4125,-6.3823,-6.3382,-6.3051,-6.2855,-6.2805,-6.2805,-6.2805,-6.2805,-6.2805,-6.2805,-6.2805,-6.2805,-6.2805,-6.3246,-6.398,-6.4053,-6.4934,-6.6292,-6.6439,-6.688,-6.7467,-6.754,-6.754,-6.7467,-6.7577,-6.7577,-6.7577,-6.765,-6.7687,-6.7687,-6.7687,-6.7687,-6.7871,-6.8678,-6.9449,-7.0183,-7.0991,-7.1798,-7.2386,-7.2386,-7.2459,-7.2496,-7.2496,-7.2496,-7.2496,-7.2496,-7.2496,-7.2496,-7.2496,-7.2496,-7.2496,-7.2496,-7.2496,-7.2496,-7.2496,-7.2496,-7.2789,-7.3487,-7.367,-7.4001,-7.4735,-7.5542,-7.5983,-7.5983,-7.6754,-7.7194,-7.7194,-7.7268,-7.7304,-7.7304,-7.7304,-7.7304,-7.7304,-7.7304,-7.7304,-7.7304,-7.7304,-7.7304,-4.9022,-5.1429,-5.4027,-5.5861,-5.8116,-5.995,-6.0293,-6.0408,-6.0408,-6.0408,-6.0408,-6.0637,-6.144,-6.2166,-6.2968,-6.4038,-6.4726,-6.5184,-6.5375,-6.5413,-6.5413,-6.5413,-6.5413,-6.5413,-6.5413,-6.5413,-6.5413,-6.5413,-6.5413,-6.5383,-6.5258,-6.5095,-6.4815,-6.4445,-6.392,-6.3565,-6.3289,-6.2953,-6.2805,-6.2805,-6.2805,-6.2805,-6.2805,-6.2805,-6.2805,-6.2805,-6.2805,-6.2915,-6.3135,-6.3796,-6.431,-6.4751,-6.5999,-6.6219,-6.5888,-6.6512,-6.6366,-6.5925,-6.6549,-6.6769,-6.6843,-6.7467,-6.7687,-6.7687,-6.7687,-6.7687,-6.7871,-6.8678,-6.9009,-6.9339,-7.0146,-7.0954,-7.1578,-7.1578,-7.2055,-7.2496,-7.2496,-7.2496,-7.2496,-7.2496,-7.2496,-7.2496,-7.2496,-7.2496,-7.2496,-7.2496,-7.2496,-7.2496,-7.2496,-7.2496,-7.2569,-7.2753,-7.3303,-7.378,-7.3927,-7.4698,-7.5175,-7.5175,-7.5909,-7.635,-7.635,-7.6974,-7.7304,-7.7304,-7.7304,-7.7304,-7.7304,-7.7304,-7.7304,-7.7304,-7.7304,-7.7304,-4.9824,-5.1849,-5.4065,-5.6587,-5.8803,-6.0408,-6.0408,-6.0408,-6.0408,-6.0408,-6.0408,-6.0637,-6.144,-6.1975,-6.2701,-6.4,-6.4535,-6.4955,-6.5337,-6.5413,-6.5413,-6.5413,-6.5413,-6.5413,-6.5413,-6.5413,-6.5413,-6.5413,-6.5413,-6.5383,-6.529,-6.5128,-6.485,-6.4521,-6.3967,-6.3572,-6.3382,-6.3002,-6.2805,-6.2805,-6.2805,-6.2805,-6.2805,-6.2805,-6.2805,-6.2805,-6.2805,-6.2805,-6.2842,-6.3282,-6.3723,-6.4163,-6.5007,-6.5338,-6.5375,-6.5778,-6.5668,-6.5375,-6.5778,-6.6182,-6.6549,-6.699,-6.7393,-6.7687,-6.7687,-6.7687,-6.7797,-6.8201,-6.8605,-6.9009,-6.9412,-7.011,-7.0734,-7.0734,-7.1651,-7.2496,-7.2496,-7.2496,-7.2496,-7.2496,-7.2496,-7.2496,-7.2496,-7.2496,-7.2496,-7.2496,-7.2496,-7.2496,-7.2496,-7.2496,-7.2496,-7.2496,-7.2899,-7.312,-7.312,-7.3854,-7.4331,-7.4331,-7.5102,-7.5542,-7.5542,-7.5946,-7.6533,-7.7304,-7.6937,-7.6754,-7.6717,-7.635,-7.6166,-7.6166,-7.6166,-7.6387,-5.0512,-5.2308,-5.418,-5.7313,-5.9262,-6.0408,-6.0408,-6.0408,-6.0408,-6.0408,-6.0408,-6.0599,-6.1287,-6.1516,-6.2051,-6.3503,-6.4,-6.442,-6.5108,-6.5299,-6.5413,-6.5413,-6.5413,-6.5413,-6.5413,-6.5413,-6.5413,-6.5413,-6.5413,-6.5383,-6.5321,-6.5161,-6.4886,-6.4558,-6.4046,-6.3698,-6.3465,-6.3051,-6.2805,-6.2805,-6.2805,-6.2805,-6.2805,-6.2805,-6.2805,-6.2805,-6.2805,-6.2805,-6.2805,-6.2805,-6.3209,-6.387,-6.4016,-6.442,-6.4897,-6.5044,-6.5007,-6.4897,-6.5044,-6.5521,-6.6109,-6.6256,-6.6843,-6.7467,-6.7467,-6.7577,-6.7687,-6.7687,-6.8164,-6.8678,-6.8678,-6.9302,-6.9889,-6.9889,-7.1027,-7.2092,-7.2092,-7.2092,-7.2129,-7.2275,-7.2422,-7.2496,-7.2496,-7.2496,-7.2496,-7.2496,-7.2496,-7.2496,-7.2496,-7.2496,-7.2496,-7.2496,-7.2496,-7.2496,-7.2496,-7.312,-7.3487,-7.3487,-7.4258,-7.4698,-7.4698,-7.4845,-7.5542,-7.6864,-7.624,-7.5909,-7.5909,-7.5212,-7.4918,-7.4918,-7.4918,-7.5285,-4.8907,-5.269,-5.6549,-5.8459,-5.9682,-6.0408,-6.0408,-6.0408,-6.0408,-6.0408,-6.0408,-6.0408,-6.0523,-6.1134,-6.1669,-6.1898,-6.3197,-6.4229,-6.4344,-6.4955,-6.5413,-6.5413,-6.5413,-6.5413,-6.5413,-6.5413,-6.5413,-6.5413,-6.5413,-6.5413,-6.5383,-6.5258,-6.5061,-6.4853,-6.4326,-6.3873,-6.3557,-6.3147,-6.2904,-6.2805,-6.2805,-6.2805,-6.2805,-6.2805,-6.2805,-6.2805,-6.2805,-6.2805,-6.2805,-6.2805,-6.2879,-6.3062,-6.3796,-6.3686,-6.3246,-6.398,-6.3796,-6.3246,-6.4016,-6.431,-6.453,-6.5228,-6.5999,-6.6659,-6.6659,-6.7136,-6.7687,-6.7687,-6.776,-6.7834,-6.7834,-6.8458,-6.9082,-6.9082,-6.9743,-7.0403,-7.0403,-7.0403,-7.0624,-7.1321,-7.2018,-7.2496,-7.2496,-7.2496,-7.2496,-7.2496,-7.2496,-7.2496,-7.2496,-7.2496,-7.2496,-7.2496,-7.2496,-7.2496,-7.2496,-7.2606,-7.2679,-7.2679,-7.3413,-7.3854,-7.3854,-7.4551,-7.5028,-7.5249,-7.5139,-7.5065,-7.5065,-7.4955,-7.4918,-7.4918,-7.4918,-7.4955,-4.906,-5.2766,-5.6205,-5.739,-5.8689,-5.9797,-6.0293,-6.0408,-6.0408,-6.0408,-6.0408,-6.0408,-6.0408,-6.0676,-6.1096,-6.1516,-6.2242,-6.2892,-6.3388,-6.4191,-6.4726,-6.4726,-6.5146,-6.5413,-6.5413,-6.5413,-6.5413,-6.5413,-6.5413,-6.5413,-6.5413,-6.5258,-6.5133,-6.4888,-6.4366,-6.3953,-6.3602,-6.3194,-6.2953,-6.2805,-6.2805,-6.2805,-6.2805,-6.2805,-6.2805,-6.2805,-6.2805,-6.2805,-6.2805,-6.2805,-6.2805,-6.2842,-6.3209,-6.3135,-6.2879,-6.3246,-6.3135,-6.2879,-6.3246,-6.3686,-6.4163,-6.4494,-6.5191,-6.5852,-6.5852,-6.6402,-6.7026,-6.7026,-6.7357,-6.7687,-6.7687,-6.7944,-6.8238,-6.8238,-6.8495,-6.8752,-6.8752,-6.9449,-7.033,-7.1138,-7.1211,-7.1431,-7.2349,-7.2129,-7.1982,-7.2422,-7.2496,-7.2496,-7.2496,-7.2496,-7.2496,-7.2496,-7.2496,-7.2496,-7.2496,-7.2496,-7.2496,-7.2496,-7.2826,-7.3046,-7.3046,-7.3377,-7.356,-7.356,-7.4001,-7.4221,-7.4221,-7.378,-7.356,-7.356,-7.356,-7.3817,-4.9137,-5.2155,-5.4715,-5.5976,-5.7542,-5.9033,-5.9873,-6.0217,-6.0408,-6.0408,-6.0408,-6.0408,-6.0408,-6.0408,-6.0599,-6.1211,-6.1478,-6.1822,-6.2471,-6.3312,-6.3847,-6.3847,-6.4573,-6.5108,-6.5108,-6.5261,-6.5413,-6.5413,-6.5413,-6.5413,-6.5413,-6.529,-6.5128,-6.4924,-6.4444,-6.4,-6.3647,-6.3194,-6.2904,-6.2805,-6.2805,-6.2805,-6.2805,-6.2805,-6.2805,-6.2805,-6.2805,-6.2805,-6.2805,-6.2805,-6.2805,-6.2805,-6.2805,-6.2805,-6.2805,-6.2805,-6.2805,-6.2805,-6.2805,-6.3246,-6.3759,-6.3759,-6.4347,-6.5007,-6.5007,-6.5558,-6.6256,-6.6439,-6.6916,-6.743,-6.765,-6.7687,-6.7687,-6.7687,-6.7687,-6.7687,-6.7687,-6.8788,-6.9963,-7.0587,-7.0367,-7.0477,-7.1688,-7.1394,-7.1211,-7.1798,-7.2055,-7.2202,-7.2202,-7.2386,-7.2496,-7.2496,-7.2496,-7.2496,-7.2496,-7.2496,-7.2496,-7.2496,-7.2496,-7.2496,-7.2496,-7.2496,-7.2496,-7.2496,-7.3083,-7.3377,-7.3377,-7.2789,-7.2496,-7.2496,-7.2496,-7.2826,-4.8449,-5.0436,-5.2384,-5.4868,-5.674,-5.8154,-5.8994,-5.9797,-6.0408,-6.0408,-6.0408,-6.0408,-6.0408,-6.0408,-6.0408,-6.0446,-6.1096,-6.1631,-6.1669,-6.2433,-6.2968,-6.2968,-6.3732,-6.4267,-6.4267,-6.4955,-6.5413,-6.5413,-6.5413,-6.5413,-6.5413,-6.5321,-6.5194,-6.4989,-6.4669,-6.4249,-6.3705,-6.3147,-6.2805,-6.2805,-6.2805,-6.2805,-6.2805,-6.2805,-6.2805,-6.2805,-6.2805,-6.2805,-6.2805,-6.2805,-6.2805,-6.2805,-6.2805,-6.2805,-6.2805,-6.2805,-6.2805,-6.2805,-6.2805,-6.2842,-6.2879,-6.2879,-6.3466,-6.4163,-6.4163,-6.4714,-6.5521,-6.6292,-6.6512,-6.6733,-6.7504,-6.7687,-6.7687,-6.7687,-6.7687,-6.7687,-6.7687,-6.8348,-6.8972,-6.9009,-6.9596,-7.011,-7.022,-7.0183,-7.0183,-7.022,-7.0881,-7.1358,-7.1358,-7.2055,-7.2496,-7.2496,-7.2496,-7.2496,-7.2496,-7.2496,-7.2496,-7.2496,-7.2496,-7.2496,-7.2496,-7.2496,-7.2496,-7.2496,-7.2532,-7.2569,-7.2569,-7.2532,-7.2496,-7.2496,-7.2496,-7.2532,-4.6385,-4.8678,-5.1123,-5.2614,-5.4639,-5.6664,-5.8039,-5.8956,-5.972,-6.0255,-6.0408,-6.0408,-6.0408,-6.0408,-6.0408,-6.0408,-6.0637,-6.0828,-6.0828,-6.1554,-6.2089,-6.2089,-6.2853,-6.3388,-6.3388,-6.3618,-6.3809,-6.3809,-6.3809,-6.4038,-6.4611,-6.452,-6.4622,-6.4989,-6.4669,-6.4172,-6.3519,-6.3051,-6.2805,-6.2805,-6.2805,-6.2805,-6.2805,-6.2805,-6.2805,-6.2805,-6.2805,-6.2805,-6.2805,-6.2805,-6.2805,-6.2805,-6.2805,-6.2805,-6.2805,-6.2805,-6.2805,-6.2805,-6.2805,-6.2805,-6.2805,-6.2805,-6.3025,-6.3282,-6.3282,-6.387,-6.4714,-6.5521,-6.6109,-6.6696,-6.7467,-6.7687,-6.7687,-6.7687,-6.7687,-6.7687,-6.7687,-6.7907,-6.8274,-6.8788,-6.8715,-6.8898,-6.9926,-6.9669,-6.9522,-7.0,-7.033,-7.0734,-7.1248,-7.1578,-7.1945,-7.2459,-7.2496,-7.2496,-7.2496,-7.2496,-7.2496,-7.2496,-7.2496,-7.2496,-7.2496,-7.2496,-7.2496,-7.2496,-7.2496,-7.2496,-7.2496,-7.2496,-7.2496,-7.2496,-7.2496,-7.2496,-4.5163,-4.7341,-4.9748,-5.0894,-5.3072,-5.5326,-5.674,-5.8116,-5.9262,-5.9835,-6.0179,-6.0408,-6.0408,-6.0408,-6.0408,-6.0408,-6.0408,-6.0408,-6.0408,-6.0867,-6.1211,-6.1211,-6.1936,-6.2471,-6.2471,-6.2739,-6.2892,-6.2892,-6.2892,-6.3159,-6.3732,-6.394,-6.435,-6.4989,-6.4595,-6.4087,-6.3519,-6.3099,-6.2855,-6.2805,-6.2805,-6.2805,-6.2805,-6.2805,-6.2805,-6.2805,-6.2805,-6.2805,-6.2805,-6.2805,-6.2805,-6.2805,-6.2805,-6.2805,-6.2805,-6.2805,-6.2805,-6.2805,-6.2805,-6.2805,-6.2805,-6.2805,-6.2805,-6.2805,-6.2805,-6.3429,-6.4273,-6.5081,-6.5888,-6.6696,-6.7467,-6.7687,-6.7687,-6.7687,-6.7687,-6.7687,-6.7687,-6.7687,-6.7834,-6.8385,-6.8054,-6.8017,-6.9119,-6.8862,-6.8678,-6.9192,-6.9522,-7.0,-7.0807,-7.1138,-7.1615,-7.2422,-7.2496,-7.2496,-7.2496,-7.2496,-7.2496,-7.2496,-7.2496,-7.2496,-7.2496,-7.2496,-7.2496,-7.2496,-7.2496,-7.2496,-7.2496,-7.2496,-7.2496,-7.2496,-7.2496,-7.2496,0.0,0.0,0.0,-4.9824,-5.2117,-5.4218,-5.5135,-5.7237,-5.8994,-5.9071,-5.9759,-6.037,-6.0408,-6.0408,-6.0408,-6.0408,-6.0408,-6.0408,-6.0408,-6.0408,-6.0408,-6.0408,-6.1096,-6.1554,-6.1554,-6.2319,-6.2853,-6.2853,-6.2853,-6.2853,-6.2853,-6.3694,-6.4413,-6.4951,-6.4405,-6.3958,-6.3705,-6.3205,-6.2953,-6.2805,-6.2805,-6.2805,-6.2805,-6.2805,-6.2805,-6.2805,-6.2805,-6.2805,-6.2805,-6.2805,-6.2805,-6.2805,-6.2805,-6.2805,-6.2805,-6.2805,-6.2805,-6.2805,-6.2805,-6.2805,-6.2805,-6.2805,-6.2805,-6.2805,-6.2805,-6.3429,-6.4273,-6.5081,-6.5888,-6.6696,-6.7467,-6.7687,-6.7687,-6.7687,-6.7687,-6.7687,-6.7687,-6.7687,-6.7687,-6.7687,-6.7687,-6.7687,-6.7687,-6.7687,-6.7687,-6.7687,-6.8348,-6.9155,-7.0,-7.077,-7.1578,-7.2422,-7.2496,-7.2496,-7.2496,-7.2496,-7.2496,-7.2496,-7.2496,-7.2496,-7.2496,-7.2496,-7.2496,-7.2496,-7.2496,-7.2496,-7.2496,-7.2496,-7.2496,-7.2496,-7.2496,-7.2496,-4.4093,0.0,0.0,0.0,0.0,0.0,-5.3187,-5.5021,-5.6778,-5.7963,-5.888,-5.9644,-6.0255,-6.0408,-6.0408,-6.0408,-6.0408,-6.0408,-6.0408,-6.0408,-6.0408,-6.0408,-6.0599,-6.0714,-6.0714,-6.0943,-6.1096,-6.1096,-6.1096,-6.1363,-6.1936,-6.323,-6.3954,-6.3944,-6.4026,-6.3915,-6.3647,-6.3194,-6.2953,-6.2805,-6.2805,-6.2805,-6.2805,-6.2805,-6.2805,-6.2805,-6.2805,-6.2805,-6.2805,-6.2805,-6.2805,-6.2805,-6.2805,-6.2805,-6.2805,-6.2805,-6.2805,-6.2805,-6.2805,-6.2805,-6.2805,-6.2805,-6.2805,-6.2805,-6.2805,-6.3429,-6.4273,-6.5081,-6.5888,-6.6696,-6.7467,-6.7687,-6.7687,-6.7687,-6.7687,-6.7687,-6.7687,-6.7687,-6.7687,-6.7687,-6.7687,-6.7687,-6.7687,-6.7687,-6.7687,-6.7687,-6.7871,-6.8531,-6.9926,-7.0293,-7.0954,-7.2349,-7.2496,-7.2496,-7.2496,-7.2496,-7.2496,-7.2496,-7.2496,-7.2496,-7.2496,-7.2496,-7.2496,-7.2496,-7.2496,-7.2496,-7.2496,-7.2496,-7.2496,-7.2496,-7.2496,-7.2496,-4.3864,-4.5239,-4.6729,-4.757,0.0,0.0,-5.2002,-5.3645,-5.525,-5.6587,-5.7504,-5.8307,-5.9185,-5.9338,-5.9453,-5.9797,-5.9873,-5.9988,-6.0332,-6.0408,-6.0408,-6.0408,-6.0408,-6.0408,-6.0408,-6.0408,-6.0408,-6.0408,-6.0408,-6.0752,-6.1497,-6.2711,-6.3427,-6.353,-6.3914,-6.4,-6.3654,-6.2956,-6.2671,-6.2805,-6.2475,-6.2475,-6.2805,-6.2805,-6.2805,-6.2805,-6.2805,-6.2805,-6.2805,-6.2805,-6.2805,-6.2805,-6.2805,-6.2805,-6.2805,-6.2805,-6.2805,-6.2805,-6.2805,-6.2805,-6.2805,-6.2805,-6.2805,-6.2805,-6.2805,-6.3429,-6.4273,-6.5081,-6.6109,-6.71,-6.7577,-6.7687,-6.7687,-6.7687,-6.7687,-6.7687,-6.7687,-6.7687,-6.7687,-6.7687,-6.7687,-6.7687,-6.7687,-6.7687,-6.7687,-6.7687,-6.7687,-6.8274,-6.9889,-7.011,-7.0734,-7.2349,-7.2496,-7.2496,-7.2496,-7.2496,-7.2496,-7.2496,-7.2496,-7.2496,-7.2496,-7.2496,-7.2496,-7.2496,-7.2496,-7.2496,-7.2496,-7.2496,-7.2496,-7.2496,-7.2496,-7.2496,-4.4131,-4.5316,-4.6729,-4.757,-4.8984,0.0,-5.1276,-5.269,-5.4065,-5.4944,-5.5747,-5.6587,-5.7466,-5.7695,-5.8001,-5.8727,-5.8994,-5.9415,-6.0255,-6.0408,-6.0408,-6.0408,-6.0408,-6.0408,-6.0408,-6.0408,-6.0408,-6.0408,-6.0408,-6.0685,-6.1323,-6.2071,-6.2781,-6.3413,-6.3766,-6.3821,-6.355,-6.2419,-6.2056,-6.2548,-6.1814,-6.1887,-6.2695,-6.2695,-6.2732,-6.2805,-6.2805,-6.2805,-6.2805,-6.2805,-6.2805,-6.2805,-6.2805,-6.2805,-6.2805,-6.2805,-6.2805,-6.2805,-6.2805,-6.2805,-6.2805,-6.2805,-6.2805,-6.2805,-6.2805,-6.3429,-6.4273,-6.5191,-6.6476,-6.7577,-6.765,-6.7687,-6.7687,-6.7687,-6.7687,-6.7687,-6.7687,-6.7687,-6.7687,-6.7687,-6.7687,-6.7687,-6.7687,-6.7687,-6.7687,-6.7687,-6.7687,-6.8274,-6.9889,-7.011,-7.0734,-7.2349,-7.2496,-7.2496,-7.2496,-7.2496,-7.2496,-7.2496,-7.2496,-7.2496,-7.2496,-7.2496,-7.2496,-7.2496,-7.2496,-7.2496,-7.2496,-7.2496,-7.2496,-7.2496,-7.2496,-7.2496,-4.5048,-4.5774,-4.6729,-4.757,-4.8563,0.0,-5.0359,-5.1353,-5.2308,-5.3148,-5.3989,-5.4868,-5.5747,-5.6434,-5.6893,-5.7046,-5.823,-5.9415,-6.0255,-6.0408,-6.0408,-6.0408,-6.0408,-6.0408,-6.0408,-6.0408,-6.0408,-6.0408,-6.0408,-6.039,-6.0357,-6.1164,-6.1809,-6.222,-6.2144,-6.2234,-6.2509,-6.1422,-6.0856,-6.086,-6.0713,-6.108,-6.1814,-6.1814,-6.2181,-6.2805,-6.2805,-6.2805,-6.2805,-6.2805,-6.2805,-6.2805,-6.2805,-6.2805,-6.2805,-6.2805,-6.2805,-6.2805,-6.2805,-6.2805,-6.2805,-6.2805,-6.2805,-6.2805,-6.2805,-6.3429,-6.4383,-6.5852,-6.6476,-6.688,-6.7504,-6.7687,-6.7687,-6.7687,-6.7687,-6.7687,-6.7687,-6.7687,-6.7687,-6.7687,-6.7687,-6.7687,-6.7687,-6.7687,-6.7687,-6.7687,-6.7687,-6.8274,-6.9889,-7.011,-7.0734,-7.2349,-7.2496,-7.2496,-7.2496,-7.2496,-7.2496,-7.2496,-7.2496,-7.2496,-7.2496,-7.2496,-7.2496,-7.2496,-7.2496,-7.2496,-7.2496,-7.2496,-7.2496,-7.2496,-7.2496,-7.2496,-4.6538,-4.6844,-4.7379,-4.822,-4.8793,0.0,0.0,-5.0627,-5.12,-5.204,-5.2537,-5.311,-5.3951,-5.4409,-5.4982,-5.5861,-5.6702,-5.7695,-5.8956,-5.9873,-6.0408,-6.0408,-6.0408,-6.0408,-6.0408,-6.0408,-6.0408,-6.0408,-6.0408,-6.0313,-6.0197,-6.0967,-6.1424,-6.1498,-6.162,-6.1718,-6.1744,-6.0663,-6.0204,-6.0419,-6.0015,-6.0236,-6.1006,-6.1006,-6.1447,-6.2218,-6.2218,-6.2438,-6.2805,-6.2805,-6.2805,-6.2805,-6.2805,-6.2805,-6.2805,-6.2805,-6.2805,-6.2805,-6.2805,-6.2805,-6.2805,-6.2805,-6.2805,-6.2805,-6.2805,-6.3429,-6.4273,-6.5081,-6.5888,-6.6586,-6.699,-6.7393,-6.7687,-6.7687,-6.7687,-6.7687,-6.7687,-6.7687,-6.7687,-6.7687,-6.7687,-6.7687,-6.7687,-6.7687,-6.7687,-6.7687,-6.7687,-6.8128,-6.9339,-6.9853,-7.055,-7.1762,-7.2275,-7.2496,-7.2496,-7.2496,-7.2496,-7.2496,-7.2496,-7.2496,-7.2496,-7.2496,-7.2496,-7.2496,-7.2496,-7.2496,-7.2496,-7.2496,-7.2496,-7.2496,-7.2496,-7.2496,-4.7876,-4.7914,-4.822,-4.8907,-4.9098,-4.9251,0.0,0.0,0.0,-5.0971,-5.1238,-5.1544,-5.2193,-5.2461,-5.3034,-5.4448,-5.4944,-5.5632,-5.6969,-5.8459,-5.9568,-5.9873,-6.0064,-6.0141,-6.0141,-6.0293,-6.0408,-6.0408,-6.0408,-6.038,-6.0294,-6.0883,-6.1178,-6.1065,-6.1241,-6.1276,-6.106,-5.9937,-5.9595,-5.9989,-5.9281,-5.9391,-6.0162,-6.0162,-6.0676,-6.1594,-6.1594,-6.2071,-6.2805,-6.2805,-6.2805,-6.2805,-6.2805,-6.2805,-6.2805,-6.2805,-6.2805,-6.2805,-6.2805,-6.2805,-6.2805,-6.2805,-6.2805,-6.2805,-6.2805,-6.3282,-6.387,-6.4053,-6.5154,-6.6292,-6.6476,-6.71,-6.7687,-6.7687,-6.7687,-6.7687,-6.7687,-6.7687,-6.7687,-6.7687,-6.7687,-6.7687,-6.7687,-6.7687,-6.7687,-6.7687,-6.7687,-6.7981,-6.8788,-6.9486,-7.0183,-7.0991,-7.1651,-7.2055,-7.2055,-7.2055,-7.2055,-7.2055,-7.2055,-7.2129,-7.2275,-7.2422,-7.2496,-7.2496,-7.2496,-7.2496,-7.2496,-7.2496,-7.2496,-7.2496,-7.2496,-7.2496,-4.8028,-4.8372,-4.8984,-4.906,-4.9098,-4.9098,-4.9213,0.0,-4.9251,-4.9366,0.0,-5.0474,-5.0588,0.0,0.0,-5.2002,-5.3301,-5.4295,-5.4486,-5.5365,-5.6511,-5.8001,-5.8803,-5.9262,-5.9262,-5.995,-6.0408,-6.0408,-6.0408,-6.038,-6.0294,-6.0379,-6.0601,-6.0887,-6.0111,-5.9815,-6.0203,-5.9048,-5.8415,-5.8473,-5.8226,-5.8547,-5.9355,-5.9355,-6.0162,-6.1594,-6.1594,-6.2071,-6.2805,-6.2805,-6.2805,-6.2805,-6.2805,-6.2805,-6.2805,-6.2805,-6.2805,-6.2805,-6.2805,-6.2805,-6.2805,-6.2805,-6.2805,-6.2805,-6.2805,-6.2879,-6.3099,-6.387,-6.4751,-6.5595,-6.6329,-6.71,-6.7687,-6.7687,-6.7687,-6.7687,-6.7687,-6.7687,-6.7687,-6.7687,-6.7687,-6.7687,-6.7687,-6.7687,-6.7687,-6.7687,-6.7687,-6.7981,-6.8788,-6.8972,-6.9339,-7.0146,-7.033,-7.0367,-7.0367,-7.0367,-7.0367,-7.0367,-7.0367,-7.0697,-7.1431,-7.2129,-7.2496,-7.2496,-7.2496,-7.2496,-7.2496,-7.2496,-7.2496,-7.2496,-7.2496,-7.2496,-4.9366,-4.9519,-4.9786,-4.9786,-4.9442,-4.9213,-4.9671,-4.9442,-4.9213,-4.971,0.0,0.0,0.0,0.0,0.0,0.0,-5.2193,-5.2805,-5.3263,-5.3645,-5.4715,-5.6893,-5.7428,-5.7848,-5.8345,-5.8727,-5.8956,-5.8956,-5.9349,-5.956,-5.9569,-5.99,-6.0197,-6.0373,-5.9836,-5.9551,-5.9625,-5.8888,-5.8443,-5.8268,-5.8088,-5.818,-5.851,-5.851,-5.9391,-6.0896,-6.0896,-6.163,-6.2805,-6.2805,-6.2805,-6.2805,-6.2805,-6.2805,-6.2805,-6.2805,-6.2805,-6.2805,-6.2805,-6.2805,-6.2805,-6.2805,-6.2805,-6.2805,-6.2805,-6.2805,-6.2879,-6.3246,-6.431,-6.5375,-6.5742,-6.6733,-6.7687,-6.7687,-6.7687,-6.7687,-6.7687,-6.7687,-6.7687,-6.7687,-6.7687,-6.7687,-6.7687,-6.7687,-6.7687,-6.7687,-6.7687,-6.7797,-6.8164,-6.8605,-6.9045,-6.9376,-6.9816,-7.011,-7.011,-7.011,-7.011,-7.011,-7.011,-7.0257,-7.0587,-7.1394,-7.1798,-7.1798,-7.2275,-7.2496,-7.2496,-7.2496,-7.2496,-7.2496,-7.2496,-7.2496,-5.0856,-5.0665,-5.0359,-5.0588,-4.9671,-4.8945,-4.9786,-4.9328,-4.8984,-4.9786,-5.0168,0.0,0.0,0.0,-5.0512,-5.1162,0.0,-5.1123,-5.1697,-5.1773,-5.2728,-5.525,-5.5976,-5.6702,-5.7772,-5.7886,-5.7886,-5.7886,-5.8568,-5.8997,-5.8968,-5.9581,-5.9944,-5.9912,-5.9681,-5.9436,-5.9253,-5.8902,-5.8572,-5.8319,-5.8133,-5.7997,-5.7997,-5.7997,-5.8877,-6.0419,-6.0419,-6.13,-6.2805,-6.2805,-6.2805,-6.2805,-6.2805,-6.2805,-6.2805,-6.2805,-6.2805,-6.2805,-6.2805,-6.2805,-6.2805,-6.2805,-6.2805,-6.2805,-6.2805,-6.2805,-6.2805,-6.2805,-6.387,-6.5007,-6.5264,-6.6329,-6.743,-6.765,-6.7687,-6.7687,-6.7687,-6.7687,-6.7687,-6.7687,-6.7687,-6.7687,-6.7687,-6.7687,-6.7687,-6.7687,-6.7687,-6.7687,-6.7687,-6.8201,-6.8568,-6.8568,-6.9082,-6.9449,-6.9449,-6.9449,-6.9449,-6.9449,-6.9633,-6.9779,-6.9779,-7.055,-7.0991,-7.0991,-7.1541,-7.1945,-7.2165,-7.2165,-7.2275,-7.2496,-7.2496,-7.2496,-5.227,-5.1544,-5.0512,-5.1353,-4.9671,-4.8067,-4.8945,-4.8487,-4.8105,-4.8945,-4.9748,-5.0283,-5.0283,-5.0283,-5.0321,-5.0359,-4.9671,0.0,0.0,-4.9213,-5.013,-5.2614,-5.4409,-5.6091,-5.7734,-5.7886,-5.7886,-5.7886,-5.8568,-5.8968,-5.8919,-5.9488,-5.9777,-5.9715,-5.9505,-5.9327,-5.9177,-5.8862,-5.8609,-5.8393,-5.8133,-5.7997,-5.7997,-5.7997,-5.8877,-6.0419,-6.0419,-6.13,-6.2805,-6.2805,-6.2805,-6.2805,-6.2805,-6.2805,-6.2805,-6.2805,-6.2805,-6.2805,-6.2805,-6.2805,-6.2805,-6.2805,-6.2805,-6.2805,-6.2805,-6.2805,-6.2805,-6.2805,-6.3466,-6.431,-6.5118,-6.5925,-6.6733,-6.7504,-6.7687,-6.7687,-6.7687,-6.7687,-6.7687,-6.7687,-6.7687,-6.7687,-6.7687,-6.7687,-6.7687,-6.7687,-6.7687,-6.7687,-6.7687,-6.7724,-6.7724,-6.7724,-6.776,-6.776,-6.776,-6.776,-6.776,-6.776,-6.8495,-6.8935,-6.8935,-6.9706,-7.0146,-7.0146,-7.0146,-7.055,-7.1358,-7.1358,-7.1762,-7.2496,-7.2496,-7.2496,-5.2652,-5.2002,-5.1238,-5.1544,-5.013,-4.8869,-4.971,-4.9251,-4.8907,-4.971,-5.0092,-5.0283,-5.0283,-5.0283,-5.013,-4.9595,-4.9289,-4.8907,0.0,-4.8754,-4.9595,-5.0971,-5.2652,-5.3913,-5.4448,-5.5059,-5.5403,-5.5403,-5.7052,-5.8043,-5.7992,-5.8992,-5.9505,-5.9436,-5.9253,-5.914,-5.91,-5.8821,-5.8614,-5.8443,-5.8133,-5.7997,-5.7997,-5.7997,-5.8584,-5.9648,-6.0162,-6.1006,-6.2034,-6.2585,-6.2805,-6.2805,-6.2805,-6.2805,-6.2805,-6.2805,-6.2805,-6.2805,-6.2805,-6.2805,-6.2805,-6.2805,-6.2805,-6.2805,-6.2805,-6.2805,-6.2805,-6.2805,-6.3429,-6.4163,-6.442,-6.5485,-6.6549,-6.6843,-6.7283,-6.7687,-6.7687,-6.7687,-6.7687,-6.7687,-6.7687,-6.7687,-6.7687,-6.7687,-6.7687,-6.7687,-6.7687,-6.7687,-6.7687,-6.7687,-6.7687,-6.7687,-6.7687,-6.7687,-6.7687,-6.7687,-6.7687,-6.7687,-6.7944,-6.8091,-6.8091,-6.8862,-6.9302,-6.9302,-6.9816,-7.022,-7.0513,-7.0513,-7.066,-7.0917,-7.0917,-7.1211,-5.3569,-5.2881,-5.2117,-5.2422,-5.1009,-4.9748,-5.0588,-4.9901,-4.9328,-5.013,-5.0283,-5.0283,-5.0283,-5.0283,-5.0054,-4.9213,-4.8831,-4.8334,0.0,-4.8105,-4.8945,-4.9786,-5.1353,-5.2499,-5.2766,-5.3301,-5.376,-5.4065,-5.6033,-5.7262,-5.7408,-5.86,-5.9253,-5.9178,-5.8986,-5.8905,-5.8825,-5.8656,-5.8529,-5.84,-5.8133,-5.7997,-5.7997,-5.7997,-5.8437,-5.9245,-5.9758,-6.0603,-6.163,-6.2144,-6.2548,-6.2805,-6.2805,-6.2805,-6.2805,-6.2805,-6.2805,-6.2805,-6.2805,-6.2805,-6.2805,-6.2805,-6.2805,-6.2805,-6.2805,-6.2805,-6.2805,-6.2805,-6.3209,-6.3723,-6.4016,-6.5081,-6.6145,-6.6439,-6.71,-6.7687,-6.7687,-6.7687,-6.7687,-6.7687,-6.7687,-6.7687,-6.7687,-6.7687,-6.7687,-6.7687,-6.7687,-6.7687,-6.7687,-6.7687,-6.7687,-6.7687,-6.7687,-6.7687,-6.7687,-6.7687,-6.7687,-6.7687,-6.7687,-6.7687,-6.7687,-6.8201,-6.8458,-6.8458,-6.8972,-6.9376,-6.9669,-6.9669,-6.9816,-7.0073,-6.9816,-6.9963]}]]